GFSSGP_sfc_thetae_000.txt.gz
Theta_e
314 309 310 306 297 295 290 296 309 307 309 318 320 317 314 316 313 309 336 340 344 344 346 347 348 350 350 350 350 349 349 348 346 346 345 344 342 341 341 341 342 341 340 339 338 338 338 338 338
311 312 308 301 293 289 292 304 306 311 314 318 319 319 318 316 328 330 332 341 344 344 345 345 348 349 350 349 350 349 349 348 347 345 344 343 341 340 340 339 340 338 337 337 337 337 337 336 337
313 312 300 297 292 288 295 304 306 311 315 316 314 317 317 317 329 330 338 343 345 344 345 346 346 348 349 349 349 348 349 348 347 345 343 341 340 339 338 337 335 334 334 334 333 333 333 334 334
308 304 300 293 289 294 302 304 311 314 317 318 316 311 316 324 326 338 344 345 344 345 344 344 345 347 348 348 348 347 346 346 344 343 342 340 339 337 336 334 333 332 331 331 330 330 329 330 331
308 300 293 290 292 303 306 309 310 309 314 315 316 311 313 327 340 342 343 344 341 343 347 346 343 346 347 348 347 345 344 344 343 343 341 338 337 335 334 333 331 330 329 329 328 328 327 328 329
299 298 291 287 297 304 304 309 311 315 314 314 313 313 313 324 337 340 343 342 343 341 345 347 346 346 345 345 344 342 342 342 342 342 340 337 336 335 334 332 330 329 328 327 327 327 327 327 327
297 295 291 293 301 301 302 304 305 309 312 313 316 308 312 319 330 338 340 340 342 343 343 342 342 343 341 339 339 339 340 340 340 340 339 338 336 336 334 332 330 329 328 327 326 327 327 327 327
299 296 292 295 299 296 301 300 302 305 305 318 318 308 308 314 325 331 336 336 336 336 337 333 335 336 335 336 337 337 337 337 337 338 336 335 335 335 335 333 332 331 330 328 329 329 328 327 327
301 292 290 293 296 297 300 300 299 304 308 310 311 314 316 315 316 319 320 323 327 331 330 330 330 331 331 332 335 337 337 336 335 335 335 332 330 329 329 331 330 333 331 331 331 331 330 327 327
297 292 293 298 300 297 297 298 300 302 309 310 313 317 316 313 315 315 314 319 322 324 327 328 328 328 329 333 332 331 333 331 331 331 330 330 329 328 329 330 332 332 331 332 332 331 330 328 319
294 292 296 297 300 298 296 297 299 300 302 312 312 313 313 312 311 313 313 317 321 324 327 327 329 328 326 327 327 327 329 329 329 330 329 328 329 325 327 324 325 325 328 325 327 325 323 321 318
292 295 297 297 297 296 296 297 297 297 301 316 317 317 315 313 313 312 311 313 317 323 324 325 326 327 322 325 326 326 326 328 328 328 326 323 322 318 318 320 321 320 320 321 321 321 320 318 319
294 295 297 298 300 297 298 296 297 296 302 318 318 318 316 316 315 315 314 314 317 323 325 324 324 323 322 321 322 322 324 327 327 326 325 321 320 317 317 316 315 314 313 314 313 316 315 312 313
297 297 296 297 298 298 297 296 298 297 301 316 317 316 317 317 317 315 312 312 317 325 324 326 327 326 324 323 322 322 321 320 323 323 321 321 318 317 316 314 315 314 314 314 312 311 311 311 312
298 293 294 294 297 296 299 294 294 300 301 313 316 316 317 317 317 316 315 313 316 326 326 328 328 326 324 322 323 321 315 316 316 315 315 315 316 316 315 312 311 313 314 313 313 312 312 311 312
296 294 289 295 298 299 296 290 297 298 299 301 307 313 313 314 316 315 315 314 319 325 326 328 327 328 322 320 318 316 316 314 312 314 313 314 314 313 311 310 309 311 311 310 310 310 310 308 308
292 287 290 293 299 297 295 291 296 298 298 297 297 300 305 309 311 312 311 312 324 326 326 326 326 324 322 318 317 314 313 312 311 310 309 312 313 313 309 308 308 310 308 307 307 306 307 305 304
288 289 288 291 294 296 293 292 297 298 301 303 305 307 309 308 309 312 314 317 316 320 320 320 322 322 317 309 311 309 310 311 309 307 309 310 308 308 307 307 307 307 305 304 303 302 303 303 302
296 292 291 291 296 295 294 294 296 301 305 304 305 307 307 306 308 311 311 311 311 311 311 312 313 314 309 308 307 309 306 306 306 306 308 308 309 308 306 305 306 305 303 302 301 301 301 301 301
297 294 293 295 298 295 294 293 297 302 302 304 305 305 305 306 307 308 308 309 308 308 309 310 308 308 308 309 309 308 305 305 306 309 309 307 307 306 305 303 302 302 301 300 299 300 299 299 300
296 294 293 293 295 294 296 292 296 299 300 302 302 304 306 306 305 307 307 305 304 304 305 305 305 305 307 308 305 305 306 306 305 304 303 305 303 303 302 301 301 300 300 298 298 299 298 297 298
293 298 297 295 291 286 292 284 292 296 298 300 302 303 305 305 307 306 305 304 304 303 303 304 304 304 305 305 303 304 303 301 302 302 300 299 300 301 301 300 300 299 299 297 298 300 297 297 295
296 299 296 295 291 289 290 287 290 296 294 296 298 301 302 304 304 304 304 305 304 303 303 303 304 304 304 304 303 302 300 299 299 299 297 297 298 299 299 299 298 298 298 297 296 297 296 296 295
300 298 297 295 292 283 291 289 288 292 295 298 299 300 302 302 303 304 305 305 304 303 302 301 302 303 303 302 302 302 299 297 297 295 294 295 296 297 297 298 296 295 295 294 294 293 293 292 292
297 293 286 284 281 281 294 290 291 297 299 300 300 300 301 301 302 303 304 303 303 303 303 303 303 304 303 302 300 299 297 296 294 294 295 295 296 296 296 295 295 294 294 293 293 292 291 292 291
294 292 284 280 278 285 291 286 289 298 302 303 303 301 302 302 302 302 302 302 302 303 303 302 300 298 299 298 297 297 298 299 298 298 294 296 295 295 295 294 294 293 293 292 291 290 290 290 289
295 288 293 287 284 282 286 290 295 299 298 300 301 302 300 299 299 301 301 302 302 302 301 302 300 298 297 298 298 299 300 300 299 299 296 297 294 296 293 293 292 292 291 291 291 289 288 288 287
294 296 288 285 278 277 283 286 288 293 295 296 296 296 298 299 299 300 300 300 300 301 302 303 301 298 297 297 299 301 300 299 297 295 294 293 293 294 293 291 290 291 290 290 290 288 288 287 287
294 292 292 290 284 278 275 282 293 295 296 295 296 297 297 298 298 299 299 299 298 298 298 298 297 299 297 297 297 296 296 296 295 293 293 293 293 294 294 292 290 289 288 287 286 287 287 287 285
294 293 291 281 284 281 278 282 295 295 297 298 298 298 299 299 299 298 297 297 296 295 295 294 295 296 296 296 297 296 296 295 293 292 291 292 291 291 291 291 290 287 286 286 285 285 285 283 282

GFSSGP_sfc_thetae_003.txt.gz
Theta_e
314 308 308 305 296 292 289 294 307 305 311 318 320 316 316 319 314 309 333 338 343 343 345 347 348 349 349 349 349 348 348 346 345 344 343 342 341 340 340 340 339 337 336 336 336 336 336 335 336
308 309 306 299 291 288 291 301 307 312 316 317 318 320 320 319 329 331 332 343 344 343 344 346 348 349 349 348 348 348 347 346 345 344 343 341 340 339 338 338 338 336 335 334 334 334 334 334 335
309 309 299 295 290 286 291 303 309 314 317 315 314 316 317 322 330 331 338 343 344 342 344 347 347 348 349 349 348 348 348 347 345 344 342 340 339 337 335 334 334 333 332 332 332 331 331 331 332
304 301 298 292 290 292 297 302 309 311 315 317 315 311 317 327 330 335 341 344 342 341 343 344 344 347 348 348 348 347 346 345 343 343 340 339 337 335 334 333 332 331 331 330 329 328 328 328 329
302 296 292 290 291 296 299 307 312 311 312 314 315 310 314 333 338 340 342 342 341 342 344 345 343 345 347 347 347 346 344 342 342 342 339 338 336 334 332 331 330 329 328 328 327 327 327 327 327
296 294 289 288 293 300 301 308 314 312 313 315 315 313 312 334 337 340 341 340 342 343 346 345 346 345 344 345 344 343 342 342 342 341 339 337 335 334 332 330 328 328 327 327 327 328 327 327 327
292 291 289 291 297 298 301 306 313 311 312 312 315 307 314 328 334 340 340 340 340 342 343 345 345 345 342 340 339 339 340 340 340 339 338 337 336 335 333 330 328 328 327 328 328 329 328 328 327
296 293 290 295 295 296 300 302 307 314 310 317 315 306 311 319 334 338 338 338 339 340 340 338 336 336 334 335 337 337 338 338 338 338 337 335 334 335 334 333 331 330 329 330 330 330 330 329 328
297 291 288 291 294 294 298 300 301 309 313 311 312 312 323 325 331 330 330 331 331 332 330 330 331 331 330 331 334 336 337 336 336 336 335 331 328 326 327 331 331 332 331 331 331 331 330 329 327
295 288 292 297 298 295 297 306 306 308 309 310 309 312 321 322 326 324 324 324 325 325 327 327 327 327 329 334 330 329 331 330 329 330 329 328 327 326 329 329 332 333 332 332 332 332 331 330 320
293 291 295 296 300 300 297 298 299 307 305 310 308 310 316 320 320 320 320 322 323 325 327 326 326 326 326 327 327 326 327 327 327 328 327 327 328 326 325 324 323 323 327 324 326 324 323 321 319
291 295 295 296 298 296 296 296 300 299 310 314 314 312 313 314 316 317 317 319 319 323 325 326 325 325 324 325 325 325 326 326 327 328 328 324 322 320 319 319 319 316 316 315 319 319 319 318 318
292 293 294 296 297 295 296 294 297 295 306 316 314 312 312 313 313 315 317 317 320 323 324 325 326 324 323 323 323 323 324 327 328 327 325 322 320 315 315 314 313 313 313 312 311 312 312 310 310
296 294 293 295 296 295 295 294 294 296 312 313 313 311 311 312 312 310 310 311 318 323 323 322 325 323 321 319 321 322 322 325 326 325 322 319 317 315 315 313 312 312 312 312 312 311 310 310 310
296 292 293 292 294 294 297 292 292 297 312 312 312 313 313 313 313 312 311 310 317 322 323 323 323 324 320 320 320 319 320 319 320 316 315 315 316 314 312 310 308 309 310 309 308 308 308 307 307
293 291 288 293 295 295 294 289 294 297 311 310 311 310 312 311 310 310 312 310 312 319 322 326 329 325 324 322 320 317 315 312 313 313 312 313 312 311 309 306 306 307 308 307 305 305 303 303 303
289 285 288 291 296 294 293 290 295 295 303 299 303 305 306 307 308 311 313 313 316 320 325 326 328 328 325 320 316 314 311 309 308 308 309 308 308 308 305 305 305 306 305 303 303 302 302 301 301
286 287 286 289 292 294 291 291 296 300 301 301 302 302 303 305 307 309 312 314 314 314 318 320 319 320 315 312 310 309 310 309 309 307 306 306 306 307 305 304 304 304 302 300 300 299 300 300 300
292 289 289 289 294 294 292 294 297 300 303 302 302 302 302 303 305 307 308 309 309 310 311 313 313 312 312 310 309 308 306 306 306 306 306 305 304 304 302 301 301 301 299 298 299 299 298 297 298
294 291 290 293 296 295 295 293 296 299 299 302 302 301 302 303 304 306 306 306 306 307 308 309 309 307 308 308 307 309 307 306 308 307 304 303 302 301 301 300 299 299 298 297 297 297 296 297 297
294 291 291 291 295 296 295 292 293 297 299 301 302 302 302 303 303 305 304 301 301 302 303 304 304 305 306 309 308 304 303 303 301 300 300 299 301 300 299 299 298 298 297 296 296 296 295 294 296
291 296 295 293 291 287 291 283 290 294 296 299 300 301 302 304 303 303 302 300 300 300 301 301 302 302 303 303 302 302 301 300 299 298 296 296 299 298 298 298 297 296 295 294 296 296 294 294 292
295 297 294 294 288 288 288 285 288 294 293 296 298 301 303 301 302 302 302 302 301 301 300 301 302 303 302 302 302 301 299 296 297 295 294 295 296 297 297 296 296 295 294 293 292 292 291 291 290
298 296 295 293 290 282 289 287 286 290 293 296 298 301 302 301 301 302 303 303 302 300 299 299 300 301 302 301 300 299 296 295 293 293 293 293 295 296 296 297 295 294 293 292 291 290 290 289 289
295 292 284 283 280 280 291 288 288 295 297 298 298 299 299 301 302 304 303 300 300 299 299 301 300 299 298 297 296 296 295 293 293 294 293 295 296 296 295 294 292 292 292 291 290 289 288 288 287
292 291 284 279 277 282 290 284 289 296 299 300 300 300 299 303 301 298 298 298 298 299 297 296 296 296 296 296 296 296 296 296 296 298 297 295 293 293 293 292 292 292 291 290 290 288 287 287 285
292 286 291 284 283 281 284 288 293 296 297 298 299 299 296 296 297 298 298 298 298 298 298 296 295 295 295 296 296 297 298 298 296 296 294 292 292 294 293 292 293 293 292 290 289 288 286 286 285
293 295 286 283 277 276 282 284 285 291 294 295 294 295 295 296 297 297 297 296 296 296 296 297 296 295 295 295 295 297 295 295 295 294 293 292 292 295 294 294 293 291 291 290 288 287 286 286 285
292 290 289 288 282 277 275 282 290 293 294 293 294 295 295 295 295 296 296 296 295 294 293 293 293 292 291 292 293 293 293 294 293 292 292 292 292 292 292 292 291 290 289 287 286 285 286 286 284
292 290 288 279 282 279 277 281 292 294 295 295 295 295 295 295 295 295 295 295 294 291 289 289 289 288 289 290 291 291 291 291 291 291 290 291 291 289 289 289 291 288 286 285 285 285 284 282 281

GFSSGP_sfc_thetae_006.txt.gz
Theta_e
315 312 305 301 291 292 289 292 301 304 310 318 321 319 318 321 315 309 335 339 342 343 346 346 347 348 349 348 347 348 347 345 344 344 343 341 340 340 339 338 338 337 336 335 335 335 335 335 335
304 306 302 296 289 285 287 296 307 312 315 317 318 318 319 317 329 329 333 342 343 344 344 345 346 347 348 347 347 347 346 345 344 344 342 340 339 337 336 336 337 335 334 333 332 332 331 331 332
306 306 296 292 287 286 287 304 311 313 316 315 313 317 317 320 330 330 338 342 343 342 343 345 346 347 347 347 347 347 346 346 345 343 341 339 337 335 334 334 333 332 332 331 330 330 329 328 329
303 300 295 289 286 292 294 306 313 313 315 317 316 313 319 327 330 335 343 342 341 340 341 341 344 346 347 347 347 347 346 344 343 342 340 338 336 335 333 332 330 330 329 328 328 328 327 327 328
299 294 288 286 288 292 296 308 311 311 312 313 314 312 315 332 337 340 341 341 340 340 341 342 342 345 347 347 347 346 344 342 342 341 339 337 335 333 332 330 329 328 328 328 329 328 327 327 327
295 292 287 285 289 296 301 310 314 312 313 314 315 313 316 335 335 338 341 340 341 341 343 343 344 344 344 345 344 343 342 341 341 340 338 336 334 333 330 329 328 328 328 328 329 329 328 328 328
292 289 286 287 295 296 299 313 311 311 312 312 315 309 321 329 337 340 339 340 340 342 343 342 341 342 341 340 340 339 340 340 340 339 337 337 335 334 331 330 330 329 328 330 330 331 331 330 329
294 291 289 294 294 296 297 306 310 312 310 315 316 313 318 326 337 338 337 336 338 338 339 338 340 342 337 336 337 337 337 338 338 337 336 334 334 334 333 332 330 331 331 331 332 331 331 330 330
294 289 287 293 297 299 300 303 303 312 312 312 312 316 324 333 335 333 333 334 335 337 337 338 337 337 332 331 334 337 338 337 336 335 334 331 326 325 325 330 332 332 331 331 332 332 331 330 328
293 288 290 294 297 304 307 305 308 310 309 308 309 321 329 332 330 327 327 328 329 331 332 332 330 328 328 334 330 328 330 329 329 329 328 327 325 325 328 329 331 332 332 332 332 332 332 329 321
291 290 293 297 298 299 301 300 305 309 304 308 311 318 323 327 326 326 326 326 327 330 328 327 326 326 326 328 326 325 326 325 326 326 325 325 327 324 324 322 321 320 325 321 322 322 321 320 319
291 294 295 296 299 297 300 297 307 301 307 313 318 321 320 322 321 322 321 322 321 323 325 326 324 324 324 323 324 323 324 324 324 326 326 323 322 320 318 317 314 313 313 312 314 315 316 316 314
293 293 295 296 296 294 296 297 302 295 309 312 315 319 318 319 318 317 318 319 319 321 322 323 323 323 323 322 322 321 323 325 325 325 324 321 318 314 314 312 312 312 312 311 311 310 310 310 311
296 292 292 295 293 292 294 293 293 295 310 309 312 314 314 317 314 311 312 313 317 321 322 323 323 322 320 320 321 321 322 323 324 323 320 319 316 314 313 311 310 309 310 309 309 309 308 308 307
295 291 293 293 293 292 296 291 290 298 309 308 308 309 308 310 310 309 309 311 315 320 321 321 322 321 321 321 321 322 321 322 321 318 314 316 315 312 309 306 305 306 307 306 305 305 304 303 303
291 290 287 291 293 293 292 286 292 303 308 306 307 309 308 308 308 308 310 309 310 318 321 325 327 326 323 321 320 319 317 316 315 314 314 311 308 307 305 304 304 305 304 303 303 303 300 301 300
288 284 286 289 294 293 292 288 295 297 306 302 302 304 306 306 308 309 313 313 317 321 324 324 325 324 322 319 317 315 312 309 308 308 307 306 307 306 304 303 303 302 301 300 300 299 299 299 299
284 285 285 287 291 294 291 292 297 299 301 300 299 301 303 303 304 308 310 311 315 318 320 320 319 317 316 315 314 313 309 308 309 308 307 305 305 306 306 303 301 300 299 298 298 298 298 298 298
290 288 286 287 293 294 292 292 295 299 299 298 299 300 300 302 305 307 308 310 311 312 312 314 314 314 312 309 308 307 306 308 310 304 303 303 303 301 300 299 299 298 297 296 297 296 296 296 297
292 289 288 291 295 294 293 291 293 296 297 298 299 299 300 301 303 305 304 305 307 309 311 311 310 308 309 307 306 309 309 306 302 301 299 300 299 299 300 298 297 297 296 296 295 295 295 295 296
292 289 289 290 295 294 293 291 292 296 299 301 301 300 301 301 302 302 301 300 301 303 303 304 304 304 305 307 306 302 302 302 299 298 296 297 298 298 297 297 297 295 295 295 294 294 294 292 293
289 294 293 292 290 286 290 283 289 293 295 298 299 299 300 301 301 300 299 299 299 298 299 300 302 302 302 302 301 300 299 297 297 295 294 295 297 297 297 296 295 294 294 294 294 294 292 292 289
293 295 293 290 287 287 287 285 286 293 293 295 297 299 299 299 299 301 300 300 299 300 299 299 301 301 301 300 300 299 295 296 295 293 294 294 295 296 296 295 294 294 293 292 291 290 289 290 288
297 295 293 291 288 281 286 285 284 289 293 295 297 300 300 299 298 300 301 302 300 299 298 298 299 298 299 298 297 296 295 294 293 293 294 294 294 294 295 295 293 292 291 291 290 289 288 288 287
294 290 283 282 279 280 289 286 287 293 295 298 298 298 299 299 298 300 300 299 296 296 296 298 296 295 296 296 296 295 295 293 294 294 293 293 294 294 293 292 292 291 291 291 289 288 287 286 285
289 290 283 279 276 281 288 284 288 295 297 299 299 299 298 299 299 297 296 296 297 296 295 294 294 294 295 295 294 295 294 294 295 295 294 294 292 292 292 292 291 291 293 291 292 290 287 287 285
290 285 290 284 282 280 283 287 292 295 295 297 297 297 297 295 295 296 296 296 295 296 295 294 294 294 294 294 294 294 294 293 293 293 293 292 292 293 292 290 293 293 292 291 290 287 288 286 286
292 293 284 282 277 275 280 283 285 290 293 295 294 294 294 295 295 295 294 294 294 293 294 294 292 290 290 290 291 291 290 290 290 290 290 291 291 292 293 292 293 292 291 290 289 286 286 286 285
290 288 287 286 281 276 273 281 289 292 295 293 293 294 294 294 293 293 292 292 291 292 292 291 289 288 288 288 289 289 289 289 289 289 289 289 290 291 291 291 291 288 288 288 285 284 284 285 284
291 288 286 278 280 278 275 280 290 291 294 294 293 294 293 293 293 293 292 292 291 289 290 288 288 288 288 287 288 288 288 288 288 288 288 288 288 288 289 289 289 288 287 285 283 283 284 282 281

GFSSGP_sfc_thetae_009.txt.gz
Theta_e
324 317 312 309 299 300 295 297 306 310 314 321 324 321 320 321 316 311 337 341 343 345 348 347 345 347 347 347 348 348 347 346 345 344 342 341 340 339 338 337 339 337 335 334 333 333 332 332 332
309 309 309 304 296 293 295 299 310 315 319 319 318 318 318 315 326 330 334 342 345 346 347 346 345 346 347 347 347 347 347 345 345 343 341 340 338 337 336 336 337 335 333 331 330 329 329 329 329
310 309 305 301 296 293 295 309 313 316 318 317 314 319 319 317 327 332 340 344 346 346 347 345 345 346 347 347 347 347 346 346 345 343 340 339 337 335 334 334 335 331 330 329 329 328 327 328 328
309 308 302 298 294 297 299 313 316 314 316 318 317 312 323 332 332 336 343 345 344 345 345 343 342 345 347 347 347 346 346 345 344 342 340 338 336 334 332 332 331 329 329 330 329 329 328 328 329
306 302 297 294 294 298 301 316 317 313 314 315 316 313 319 333 339 342 342 343 342 343 345 345 341 343 346 347 347 346 344 343 343 342 340 337 335 333 330 330 329 329 330 330 330 329 328 328 329
304 301 295 293 295 300 306 315 315 314 315 315 317 317 322 337 338 340 342 342 343 342 345 346 343 343 344 345 345 343 342 341 341 340 338 336 335 332 330 330 329 329 329 330 331 330 329 329 329
301 298 295 295 299 301 309 318 313 314 314 315 318 315 325 332 338 340 341 342 343 344 343 345 346 345 341 340 340 339 339 340 339 338 338 336 334 333 332 331 331 330 331 332 333 332 332 331 331
301 299 295 300 301 301 306 313 316 313 312 319 323 317 320 329 339 340 340 341 341 343 343 344 345 345 344 344 338 338 338 338 338 337 336 333 333 332 332 331 331 332 332 332 333 333 333 332 331
300 297 297 299 302 304 309 311 309 317 315 315 315 325 329 335 339 336 334 335 337 338 340 341 339 340 343 343 341 338 338 337 336 336 334 332 333 333 332 332 332 333 332 333 333 333 332 332 330
301 297 297 301 307 307 309 308 313 313 313 311 320 329 334 333 333 330 330 330 333 335 336 338 338 338 339 339 339 338 337 336 336 335 335 335 335 335 333 333 330 330 330 332 331 330 330 330 330
299 298 298 299 304 312 308 305 312 313 310 313 319 323 327 329 329 328 329 331 332 334 334 335 336 337 339 337 337 335 335 334 334 335 334 335 335 336 337 335 333 333 328 327 326 327 328 328 327
298 299 298 303 302 303 306 308 312 312 310 317 326 329 328 326 326 328 328 330 331 333 335 337 338 336 334 334 333 332 331 331 332 334 335 335 334 334 331 329 326 325 325 324 323 323 324 323 321
298 298 298 298 299 305 302 307 311 302 314 321 327 328 329 329 329 329 328 328 329 329 332 333 332 332 331 330 330 329 329 330 332 334 334 334 331 330 327 325 323 322 321 320 320 320 320 319 318
301 298 297 298 297 298 300 298 303 304 314 320 324 325 325 325 324 322 322 323 325 328 330 330 329 329 328 328 329 329 329 327 327 328 324 325 326 326 324 319 317 317 318 318 317 318 316 315 314
298 296 297 298 298 298 300 297 295 305 312 315 320 318 318 318 319 320 320 321 323 326 328 328 327 328 328 327 328 326 324 322 320 321 322 319 319 319 316 316 316 315 316 315 315 314 314 312 310
296 296 293 297 299 298 298 293 300 304 311 309 311 313 314 313 314 316 318 317 320 326 328 329 329 328 328 328 325 323 318 319 317 317 317 315 315 316 316 314 314 313 312 312 312 311 310 309 308
294 291 292 295 299 298 299 294 302 305 309 307 309 311 312 312 313 315 319 320 323 328 328 329 330 328 326 321 316 314 315 313 312 315 313 313 311 312 313 311 310 310 309 309 308 308 307 306 305
291 291 292 293 296 300 299 297 302 304 308 306 307 309 310 310 311 314 317 321 325 326 327 326 326 325 322 318 316 316 315 314 315 312 308 310 310 310 310 309 309 309 307 307 307 306 305 305 303
293 293 292 293 298 299 296 297 300 303 304 305 306 307 309 309 311 314 317 320 321 323 323 322 321 321 320 316 315 315 315 314 309 309 309 309 309 308 309 307 307 307 306 306 306 305 302 301 304
296 293 293 296 298 299 298 297 300 302 302 304 305 307 308 308 309 310 315 319 321 321 320 320 319 317 316 317 317 318 317 312 307 307 307 306 307 306 306 307 307 307 306 306 305 303 300 302 303
295 294 292 294 298 299 299 296 298 302 304 304 305 306 307 308 307 309 311 314 316 315 315 315 315 315 314 315 314 312 311 310 308 305 305 305 306 306 306 307 307 306 306 304 303 302 301 298 300
294 296 297 296 295 292 295 289 295 300 301 303 304 305 306 306 306 305 305 306 307 307 309 310 310 310 309 310 310 310 309 307 306 304 305 306 306 306 304 305 305 305 304 303 302 300 299 298 294
296 299 297 295 293 293 293 293 293 299 299 301 303 304 305 305 305 304 305 306 306 307 308 308 308 307 307 308 309 307 306 305 304 305 304 304 305 304 303 303 303 303 302 301 300 298 297 296 294
300 298 297 295 294 289 291 291 292 295 299 301 303 304 305 305 305 305 306 306 305 306 307 306 305 304 305 306 306 306 305 303 303 303 303 303 304 305 304 302 302 301 300 299 298 297 295 295 294
299 296 290 288 288 287 292 290 294 298 300 303 303 304 305 306 305 305 305 304 304 304 304 303 303 301 303 303 303 302 302 302 302 302 301 301 301 301 302 301 300 299 298 297 298 296 295 294 293
295 296 291 283 284 288 291 289 295 298 301 305 305 306 305 305 305 304 303 302 301 301 301 302 302 301 301 302 301 301 299 298 297 297 297 296 297 298 301 301 299 298 299 298 297 296 295 295 294
294 292 295 288 285 286 289 292 297 298 298 301 302 303 303 304 303 303 302 301 301 301 301 300 298 297 297 297 297 296 296 296 295 296 296 295 297 298 300 299 298 299 298 297 296 295 295 294 294
297 296 290 289 282 280 285 287 291 294 297 300 300 302 302 302 301 300 299 300 301 301 298 297 296 295 295 295 296 295 295 295 296 296 295 295 297 298 299 298 298 297 298 296 295 294 294 292 293
294 292 290 290 287 283 281 287 296 297 299 299 301 301 301 300 300 298 298 298 299 297 296 295 294 295 294 294 295 295 295 295 295 295 295 295 296 297 298 298 296 297 295 295 294 293 292 291 292
296 293 292 287 284 284 284 287 295 296 298 301 299 299 300 300 298 297 296 295 295 295 294 293 295 294 294 294 294 294 294 295 294 294 294 295 294 296 295 294 294 294 294 294 292 291 291 290 289

GFSSGP_sfc_thetae_012.txt.gz
Theta_e
327 322 317 315 305 305 302 303 313 317 318 325 327 323 320 322 320 314 339 343 346 346 346 345 346 347 347 347 348 348 348 346 345 344 342 341 339 338 338 338 339 336 334 333 331 330 330 329 329
316 312 315 313 300 299 301 305 308 319 320 321 319 320 319 315 329 334 336 344 346 346 346 346 345 346 347 347 348 348 347 346 345 342 340 339 338 337 337 335 337 334 331 329 328 328 328 328 329
313 315 310 306 301 299 300 307 317 319 320 318 314 319 318 315 327 333 341 345 347 346 346 347 344 344 346 346 346 347 347 346 344 342 339 338 336 335 334 334 334 330 329 329 328 328 328 328 330
311 312 311 301 300 302 304 315 318 318 319 320 316 311 321 324 329 336 343 344 344 345 346 343 342 343 344 345 346 347 346 345 344 343 339 337 335 333 332 331 330 330 331 330 330 328 328 329 330
313 311 303 300 300 302 306 319 320 315 316 317 318 314 316 330 338 341 342 343 341 345 346 344 340 342 344 346 347 346 345 344 343 342 339 336 333 331 330 330 330 331 331 331 330 329 329 329 330
307 309 300 299 301 305 308 319 319 315 315 317 317 319 321 338 339 340 342 343 343 343 345 345 342 342 342 345 345 343 342 342 342 340 337 335 333 331 330 330 330 330 331 331 330 330 330 331 331
306 303 300 301 303 307 310 321 316 312 315 315 322 317 327 333 340 341 342 344 344 345 346 345 345 343 340 341 341 340 340 340 340 338 337 334 333 332 331 332 332 331 331 331 332 331 332 332 331
310 305 300 304 305 308 317 315 314 312 314 325 326 317 322 333 341 342 342 343 344 344 344 344 345 345 345 345 339 339 338 338 338 336 335 334 333 331 331 330 332 332 332 332 332 332 333 333 332
309 301 300 305 308 309 315 310 316 319 318 321 321 326 331 337 339 339 337 339 340 341 342 343 343 343 343 343 342 338 338 337 337 336 334 331 336 335 332 330 331 332 333 333 333 333 333 332 332
306 302 302 311 313 310 311 311 314 315 317 316 324 331 336 338 337 335 335 333 335 336 338 340 341 340 342 338 339 338 334 335 336 337 337 338 338 337 334 333 331 330 330 331 328 328 329 329 327
306 302 307 312 312 312 310 310 314 316 315 317 322 329 331 333 333 332 330 335 335 336 336 338 339 339 341 337 335 333 333 335 337 338 338 338 338 338 336 334 333 334 328 330 328 328 326 327 326
303 305 305 311 314 313 310 312 315 316 314 321 329 333 332 330 330 332 331 330 331 334 336 336 337 339 339 335 332 332 333 335 337 338 339 341 337 336 333 331 331 333 330 327 326 325 325 325 323
303 304 304 305 309 313 312 313 314 311 320 328 330 331 331 329 329 329 329 330 331 330 334 337 338 337 336 334 333 333 335 336 337 338 337 335 333 332 332 331 329 327 325 324 323 322 321 320 319
305 303 302 303 307 307 309 310 312 310 322 325 327 327 329 329 328 327 326 326 328 329 334 336 335 335 333 332 334 334 332 330 330 332 329 327 326 327 330 326 324 323 323 322 320 319 317 317 317
304 300 302 302 307 305 309 302 303 311 318 322 323 326 328 328 327 324 325 324 326 330 334 335 335 334 334 332 329 328 325 324 326 330 329 324 323 324 322 321 321 321 319 318 318 317 317 315 314
300 302 297 301 304 303 302 297 305 313 316 319 322 323 323 322 322 323 324 324 326 329 333 335 334 334 333 328 324 325 324 325 322 321 320 319 318 319 319 319 320 317 317 316 315 314 313 313 312
299 295 297 298 304 303 303 299 305 314 315 315 319 321 321 320 321 323 325 325 326 330 334 334 334 334 332 327 322 320 324 319 319 319 318 317 317 317 319 317 316 316 315 314 313 312 311 309 309
294 295 297 297 302 303 301 302 306 313 315 315 316 318 319 319 319 322 325 328 331 332 334 335 331 331 332 330 324 320 319 320 320 319 317 316 316 315 317 315 314 313 312 311 310 310 310 308 308
299 298 297 300 304 303 302 302 304 310 314 314 315 317 318 318 320 324 326 330 331 332 332 333 331 331 330 327 323 319 319 320 318 316 315 314 314 313 313 312 312 312 310 310 310 308 307 306 307
299 298 298 300 303 304 303 303 305 307 310 314 315 316 317 318 320 322 327 329 330 331 331 331 330 330 328 325 323 323 322 320 315 315 313 312 311 311 310 311 310 310 308 309 309 307 304 304 305
300 299 299 298 302 304 304 301 303 306 308 310 313 315 317 318 319 322 324 326 327 327 327 325 324 323 322 322 321 320 319 316 314 313 313 311 311 311 310 310 310 309 308 306 307 306 304 301 303
298 301 301 300 299 295 303 293 302 305 306 309 311 314 316 318 319 318 318 320 319 320 322 321 320 318 317 316 317 316 315 314 312 313 312 311 311 311 310 309 309 308 307 306 306 304 303 301 298
300 303 303 301 300 299 298 296 301 305 303 307 310 313 314 315 314 313 314 314 314 316 316 316 315 314 315 316 316 314 312 311 311 311 309 310 311 311 309 308 308 307 306 306 305 303 301 300 299
304 303 302 301 300 293 297 297 297 302 305 308 311 311 312 312 311 311 312 312 313 314 315 315 313 312 313 313 312 312 309 308 308 307 305 304 303 303 303 303 306 307 306 305 303 302 301 299 297
304 301 293 291 291 291 297 295 298 304 306 310 310 310 311 311 311 310 310 311 311 312 312 311 311 309 310 310 309 308 307 304 302 300 299 298 298 299 300 302 303 304 304 303 302 300 299 297 295
302 301 294 285 288 291 296 292 299 304 307 312 312 311 311 311 311 311 311 311 311 310 310 310 309 307 307 305 303 302 300 300 299 299 299 298 298 298 300 302 303 304 303 301 299 300 299 297 296
299 297 301 294 293 292 295 298 303 304 305 308 310 309 309 310 311 310 310 309 309 309 310 308 305 303 302 302 300 299 301 300 299 300 300 299 299 298 300 303 303 302 301 300 300 299 297 296 295
301 302 295 297 286 284 291 293 295 300 302 306 307 308 309 310 311 310 309 308 309 308 306 305 304 302 301 299 300 300 299 300 300 300 298 298 298 299 300 301 301 301 299 299 299 297 296 294 294
298 297 296 297 294 287 285 292 302 302 305 305 307 308 310 310 310 309 308 308 308 306 304 303 302 300 297 300 300 300 300 299 299 299 298 298 298 298 298 299 300 298 298 297 297 297 294 293 293
301 299 297 292 289 292 292 291 301 304 305 307 308 309 311 311 310 308 306 306 305 303 302 301 301 300 299 299 299 299 300 299 298 298 297 298 297 298 297 297 297 297 297 296 296 295 293 292 292

GFSSGP_sfc_thetae_015.txt.gz
Theta_e
326 325 320 313 305 305 302 306 311 315 317 325 327 323 322 324 322 316 337 343 344 345 344 344 346 347 347 347 348 349 348 346 345 343 341 339 338 338 338 338 338 335 332 331 330 329 329 331 331
326 318 314 311 302 300 302 309 306 319 320 324 323 323 320 320 332 335 336 342 345 345 342 341 345 346 347 347 347 347 347 345 343 341 339 338 337 336 336 335 336 333 331 329 328 328 330 330 329
318 315 309 305 304 300 302 308 318 320 323 321 317 321 317 319 330 335 342 343 346 345 344 343 344 344 345 345 345 347 346 346 343 342 338 337 335 334 334 333 332 332 332 331 330 329 330 330 331
313 311 311 303 302 306 305 314 317 318 319 322 321 314 318 325 327 337 345 344 345 344 346 341 342 344 344 344 345 345 346 344 343 342 337 335 333 331 331 331 332 332 331 331 330 330 330 331 332
313 310 302 302 303 307 308 316 318 314 315 318 320 313 314 324 332 338 343 344 342 341 343 342 340 341 342 343 345 345 344 343 342 339 337 334 331 330 330 331 332 332 331 331 331 331 331 331 331
306 309 301 300 304 306 309 317 319 316 316 316 317 317 320 333 334 337 339 333 339 342 343 342 340 341 339 343 343 343 342 342 341 338 336 332 331 331 331 331 331 331 331 331 331 331 332 332 332
305 304 301 303 303 307 310 320 317 315 311 314 321 317 326 331 338 341 334 329 334 339 342 343 342 340 340 340 340 340 340 340 339 337 335 332 332 332 332 332 332 331 331 332 332 332 333 333 332
308 307 302 304 304 305 315 316 319 315 315 319 323 316 320 333 341 342 340 339 340 340 343 344 343 343 344 343 339 338 338 338 338 335 333 333 333 331 331 331 332 332 332 333 334 334 334 333 334
312 302 300 303 308 312 315 312 317 319 316 320 324 325 330 337 340 339 339 339 340 341 342 342 342 341 342 341 340 338 338 337 336 335 333 330 333 332 331 331 332 332 332 332 332 331 331 332 332
305 301 303 311 311 312 314 312 314 313 314 318 322 330 335 337 336 333 335 335 335 337 338 341 341 340 339 334 337 335 331 332 333 335 334 333 335 335 329 331 331 331 331 332 331 330 330 329 326
306 303 308 312 313 315 312 311 315 311 309 318 321 327 332 333 332 333 333 333 334 337 337 339 342 342 336 334 332 330 331 333 336 337 336 336 335 336 334 331 332 333 328 329 328 327 326 327 326
304 307 309 312 312 310 309 313 314 310 308 315 327 330 328 331 331 330 328 328 330 333 337 337 338 340 336 332 330 330 332 334 334 336 337 337 334 335 333 330 331 332 329 328 327 326 327 325 323
305 307 307 311 313 312 313 311 312 314 319 325 330 329 327 329 328 327 327 328 330 329 333 335 337 336 334 332 332 335 335 335 336 336 334 334 334 333 331 331 330 328 327 326 325 324 322 320 320
307 307 306 309 310 311 310 310 311 315 320 323 325 322 323 324 324 324 324 326 327 329 332 334 333 334 333 333 336 333 331 330 329 330 331 333 333 331 327 326 326 324 325 322 321 319 318 317 318
306 302 305 307 308 308 312 303 307 316 319 319 320 321 322 322 323 322 323 325 327 330 334 334 335 334 333 335 331 328 325 327 326 327 331 330 330 327 325 323 322 320 322 321 320 319 317 315 315
302 303 299 305 308 309 308 299 309 316 317 317 319 321 322 323 323 323 325 324 327 331 335 335 333 334 335 333 329 326 327 327 324 322 322 321 321 322 321 319 320 319 317 317 316 315 313 312 312
301 295 298 300 307 307 305 301 310 315 316 316 318 321 321 322 323 325 327 327 326 330 335 335 335 335 333 332 330 331 329 327 325 323 322 321 319 319 320 318 318 318 316 315 314 313 312 310 310
295 297 299 299 304 304 301 303 308 313 313 316 317 320 320 321 322 326 327 328 328 331 335 336 335 334 331 330 331 330 328 325 324 323 320 319 318 317 318 317 316 315 314 313 313 312 312 310 308
301 299 298 301 304 302 301 303 305 312 312 313 315 317 319 321 324 326 329 331 331 334 334 332 331 331 331 330 328 324 321 322 322 320 318 317 316 315 315 315 315 314 312 312 312 310 308 305 306
300 298 299 302 304 304 302 302 306 310 311 314 314 315 317 320 322 325 328 331 332 332 333 330 331 331 331 328 325 324 323 322 319 317 317 315 315 314 313 314 313 312 310 310 309 308 305 304 304
300 298 300 299 303 305 303 302 305 308 311 314 316 318 318 320 321 324 327 329 330 330 331 331 330 329 327 325 324 324 322 318 316 315 314 314 314 313 313 312 312 311 309 306 307 306 305 301 302
298 304 302 300 300 295 304 293 302 307 307 310 313 316 318 320 322 325 326 327 328 328 329 327 325 323 323 322 319 318 318 314 314 314 314 314 313 313 311 310 309 309 307 306 305 305 304 302 299
302 305 303 303 301 300 300 296 297 306 304 307 311 314 317 320 322 321 321 321 322 323 322 322 320 317 318 319 319 317 315 314 313 313 310 311 309 307 304 304 304 305 306 306 306 305 303 302 300
306 304 303 303 301 294 297 297 297 303 306 309 312 315 317 319 318 317 318 317 317 319 319 318 316 316 317 317 316 314 312 309 308 305 302 302 301 302 302 302 303 303 304 305 305 304 303 301 300
305 301 293 291 292 291 299 297 299 304 308 310 312 314 316 317 315 314 313 313 315 316 317 316 315 313 314 313 311 309 306 304 301 301 300 299 299 299 300 301 302 302 303 304 303 302 301 300 298
302 301 293 286 288 291 300 293 299 308 309 311 315 315 316 314 313 312 313 314 314 315 315 314 313 311 310 307 305 304 302 300 301 301 300 300 299 299 300 301 303 303 303 303 302 301 301 299 297
301 298 303 297 297 293 295 299 305 307 307 309 313 314 313 313 312 313 314 314 315 314 313 314 312 308 306 305 304 302 302 301 301 301 301 299 300 298 299 301 301 302 302 301 302 300 299 299 297
304 305 296 296 287 286 292 294 295 302 304 307 311 312 312 313 312 313 314 313 314 313 314 312 309 306 306 303 302 301 301 302 302 302 300 299 299 299 299 299 299 300 301 302 300 299 298 296 296
301 299 299 299 297 289 287 293 302 301 305 306 310 312 313 313 313 313 313 313 313 313 311 308 306 306 303 302 301 302 301 301 302 301 300 299 299 299 298 298 298 298 299 299 298 297 297 296 294
305 302 301 294 291 294 294 292 304 305 306 308 309 312 314 314 314 314 313 312 311 310 308 306 306 304 303 302 301 302 302 301 300 300 299 299 298 298 298 298 297 297 297 297 296 295 295 294 293

GFSSGP_sfc_thetae_018.txt.gz
Theta_e
323 320 321 315 300 302 299 302 308 311 318 324 324 321 321 325 322 314 340 342 340 338 341 343 346 347 347 347 349 348 348 347 345 342 342 340 338 338 339 339 338 337 332 330 329 331 330 330 329
319 320 318 306 297 295 298 306 309 318 321 323 323 321 320 321 331 332 337 342 341 339 339 342 346 346 347 347 348 347 347 345 343 341 339 339 337 335 336 337 336 336 332 331 331 331 331 330 330
323 320 304 301 299 296 299 307 312 320 321 320 317 321 317 322 332 334 341 344 343 338 340 343 344 343 345 346 345 345 345 343 342 340 337 335 334 333 333 337 337 335 332 332 332 332 332 332 334
313 309 306 299 298 303 304 310 318 317 316 321 319 314 319 326 331 338 342 344 343 342 341 341 341 341 343 344 346 345 344 342 341 340 338 334 332 332 334 337 336 334 333 332 332 332 332 334 334
314 307 298 297 299 304 309 316 319 313 313 316 317 311 314 326 334 341 340 343 341 338 339 340 338 341 343 345 345 344 343 341 340 339 336 335 331 332 334 336 335 333 332 332 332 332 334 334 334
304 305 296 295 299 306 310 317 317 313 314 317 314 313 319 329 333 338 340 340 340 338 340 338 338 341 342 343 342 341 340 340 339 338 335 335 334 335 335 335 335 335 335 335 334 334 334 335 334
303 301 297 299 300 305 314 319 314 313 315 314 319 312 321 327 336 333 332 335 335 338 338 337 339 341 340 338 339 338 338 338 338 336 335 335 335 335 335 336 335 335 335 335 336 335 335 335 335
306 303 299 301 300 305 314 315 316 313 312 321 318 309 318 330 333 328 329 329 332 334 337 336 337 341 339 337 337 336 336 336 336 334 333 333 333 333 334 334 335 335 334 334 334 335 334 334 334
309 299 297 300 303 304 312 311 316 320 317 315 319 322 330 336 335 327 326 327 329 327 335 338 339 339 339 337 336 336 337 335 334 332 332 329 330 330 331 332 333 333 332 332 333 331 331 331 331
304 299 300 311 311 306 309 310 313 313 316 317 316 318 333 334 333 331 330 326 326 326 334 336 338 338 338 334 334 331 330 329 332 331 329 332 332 329 327 332 332 333 332 331 332 331 331 330 322
304 299 305 309 311 312 311 311 313 310 309 315 318 325 329 329 331 329 329 330 331 333 335 336 338 337 333 331 332 328 331 333 334 334 334 334 334 334 331 332 329 330 331 329 327 326 325 322 321
301 305 306 309 314 312 311 313 310 308 310 314 320 326 328 328 328 329 327 331 332 333 334 336 336 338 332 331 330 331 332 334 335 336 334 335 334 333 331 330 328 327 325 325 324 322 322 318 318
303 306 308 312 312 312 313 310 310 309 314 316 319 321 326 327 324 325 325 328 331 331 333 334 337 334 333 331 334 333 331 330 332 331 332 332 331 329 327 325 325 326 322 320 318 317 316 315 315
306 307 307 309 310 312 309 309 312 312 315 314 320 321 323 323 321 323 323 325 326 330 330 332 332 332 333 334 332 329 328 327 327 328 330 331 330 328 324 324 321 320 320 317 316 315 314 313 313
307 302 305 307 308 309 310 307 306 314 316 318 317 319 319 320 321 321 324 324 326 329 331 332 332 332 333 333 330 326 326 326 325 326 327 327 327 324 322 319 318 316 317 316 315 313 312 310 310
302 303 297 304 307 309 309 298 307 316 315 314 315 316 317 318 319 322 324 325 327 329 330 331 331 332 334 330 328 328 327 326 324 322 322 321 321 320 318 316 318 316 315 314 312 310 309 308 307
300 294 297 300 307 306 305 300 307 314 314 313 316 316 318 318 319 322 323 324 327 331 332 331 333 333 331 329 328 329 328 326 323 323 321 320 318 318 317 315 315 313 313 312 311 309 308 306 305
294 295 297 298 302 305 301 301 306 310 313 314 315 316 318 318 320 323 324 325 325 332 334 332 333 332 330 329 329 329 328 325 323 322 318 318 316 316 315 315 312 312 311 309 309 308 307 305 302
300 298 297 300 304 302 300 301 305 309 311 312 314 316 317 318 322 325 328 330 332 333 333 332 329 329 329 327 326 325 321 321 320 317 317 316 314 314 312 312 312 311 308 308 307 304 302 301 302
300 298 297 300 302 301 300 300 303 308 309 312 313 315 317 319 321 324 327 330 332 332 333 331 329 328 330 330 326 322 321 321 317 316 315 314 314 312 311 311 309 309 307 306 305 302 301 300 300
299 298 298 298 300 301 301 298 301 306 310 311 313 315 316 318 320 323 326 328 331 328 330 328 329 330 331 325 323 322 319 316 313 313 312 312 312 311 310 310 308 307 305 303 302 301 300 297 297
297 303 301 300 298 293 302 291 300 303 305 308 311 313 315 318 321 323 325 327 327 327 330 330 330 327 323 323 321 319 314 311 313 312 312 311 312 309 305 304 303 303 304 302 302 302 299 298 294
299 304 302 301 298 298 296 294 298 303 301 306 310 314 316 319 321 322 325 327 327 328 327 325 322 321 320 319 319 316 313 312 311 309 307 305 303 303 302 301 301 300 300 301 302 301 299 297 296
306 303 303 301 299 290 295 293 296 298 301 306 309 313 316 318 321 323 324 323 321 322 321 320 316 316 317 316 314 312 308 306 302 301 299 300 300 300 301 301 300 301 300 300 301 300 299 297 296
303 298 291 289 289 290 299 295 297 303 306 308 310 312 316 319 319 318 317 316 317 317 316 316 315 313 314 312 310 307 304 303 300 299 300 299 298 297 298 298 299 299 300 301 300 298 297 297 295
301 298 293 282 284 291 298 292 297 308 310 309 313 315 317 317 317 315 314 314 314 315 315 314 313 311 311 307 304 304 303 301 301 300 299 298 297 297 298 298 298 299 301 300 298 297 297 296 295
298 297 302 295 293 292 293 297 304 306 306 307 312 314 314 315 314 312 313 314 314 314 314 313 312 310 307 305 304 302 302 301 301 301 299 298 297 297 297 297 297 298 299 299 298 296 296 296 295
302 304 296 297 287 285 290 293 295 302 303 306 309 312 313 314 313 312 312 313 314 314 313 314 312 307 304 304 303 302 302 303 302 300 298 297 297 297 297 297 296 296 297 299 298 296 296 294 293
300 297 298 297 298 291 288 291 301 301 304 306 308 313 313 313 312 312 312 314 314 314 313 313 309 305 304 302 302 301 302 302 301 299 298 297 297 297 296 296 296 296 295 295 294 294 293 293 292
303 301 299 296 292 296 294 291 304 304 305 308 308 311 314 314 313 313 313 313 312 312 312 309 306 305 303 302 302 301 302 302 299 299 298 297 296 297 296 296 296 296 295 295 294 293 293 292 291

GFSSGP_sfc_thetae_024.txt.gz
Theta_e
318 315 310 306 292 288 285 291 296 303 309 316 323 322 319 322 319 307 335 338 341 342 345 345 345 347 347 348 347 345 344 343 341 340 340 339 337 337 338 337 337 337 335 334 334 333 333 333 333
313 311 306 299 286 281 285 293 303 310 314 314 314 320 320 320 330 329 331 339 341 343 343 343 345 346 348 347 345 343 342 341 341 339 337 337 336 336 338 338 337 338 335 334 333 333 333 333 334
314 315 303 294 283 283 285 298 309 311 315 313 311 313 320 323 331 333 335 339 340 340 341 342 345 345 346 345 343 342 342 341 340 338 336 336 336 336 336 337 337 337 334 333 333 333 333 334 335
309 300 297 287 285 289 293 298 310 312 314 316 311 308 317 329 332 333 336 338 337 337 340 341 343 344 344 344 342 341 340 338 338 337 338 337 336 336 337 337 338 335 334 333 333 333 333 334 335
304 296 287 285 288 299 308 310 312 310 312 314 313 308 315 329 334 334 335 337 336 337 338 339 339 341 343 343 342 340 339 337 336 337 338 338 337 336 337 337 336 335 333 333 332 333 335 334 335
299 293 286 284 291 307 311 312 312 312 313 314 312 314 320 331 332 334 336 335 336 335 337 338 340 339 339 340 340 338 337 336 336 337 337 337 337 337 337 337 337 336 335 335 334 333 333 333 334
294 291 287 289 291 294 310 314 311 310 311 312 314 309 320 325 332 332 327 329 331 333 334 333 334 336 336 336 337 336 335 335 335 336 335 336 335 336 336 337 336 335 334 333 332 332 332 332 332
298 293 288 290 291 297 308 312 312 310 309 316 315 307 313 323 329 328 328 327 325 327 328 329 333 334 334 333 335 335 333 333 334 334 334 333 334 335 335 334 335 334 332 332 331 331 330 330 331
297 290 287 289 300 302 309 308 314 314 310 311 314 320 322 326 326 325 325 325 323 324 325 331 333 333 332 331 332 333 333 332 332 332 332 329 326 327 329 330 332 331 330 331 330 330 330 330 326
295 289 291 299 306 303 306 305 309 310 310 309 314 321 324 323 322 321 322 321 322 321 323 327 332 332 330 330 328 326 327 326 325 324 325 323 322 323 328 330 330 331 329 330 330 330 325 320 314
295 292 301 305 309 307 304 306 311 310 307 309 314 316 320 320 321 320 322 321 320 322 323 326 331 331 328 326 325 325 324 324 324 323 323 325 326 325 325 324 323 323 323 318 318 314 312 311 311
294 298 305 307 310 308 308 309 306 304 311 313 321 321 320 319 319 318 320 322 320 323 324 327 331 331 326 325 323 322 324 328 328 328 328 326 324 320 319 319 318 316 313 311 312 310 310 308 308
295 301 306 308 310 309 312 306 305 308 311 315 322 321 318 318 319 319 321 323 324 325 328 330 332 331 326 325 324 326 328 326 325 325 325 323 321 318 318 315 313 313 311 309 309 308 307 306 305
300 305 305 308 308 308 304 306 306 308 314 316 320 319 318 318 319 318 320 322 325 328 328 330 331 324 325 326 323 321 321 322 323 323 323 323 319 316 314 312 311 310 310 308 306 305 304 304 304
301 300 305 307 306 305 305 301 304 309 313 313 315 320 321 320 320 319 322 324 328 328 330 328 323 326 325 321 320 320 320 320 319 320 321 320 317 315 311 311 309 307 307 306 305 305 304 303 303
296 298 294 303 306 306 302 294 303 310 312 312 314 316 316 322 322 323 325 327 328 327 327 326 328 324 322 320 319 320 318 316 315 315 316 316 316 313 311 307 306 306 306 305 304 303 302 301 299
293 287 291 298 306 304 299 296 304 309 311 310 309 311 313 319 322 325 326 326 326 326 326 322 326 322 321 320 320 319 317 315 314 314 312 312 311 312 309 306 305 305 304 303 303 301 300 299 297
289 289 289 293 297 301 296 295 305 308 310 309 308 309 309 314 316 323 326 326 325 325 326 323 325 322 321 320 320 318 316 315 314 312 310 309 308 310 307 305 304 304 302 301 300 297 297 297 296
297 294 290 292 298 296 296 299 304 307 308 308 308 310 309 312 315 319 324 324 323 323 323 324 322 322 321 320 319 316 313 313 311 307 308 307 307 306 305 304 303 302 301 299 299 297 295 295 295
297 294 293 295 297 295 294 296 303 305 306 307 307 309 310 311 312 314 317 322 322 323 323 324 323 322 321 320 319 317 313 309 307 306 306 306 306 305 305 303 302 301 299 298 297 296 294 294 293
296 294 294 293 293 294 293 290 298 303 305 306 309 311 312 312 312 315 317 321 322 322 323 323 323 322 321 320 318 311 308 306 304 303 303 304 306 302 300 298 297 296 296 295 295 295 294 292 292
291 298 297 296 291 286 291 283 293 298 302 305 308 308 309 311 314 317 319 321 322 322 322 323 324 323 322 319 315 313 309 306 303 303 303 300 298 298 298 297 295 295 294 294 294 297 294 292 290
295 299 297 296 292 290 291 288 290 296 295 302 306 309 306 310 314 316 320 322 323 322 323 323 322 322 322 315 313 310 304 303 303 300 295 295 295 296 296 295 294 294 295 294 295 294 293 293 291
301 298 297 295 291 283 292 288 287 294 297 300 304 309 309 310 313 317 321 324 322 322 322 319 318 313 314 312 308 306 301 298 297 294 293 294 295 294 294 295 293 293 294 295 294 293 293 292 291
299 291 284 283 281 281 294 290 291 297 300 300 301 303 307 312 314 317 318 320 320 319 318 316 310 304 303 302 301 300 297 297 295 293 293 293 294 294 292 292 292 292 294 296 294 293 293 292 290
295 292 284 280 279 285 293 288 293 300 302 304 303 304 309 311 316 317 315 313 313 312 310 309 307 302 299 298 297 297 296 295 294 295 295 294 294 293 294 294 293 292 292 294 294 293 292 292 290
295 290 295 289 289 285 288 293 297 300 300 301 303 305 308 309 312 312 311 310 309 306 306 306 305 302 299 297 296 296 295 296 296 296 295 295 295 295 292 292 292 292 292 291 292 292 292 291 291
298 298 289 288 282 280 285 286 290 296 298 301 301 302 307 308 309 310 310 309 308 307 306 305 304 300 298 297 296 297 297 296 296 296 295 295 295 295 293 293 292 291 291 291 292 292 292 291 289
294 291 292 292 286 281 279 284 292 297 299 299 301 303 306 308 309 309 310 309 308 307 306 305 302 298 296 296 295 295 296 297 297 296 296 295 294 294 294 293 291 292 292 291 290 289 289 289 289
297 294 293 283 284 283 281 285 295 296 298 300 302 304 308 309 308 309 309 308 307 307 306 304 301 299 297 297 296 296 296 297 297 296 295 295 295 294 293 292 291 292 292 290 289 289 289 289 287

GFSSGP_sfc_thetae_030.txt.gz
Theta_e
315 309 306 301 291 286 283 287 290 292 307 317 322 320 316 320 313 304 333 336 341 342 343 343 345 346 345 344 344 343 343 342 340 339 339 339 339 340 340 339 339 340 339 337 336 339 339 340 340
308 306 303 293 284 280 283 288 293 303 310 314 313 320 320 318 327 328 330 339 341 343 342 342 345 345 344 344 343 342 341 341 340 339 339 339 339 339 340 339 338 339 339 335 335 335 335 335 338
308 310 299 288 281 281 283 289 305 309 313 311 309 316 320 321 329 331 337 341 342 342 341 341 344 344 344 343 342 341 340 340 339 339 338 337 338 338 339 339 338 340 339 335 335 334 334 334 335
305 302 292 286 281 286 288 292 305 308 311 312 309 311 324 330 330 335 340 341 340 340 339 341 341 343 342 342 341 341 339 338 338 338 339 339 339 337 339 338 338 339 338 335 334 334 334 335 334
298 293 285 283 284 288 301 307 309 307 309 311 312 313 318 329 334 336 337 338 337 338 340 340 339 341 342 342 342 340 338 338 339 339 339 339 339 339 339 338 338 338 337 337 335 336 334 333 334
295 290 283 281 286 292 306 309 309 309 310 312 313 314 319 329 329 329 331 331 332 333 336 338 340 340 340 340 339 338 338 339 339 339 339 339 339 338 338 338 337 336 335 335 336 336 335 332 333
293 288 283 284 288 292 304 309 307 308 307 307 313 311 320 323 326 327 327 327 327 328 332 332 336 337 337 336 336 336 337 338 338 338 338 338 337 337 337 337 336 335 334 334 334 335 335 332 331
294 290 286 285 287 290 304 309 309 307 305 314 315 311 314 322 324 325 325 325 324 324 327 326 326 329 330 331 334 334 335 336 336 336 335 334 335 336 335 334 334 334 334 334 333 333 334 331 329
293 287 284 286 290 296 306 304 308 314 313 316 319 318 322 324 324 322 321 322 321 322 323 324 324 327 329 329 331 333 335 335 334 334 333 328 326 326 324 330 331 331 330 332 330 328 326 325 325
291 287 288 293 295 300 304 304 307 308 310 313 317 323 325 323 321 318 317 317 319 320 321 323 323 324 327 330 325 324 328 326 325 325 323 324 323 322 325 328 330 330 328 327 325 322 320 314 309
290 289 293 296 304 304 302 304 308 307 304 313 313 319 320 321 320 318 318 318 318 320 321 323 323 323 326 325 323 322 321 321 322 322 320 320 322 321 321 320 317 314 317 310 310 308 307 306 305
290 294 296 299 307 304 303 305 304 306 308 317 319 320 318 318 320 319 319 319 319 318 319 322 324 326 326 324 321 320 319 320 320 319 321 321 320 318 317 315 311 310 309 308 306 305 305 304 303
292 294 298 304 307 307 307 305 306 310 314 318 319 318 318 319 318 321 322 320 319 317 320 323 324 326 325 321 319 319 322 322 321 321 322 319 317 315 312 310 309 307 307 305 304 303 303 302 301
296 297 301 305 306 307 305 305 307 312 316 316 316 316 316 317 317 318 318 318 317 318 318 320 324 327 324 319 319 322 322 322 321 321 320 318 316 312 309 308 307 306 305 304 303 302 301 299 299
300 299 302 303 303 303 306 300 303 314 316 314 314 313 315 317 318 317 319 317 317 318 319 321 325 327 322 320 321 321 320 320 320 320 319 316 313 310 307 306 305 304 304 303 302 302 300 298 299
293 295 290 302 304 304 300 293 304 315 315 312 313 314 314 316 318 317 319 320 320 321 322 325 328 324 320 319 319 319 318 317 318 317 316 315 312 309 306 305 304 303 303 302 301 299 298 297 296
290 285 289 296 305 302 298 293 304 312 313 313 313 313 313 314 317 318 317 319 321 323 324 325 324 321 319 318 318 317 315 315 315 314 313 311 310 307 305 304 303 302 301 300 299 297 297 295 295
287 287 287 290 299 300 295 294 301 307 309 311 312 314 315 315 316 318 317 319 322 323 324 323 322 319 317 317 315 313 311 312 311 309 309 310 307 306 304 302 301 300 299 297 296 295 295 295 294
293 291 289 291 295 299 298 295 300 304 306 308 309 312 314 316 319 318 318 320 323 322 321 321 318 317 317 316 313 310 310 310 308 307 307 308 305 304 302 301 300 299 297 296 296 295 294 293 292
294 291 291 293 294 296 292 293 298 302 306 309 308 309 311 314 317 318 317 320 322 322 322 321 320 318 318 318 314 313 311 309 306 305 305 305 304 302 302 300 298 297 296 295 295 294 293 292 291
292 291 291 291 291 290 290 289 296 302 303 305 307 309 310 310 315 317 319 320 321 321 321 321 320 318 319 318 314 308 308 304 302 301 301 302 302 301 298 296 294 294 293 293 293 294 293 291 290
289 295 293 292 288 284 288 282 288 297 301 302 303 304 306 308 313 315 318 319 319 320 321 322 320 319 318 319 315 311 310 306 303 301 300 296 297 296 295 295 295 294 294 293 295 295 294 291 290
293 295 293 293 289 287 288 285 287 295 298 302 305 303 305 307 309 312 314 319 320 317 319 320 320 319 318 319 317 312 309 307 304 300 294 294 294 294 295 295 295 294 295 296 296 294 292 292 291
297 294 292 291 288 282 287 285 285 289 297 303 306 306 305 305 307 309 311 315 316 316 317 319 321 320 319 317 314 311 306 305 302 297 293 295 292 293 293 294 293 295 297 295 294 293 292 291 290
293 288 282 281 281 281 290 287 289 294 295 298 302 304 305 306 306 309 311 313 316 316 318 319 321 319 319 317 314 310 309 306 302 296 294 292 292 293 292 293 294 295 297 296 294 292 292 291 290
291 290 282 278 277 281 289 284 289 296 298 299 299 299 301 304 307 311 314 315 316 317 317 320 320 319 316 316 312 311 308 306 303 296 294 294 294 294 294 295 293 295 296 294 294 293 291 291 290
292 287 291 285 284 282 284 289 293 294 297 299 299 300 298 302 305 310 315 317 317 317 317 319 317 317 313 311 308 306 304 302 298 298 295 294 295 295 295 295 295 294 292 293 293 293 292 291 289
293 295 287 285 281 279 282 283 285 291 295 298 299 301 301 303 306 310 314 316 317 318 319 317 314 311 309 306 304 302 301 301 299 296 295 296 296 295 295 295 294 293 292 292 292 291 291 290 289
291 289 288 289 284 280 277 282 290 292 294 295 297 300 301 305 307 310 313 315 314 314 309 310 306 303 301 301 300 298 298 298 299 298 297 295 295 296 295 294 293 292 292 292 291 291 290 288 287
293 291 290 282 283 281 280 282 293 292 293 294 295 298 299 304 307 308 310 309 308 309 307 307 302 299 298 298 298 298 298 298 296 295 295 295 295 295 294 294 292 292 292 291 290 288 288 287 287

GFSSGP_sfc_thetae_033.txt.gz
Theta_e
323 314 313 308 299 296 292 293 297 298 310 320 325 321 319 321 316 311 335 338 344 342 343 345 344 345 345 345 344 344 343 343 342 342 342 341 341 341 341 340 340 341 342 341 342 342 341 339 340
313 310 310 301 295 290 292 295 301 309 314 318 319 323 321 318 327 328 331 341 343 342 342 342 344 344 344 344 343 343 343 342 341 341 341 341 342 342 341 340 340 340 341 339 340 342 342 340 341
313 312 307 299 292 290 292 295 309 313 315 315 314 323 323 320 330 331 338 342 343 342 342 342 343 343 343 343 342 341 341 341 340 340 341 341 342 342 341 340 339 340 340 336 337 337 338 338 338
311 310 299 295 291 293 294 297 310 310 315 315 318 317 325 331 331 336 341 343 341 343 343 342 342 343 343 342 341 340 339 339 338 339 340 341 341 341 341 340 340 340 339 335 334 335 334 336 336
304 302 295 291 291 293 297 311 313 311 312 314 318 314 318 329 335 338 339 341 339 340 343 343 340 341 342 343 341 340 339 338 338 339 339 340 341 341 340 339 339 339 338 336 334 335 335 335 334
303 299 293 290 291 295 300 313 313 312 314 315 317 316 319 330 330 330 330 331 334 336 338 341 341 340 340 341 339 338 338 339 339 339 339 340 340 339 339 338 337 337 337 337 336 334 335 334 334
301 298 293 291 293 295 306 314 311 312 312 312 318 314 319 323 326 327 326 328 330 330 333 335 335 335 336 336 336 337 338 339 338 338 339 339 338 337 337 337 336 336 335 336 336 334 333 334 332
302 299 293 293 292 293 308 311 313 310 309 318 319 313 313 321 325 324 324 325 326 326 328 327 327 329 329 331 335 336 337 337 337 338 336 335 335 336 336 335 335 335 335 335 336 333 331 330 329
300 297 292 293 293 299 310 308 312 318 316 318 319 320 321 323 324 322 320 321 321 322 321 323 322 325 329 331 334 336 337 336 335 334 333 330 330 331 329 331 332 333 332 331 330 327 326 325 323
301 295 294 298 298 304 308 309 310 312 314 313 317 321 322 322 321 318 317 316 317 317 319 321 323 323 329 327 328 331 331 330 330 330 330 329 331 329 329 330 331 329 326 325 323 321 319 318 315
297 296 298 299 300 309 307 308 312 311 308 314 314 317 319 319 318 318 318 318 316 317 318 321 320 321 325 327 325 326 326 327 328 328 328 328 329 330 329 327 322 321 320 316 316 314 313 314 314
296 299 299 302 310 308 306 309 308 310 312 318 321 321 320 318 318 317 317 318 317 319 320 321 322 320 325 328 324 324 325 325 327 326 328 330 328 327 326 320 319 318 316 315 315 314 313 313 312
297 299 300 301 309 309 310 307 309 311 318 321 321 319 318 319 319 319 320 319 320 318 320 321 323 323 327 326 324 323 325 325 326 327 330 330 327 325 321 318 317 316 316 315 314 313 312 311 310
300 300 305 308 309 309 309 310 310 313 318 317 318 318 319 319 321 321 321 319 317 319 319 322 323 328 328 325 325 325 327 327 327 328 329 327 325 321 318 317 316 315 316 315 314 312 310 309 309
303 302 305 306 308 306 308 303 307 315 317 315 316 315 317 319 319 321 322 321 318 319 321 323 326 331 329 325 325 327 329 329 328 328 327 325 322 321 319 316 314 314 314 314 312 310 310 308 306
298 299 295 303 306 306 304 298 309 315 313 312 314 314 315 316 319 322 322 321 320 320 321 324 327 330 330 326 327 328 328 329 329 328 326 323 320 319 318 315 314 314 313 312 310 309 307 307 307
296 292 293 299 307 305 303 299 309 315 314 311 313 313 315 317 319 321 323 322 320 321 323 324 328 330 329 327 327 329 328 327 327 327 325 322 318 316 316 314 313 313 311 310 308 307 307 306 306
292 293 295 295 303 304 301 299 308 313 313 312 313 315 315 315 318 321 322 323 322 324 325 326 328 330 329 327 326 325 324 323 324 324 323 320 316 315 314 312 312 310 308 307 307 307 306 306 306
297 295 294 297 299 302 301 300 304 311 313 313 314 315 316 317 319 322 323 323 324 325 325 327 328 329 326 324 323 323 320 320 319 319 319 317 315 313 312 310 310 309 309 307 307 305 304 304 305
297 295 294 296 297 300 297 298 302 307 310 312 313 315 316 319 320 321 322 322 323 324 326 328 328 327 327 326 325 323 320 320 317 315 317 314 314 312 311 310 309 308 306 306 306 305 303 304 304
296 295 294 294 295 296 296 295 300 305 308 311 312 315 317 318 319 321 320 321 323 324 327 328 329 327 327 326 323 318 316 315 313 312 312 312 312 311 310 309 307 305 304 303 304 305 303 300 301
294 298 296 295 293 289 295 289 293 302 304 307 310 312 314 316 318 321 322 322 322 325 328 329 328 327 327 325 323 319 318 315 315 312 312 310 310 308 307 305 304 304 304 303 303 303 301 302 299
297 299 297 296 293 293 293 291 294 299 301 305 309 311 313 315 316 319 322 324 325 326 327 329 328 326 326 323 323 321 320 318 313 310 308 305 305 305 303 304 304 304 303 304 304 303 301 302 301
300 298 295 294 293 288 291 292 293 295 300 305 310 312 313 313 314 316 321 324 325 327 327 327 325 325 324 323 323 320 318 313 309 304 303 302 302 302 303 302 303 304 304 303 302 299 300 301 301
298 294 289 286 287 286 293 291 295 299 300 303 306 310 313 315 314 315 315 318 323 323 324 325 323 322 321 321 321 320 315 312 310 303 301 301 300 300 301 302 302 302 302 301 298 299 302 301 300
296 295 289 282 283 286 292 289 294 301 303 303 304 304 307 312 314 315 316 318 320 322 323 325 324 323 320 321 321 319 316 315 310 305 303 302 302 301 301 301 302 302 301 300 302 302 301 301 301
295 293 295 289 288 288 290 293 298 299 301 304 304 305 306 306 310 312 315 317 319 322 322 325 325 324 323 321 321 318 317 315 310 307 307 304 303 300 300 301 298 300 300 298 299 300 300 301 301
298 299 292 291 284 282 287 288 292 296 298 301 304 306 307 308 309 311 314 318 320 322 323 325 325 324 325 322 321 320 318 315 313 309 305 302 302 300 300 300 300 299 296 299 298 299 299 300 300
295 294 293 293 290 286 284 288 297 298 299 302 302 303 306 309 312 312 315 320 321 323 323 323 324 324 322 321 320 318 316 314 310 306 304 303 302 301 299 298 299 295 296 297 297 297 298 298 299
297 296 295 291 287 287 286 288 299 300 298 299 302 301 304 307 312 314 317 319 320 321 321 321 321 320 319 316 313 314 312 309 307 306 305 304 301 300 298 297 295 296 295 296 295 295 296 297 296

GFSSGP_sfc_thetae_036.txt.gz
Theta_e
325 321 319 315 302 301 298 298 303 306 307 323 327 324 319 324 317 313 337 343 344 341 342 345 345 346 346 346 345 345 345 344 343 343 342 342 342 342 342 342 343 344 344 342 342 341 341 338 338
318 314 316 311 298 295 297 301 302 309 316 322 323 326 323 320 328 331 334 339 344 342 341 340 344 345 345 344 344 344 344 343 343 342 342 342 343 342 342 342 343 344 346 344 342 342 341 339 339
317 317 309 304 299 295 297 301 307 313 318 320 319 328 324 321 328 331 340 342 344 342 341 342 343 343 344 343 343 342 342 341 342 342 343 343 343 342 342 341 341 342 344 342 342 342 341 339 338
317 315 309 299 296 299 299 305 314 314 317 320 323 320 326 330 333 337 341 343 342 341 341 342 341 342 343 343 342 341 340 340 340 341 342 343 343 342 342 341 341 341 340 338 339 339 338 337 336
315 310 300 297 296 299 303 308 316 313 316 317 321 318 321 330 336 340 341 343 340 342 344 343 340 341 342 342 342 340 339 339 339 340 341 341 342 342 341 340 340 339 338 337 336 336 336 336 335
308 307 297 296 296 300 306 314 316 316 317 319 320 320 321 329 328 331 337 338 342 340 343 342 341 341 341 340 339 338 338 339 339 340 340 341 341 340 340 339 339 339 337 336 337 336 335 335 332
305 302 297 297 299 302 309 318 315 315 316 317 323 317 321 323 326 328 330 332 335 339 338 336 336 336 337 336 337 337 338 339 339 339 339 339 338 337 337 337 337 338 337 335 335 335 335 332 329
308 305 297 300 299 301 311 314 317 316 315 323 324 316 315 321 325 327 328 326 329 331 333 330 328 328 330 333 336 337 337 338 338 338 337 335 336 336 336 335 336 337 337 335 334 334 332 328 326
309 300 300 299 300 303 312 311 316 320 319 320 322 324 324 323 324 324 322 321 322 325 326 326 324 325 326 329 335 337 338 337 335 335 333 329 328 328 330 332 335 334 334 332 330 328 327 326 323
305 301 298 303 304 303 310 313 314 315 317 317 318 322 323 322 323 322 319 318 318 319 321 323 321 321 323 324 330 335 334 332 331 329 329 328 331 331 329 332 330 329 328 327 324 323 322 324 322
305 301 304 304 305 306 310 312 315 313 312 317 314 317 320 321 321 320 318 316 315 317 318 320 322 324 324 323 329 331 331 331 331 331 330 330 330 331 330 330 326 325 325 321 321 321 322 322 321
301 305 305 305 308 309 310 314 313 314 316 321 320 320 319 319 320 318 317 315 315 316 316 318 320 320 323 325 326 327 326 327 327 328 329 330 329 331 330 328 327 325 325 324 323 321 321 319 319
302 305 306 308 307 312 313 311 312 315 322 323 321 319 318 319 319 318 316 316 315 311 314 317 319 321 323 325 322 325 325 325 326 327 328 328 328 331 330 327 326 325 324 323 322 320 319 318 317
305 306 309 309 311 313 311 312 314 317 322 318 320 318 318 319 317 317 316 316 315 313 315 318 319 321 321 322 325 325 326 327 327 329 331 333 331 330 327 326 324 323 323 323 321 320 318 317 316
306 305 307 309 311 310 313 308 311 317 319 318 318 318 319 320 321 320 320 321 319 319 320 320 322 325 325 326 328 325 326 327 328 332 335 334 332 330 328 325 324 323 322 321 319 318 318 316 313
303 305 298 306 309 310 311 302 313 316 315 314 314 316 317 318 321 324 324 321 323 322 321 323 325 327 330 330 328 326 329 329 330 332 334 333 330 329 327 324 323 322 321 319 318 317 315 314 312
302 297 297 302 309 309 309 303 314 317 313 312 313 313 315 317 319 324 323 321 322 322 323 323 327 330 332 333 329 328 331 331 333 334 333 330 328 326 326 324 322 322 319 318 316 314 314 311 311
296 297 299 301 307 308 305 304 313 316 313 313 314 313 314 316 318 321 323 322 322 324 325 325 328 330 333 333 329 327 331 334 335 334 332 330 327 325 325 323 321 319 317 315 314 312 311 310 310
300 298 297 301 305 304 303 304 309 314 314 314 315 316 315 316 320 323 323 324 323 325 326 327 328 331 333 330 326 326 328 331 332 333 332 330 327 324 323 320 319 318 316 315 314 311 307 308 310
301 298 298 301 302 302 302 302 307 313 315 316 316 317 319 320 319 322 325 324 324 325 326 328 329 331 332 331 327 329 330 331 330 329 328 327 325 323 321 319 317 317 315 314 312 309 308 310 309
301 299 298 298 300 302 301 299 303 309 314 316 318 319 320 320 321 323 324 327 326 325 326 327 330 332 334 333 329 329 330 328 324 323 323 323 322 320 319 319 317 316 314 311 310 308 308 307 307
297 302 300 299 298 294 300 293 300 305 308 312 315 316 319 320 322 324 326 326 328 327 329 329 330 332 334 334 329 326 324 324 325 323 322 319 318 319 317 317 315 314 312 310 308 309 310 308 305
299 303 301 300 299 297 297 294 298 302 304 308 313 316 318 320 321 323 325 328 329 329 329 331 332 332 334 334 332 328 326 328 327 323 320 318 318 317 316 314 311 310 310 309 310 309 307 308 302
305 302 301 301 299 292 295 295 297 300 302 305 310 315 318 320 322 323 326 328 329 330 330 331 331 331 333 331 328 327 326 326 323 320 318 315 315 314 311 308 309 311 309 309 310 307 308 304 305
303 300 292 290 290 289 297 295 298 303 305 306 308 311 317 320 321 322 323 325 328 330 331 331 331 327 330 329 325 326 326 326 320 320 317 312 306 306 306 308 309 308 309 309 308 308 304 305 304
300 300 293 284 286 290 296 291 299 305 307 309 311 311 313 317 321 322 323 325 327 329 332 332 331 326 325 323 325 327 327 326 322 322 312 306 305 305 308 308 309 308 305 306 306 304 303 304 304
300 296 301 294 295 292 294 297 303 304 305 307 309 310 312 314 315 319 323 324 326 327 331 332 331 329 328 324 321 324 324 324 323 322 311 308 309 309 309 308 306 306 305 305 305 302 303 304 305
302 304 295 297 287 285 291 293 295 299 301 304 306 308 311 314 314 316 318 321 325 326 329 331 332 331 330 324 324 324 324 324 324 322 315 313 312 312 308 307 305 303 302 303 303 300 303 304 304
300 298 299 298 296 289 287 292 302 302 303 304 307 308 311 313 316 317 319 321 323 325 328 329 330 331 331 327 327 326 326 325 324 322 317 314 313 311 305 306 304 301 302 301 300 301 302 300 300
303 300 300 294 291 294 293 292 304 306 306 306 307 307 310 313 315 320 321 323 324 325 326 327 329 329 330 331 330 327 326 325 322 318 316 314 311 309 307 306 303 299 300 300 299 299 297 298 298

GFSSGP_sfc_thetae_039.txt.gz
Theta_e
328 325 321 315 303 302 298 301 306 304 306 315 322 320 312 320 313 310 340 343 342 341 343 348 347 349 349 348 347 346 346 345 344 344 343 342 343 343 344 344 344 345 345 343 341 338 338 337 336
323 317 315 310 299 296 298 304 301 306 314 323 325 325 322 321 330 332 337 343 341 341 343 348 346 347 347 346 345 345 344 344 344 343 342 343 344 344 344 345 345 345 346 343 340 338 337 337 336
319 317 309 305 301 296 297 303 305 311 316 319 318 327 325 322 328 332 341 345 342 338 342 346 344 344 345 344 343 343 343 343 342 342 343 344 344 344 344 344 345 346 346 343 340 338 337 336 338
317 315 310 299 297 301 302 305 310 311 315 319 320 320 326 326 324 329 340 347 343 336 339 342 342 343 343 343 343 342 341 340 341 342 343 344 344 343 343 342 343 345 345 342 340 336 335 337 336
315 310 301 300 299 302 304 306 312 312 316 318 321 317 324 331 336 337 340 345 341 335 339 342 340 342 343 343 342 341 341 340 341 342 342 342 343 343 342 340 340 341 342 340 337 335 335 336 335
309 309 299 296 298 301 306 312 313 315 317 319 319 320 324 329 331 333 341 341 343 340 340 340 341 341 341 341 340 339 339 340 341 341 342 342 342 341 341 340 339 339 339 338 337 337 335 333 331
306 304 300 299 299 303 308 316 314 315 315 318 325 317 324 324 328 331 333 337 340 337 337 337 337 338 338 337 337 337 339 340 340 340 340 340 338 338 339 338 338 337 337 337 336 335 334 330 329
309 306 300 301 300 300 312 314 318 317 318 325 326 316 319 323 326 328 328 328 334 335 334 335 335 339 338 337 336 337 338 338 339 338 337 335 336 336 337 337 338 336 336 336 335 333 330 327 326
311 302 299 300 301 302 312 312 319 321 319 322 326 327 327 325 327 326 324 325 323 328 329 328 327 329 332 333 336 337 338 337 336 335 333 330 328 329 331 334 336 335 333 334 333 330 329 327 325
306 302 300 305 306 305 309 312 316 315 317 319 318 323 324 324 324 323 321 319 321 321 322 323 323 324 324 330 334 334 335 333 331 330 329 327 332 332 330 331 332 331 329 329 328 327 327 326 322
307 302 305 306 308 309 309 312 316 314 312 317 318 318 321 322 322 320 319 319 318 320 319 321 322 321 322 322 328 329 331 332 332 331 333 333 332 331 331 327 327 327 327 322 321 320 324 324 322
303 306 307 308 308 309 310 315 313 316 318 325 323 322 322 320 320 319 316 316 315 317 318 319 321 320 322 321 323 327 327 330 330 330 332 334 331 333 330 329 329 328 326 325 326 324 324 322 320
305 306 308 310 310 311 314 312 313 316 322 323 322 320 319 319 318 320 317 316 315 314 315 316 318 317 319 320 323 326 327 326 328 329 330 330 330 333 330 330 328 328 327 326 324 323 321 320 319
307 307 309 310 311 314 312 312 315 318 322 320 320 319 318 318 317 315 314 312 312 313 315 317 318 321 321 319 320 322 324 325 327 327 328 329 329 335 329 329 327 327 327 326 325 322 320 318 318
308 305 308 309 311 311 314 305 311 318 320 318 316 316 315 317 316 315 315 311 312 313 315 316 317 319 319 319 321 322 323 324 324 325 334 331 331 334 332 329 328 327 327 326 323 321 319 316 314
304 306 301 306 309 311 306 297 313 318 317 315 315 316 315 318 321 318 317 314 313 314 315 315 317 318 322 323 326 324 326 327 326 329 333 333 332 333 332 328 327 327 326 324 322 318 316 315 313
303 297 301 302 309 309 309 300 313 317 313 311 314 314 314 317 320 323 325 321 319 318 320 317 322 322 327 327 328 325 326 326 325 330 334 334 333 332 332 328 327 326 324 322 320 317 316 312 311
297 298 300 301 306 308 306 304 313 316 314 313 310 311 311 314 317 320 320 322 324 322 321 321 325 326 329 328 328 325 325 327 330 334 333 333 331 330 330 328 327 325 322 320 318 316 314 312 312
303 300 299 302 308 305 304 305 307 315 314 313 313 313 314 316 319 322 321 322 322 323 322 323 324 327 329 326 324 323 321 326 331 335 333 333 332 330 330 328 325 324 321 319 318 315 312 310 313
302 300 299 302 304 304 303 303 307 314 314 315 314 315 315 316 318 320 322 321 322 323 323 323 324 326 329 329 326 324 325 326 329 332 333 333 332 329 329 327 324 322 319 318 316 314 311 313 313
301 299 300 299 303 305 303 300 303 310 315 317 316 317 317 317 317 319 321 323 323 324 325 326 327 328 331 331 328 326 327 329 328 329 329 331 331 328 326 325 323 321 320 316 316 313 313 311 312
297 303 302 300 299 295 303 293 300 305 308 313 316 317 317 318 320 320 322 323 324 325 329 328 329 329 331 333 329 326 324 325 327 329 328 328 327 325 323 321 322 321 319 316 315 312 314 312 309
300 305 302 302 300 299 299 295 298 303 303 307 313 316 317 319 320 320 322 324 326 327 329 330 329 330 332 333 334 329 326 327 330 328 327 327 323 322 321 321 321 319 316 317 315 313 313 310 309
306 303 303 303 300 293 297 297 295 300 302 305 310 314 317 318 319 320 323 325 325 328 331 332 329 328 330 334 333 331 329 328 329 327 324 323 322 321 321 319 319 316 313 314 312 313 311 311 309
304 300 292 291 291 291 299 296 298 302 306 306 307 312 316 319 319 320 320 322 325 327 330 331 329 329 331 332 333 329 327 328 328 327 324 322 322 320 319 314 310 311 310 312 313 312 307 308 306
301 300 294 284 289 291 299 292 298 306 308 309 310 312 314 318 319 320 320 323 325 328 331 330 330 329 331 331 331 328 325 325 327 329 325 323 322 318 311 308 308 309 312 312 310 306 309 308 307
301 297 303 296 298 293 296 299 303 305 305 307 308 312 314 314 318 320 320 322 325 327 331 334 331 331 331 331 327 327 327 326 328 327 326 324 316 309 307 308 307 310 311 307 307 307 303 305 306
303 306 296 297 288 287 292 295 296 301 303 305 306 308 312 315 316 318 320 322 324 327 329 335 334 332 331 329 330 326 327 329 329 327 324 320 314 311 310 309 309 309 307 307 307 303 305 304 305
300 300 301 300 297 290 289 293 304 303 305 304 307 308 310 312 316 317 319 321 324 326 328 331 333 333 331 330 330 325 326 326 326 326 323 317 314 312 311 311 309 306 306 306 304 302 301 302 304
303 301 301 295 293 296 295 294 306 306 307 307 308 309 311 313 314 319 321 322 323 324 326 328 331 332 332 332 328 326 328 327 325 324 322 319 316 315 313 310 306 305 306 304 300 298 301 300 298

GFSSGP_sfc_thetae_042.txt.gz
Theta_e
326 324 322 316 300 300 295 298 304 302 305 313 316 313 310 317 310 308 330 329 331 340 348 348 347 349 349 348 348 347 346 345 345 344 343 343 345 345 344 344 344 346 344 339 338 337 336 334 334
320 321 315 307 297 293 295 302 301 305 314 316 312 315 312 315 323 330 334 337 341 342 346 348 347 347 348 347 346 345 345 345 345 343 343 344 345 345 346 345 344 345 344 339 338 337 335 334 335
318 317 307 302 299 294 295 302 304 310 313 313 310 315 322 316 321 329 336 341 341 341 346 346 345 345 346 345 345 343 343 343 342 342 344 345 345 347 347 346 345 345 344 339 338 336 335 335 336
318 313 309 298 295 300 301 304 307 309 310 314 315 315 323 330 326 327 331 339 337 338 345 342 342 344 344 344 343 343 342 341 341 342 344 345 345 346 346 345 345 345 344 338 336 335 334 336 334
314 308 300 297 298 302 305 307 308 309 309 309 313 310 313 328 334 336 333 341 335 339 342 342 340 342 343 343 343 342 341 341 342 342 343 343 343 343 343 343 344 344 342 338 335 334 335 334 333
307 308 297 295 299 304 308 309 311 310 311 309 310 307 310 329 330 331 336 339 339 337 340 341 342 342 341 341 341 340 340 341 341 342 342 343 342 341 341 341 341 341 339 338 337 336 334 333 331
304 302 298 299 299 303 303 310 308 310 310 309 311 307 319 323 328 330 332 338 336 336 338 337 337 339 338 337 338 338 339 340 341 341 341 340 339 338 338 339 339 339 337 337 336 334 333 331 329
307 304 299 300 299 301 308 309 313 314 312 318 318 315 318 321 327 328 328 329 333 332 332 332 333 333 335 336 336 337 338 338 338 337 336 336 336 337 336 336 337 337 336 336 335 332 331 328 326
310 299 297 300 301 303 310 309 311 312 315 322 323 322 322 325 329 327 325 323 326 330 330 332 332 330 333 335 337 338 339 337 336 335 333 330 328 326 332 334 335 335 334 334 333 331 328 326 324
304 300 301 305 305 304 306 309 308 311 313 314 314 321 324 326 325 321 320 319 320 322 324 326 329 330 331 333 334 335 335 333 331 329 328 327 329 330 331 332 332 332 332 332 330 329 327 325 316
305 300 305 305 307 307 306 309 312 313 311 315 308 317 320 322 319 318 318 319 318 319 321 323 323 324 325 326 329 329 329 329 329 328 330 328 328 328 327 326 325 324 325 319 321 321 319 321 318
301 305 306 306 308 307 305 313 312 316 318 322 321 321 321 320 318 316 315 316 316 316 318 319 321 321 322 324 325 327 327 327 326 329 330 328 328 326 324 324 325 324 323 318 320 321 320 317 316
303 305 307 308 309 308 311 310 311 316 320 322 321 321 319 319 316 316 315 315 315 315 315 315 317 317 317 318 320 322 324 325 327 328 329 329 328 329 326 325 325 323 325 323 321 319 318 315 315
307 307 306 309 308 310 309 307 308 316 321 319 319 318 317 316 315 313 313 313 313 314 314 315 316 316 317 316 316 318 321 323 325 326 327 328 329 329 328 328 327 325 324 323 321 319 316 314 313
307 302 305 308 309 309 310 302 303 311 318 315 315 315 315 315 315 313 313 311 313 313 315 315 316 316 315 316 318 320 319 320 319 322 328 328 327 330 329 326 325 325 324 323 320 317 314 312 310
303 303 298 307 309 309 307 297 306 310 313 310 310 312 315 315 316 315 313 312 313 313 314 316 319 317 316 317 315 316 319 318 318 321 328 329 329 331 328 327 325 324 322 320 318 316 313 311 308
301 295 299 302 308 308 307 299 306 311 314 311 311 313 316 316 316 315 313 314 314 314 315 316 315 314 314 314 315 316 319 325 323 324 327 331 330 330 329 327 326 324 322 320 318 314 312 308 306
296 297 299 300 305 306 304 303 306 310 311 310 312 309 313 315 317 318 316 315 316 315 315 315 315 314 314 314 317 321 324 323 323 323 328 329 329 331 329 328 325 322 320 318 316 311 309 308 307
300 299 299 304 307 305 304 305 307 312 311 310 309 306 309 313 317 321 318 318 317 318 315 315 314 316 318 320 321 322 319 322 323 328 329 331 330 329 327 326 324 322 319 317 316 312 307 305 307
300 298 298 302 306 303 302 301 309 312 312 312 310 309 310 313 316 317 318 318 319 318 317 319 318 321 324 324 322 322 321 321 324 329 331 330 329 328 327 325 322 321 318 317 313 311 307 308 308
299 297 298 299 303 304 301 299 302 311 312 314 315 315 314 314 316 317 317 319 319 317 318 319 322 323 325 326 325 323 323 322 323 325 328 329 329 328 326 326 322 320 319 314 313 311 308 305 306
295 302 301 300 298 293 302 292 300 306 307 311 313 314 314 315 316 318 318 318 319 320 321 321 322 323 325 327 327 321 319 318 323 325 326 327 329 327 324 323 321 320 318 314 313 313 310 308 305
298 304 302 301 298 298 298 294 297 303 302 308 312 314 315 316 316 317 319 320 320 322 323 323 324 325 326 327 328 325 321 324 327 326 326 325 325 324 324 320 318 318 317 317 312 310 310 310 304
305 303 303 301 298 291 297 295 296 299 302 305 310 315 316 316 317 318 321 322 322 323 324 326 325 326 327 329 328 327 322 324 325 324 322 322 320 320 320 319 318 318 317 313 311 310 310 306 304
303 299 291 289 290 289 299 295 298 303 306 307 308 310 316 317 317 318 318 320 322 323 323 325 326 325 327 329 329 328 327 326 324 323 323 321 318 318 318 318 317 314 312 311 309 310 308 306 302
300 298 292 284 285 290 298 293 297 306 308 309 309 311 314 317 317 318 318 320 321 324 325 325 325 324 326 328 329 329 329 326 326 325 324 321 319 319 319 318 312 310 309 309 309 309 307 305 303
300 296 302 294 294 290 293 298 302 305 305 306 307 310 311 313 317 318 319 320 323 324 326 327 326 326 327 327 330 328 328 327 325 324 325 321 321 318 313 311 309 308 309 308 306 304 304 303 302
301 304 296 297 287 286 292 293 295 300 302 305 305 308 313 316 315 317 318 319 322 325 328 329 328 326 328 329 331 329 328 325 323 325 324 322 319 312 310 309 307 307 307 306 304 304 303 302 301
299 297 300 300 297 289 288 292 302 301 303 305 307 309 311 313 317 317 318 320 321 323 325 329 329 329 328 329 330 328 327 325 326 325 324 323 313 312 310 308 307 306 305 305 303 302 301 300 300
302 299 299 294 292 296 296 293 306 307 306 308 309 309 311 313 315 318 319 320 320 321 324 329 331 330 329 330 329 328 326 324 323 323 322 316 313 312 311 309 307 306 305 304 302 301 298 299 297

GFSSGP_sfc_thetae_045.txt.gz
Theta_e
320 316 317 309 294 289 287 291 298 298 305 313 315 311 308 315 314 309 327 328 328 331 334 345 347 349 349 348 347 346 346 346 345 344 345 346 346 346 346 345 342 342 341 337 335 335 335 335 335
316 314 311 301 288 283 289 296 296 307 312 314 314 313 311 312 319 326 328 329 331 330 330 343 346 347 348 347 346 345 346 345 344 344 345 345 346 346 346 344 341 342 341 336 334 334 335 335 336
318 313 299 292 288 287 288 296 301 308 313 311 310 319 319 314 320 326 330 330 340 341 340 344 344 346 347 345 345 344 344 342 343 344 345 345 346 346 346 344 341 342 341 336 334 334 334 334 334
311 305 301 290 289 293 296 302 303 308 310 312 315 313 319 326 329 333 330 338 337 339 341 342 344 345 345 345 344 343 342 341 342 343 344 346 346 346 345 344 342 342 340 335 334 333 333 334 332
308 299 290 289 292 297 303 304 306 309 310 311 311 305 313 325 332 334 336 337 336 336 335 341 341 342 343 344 343 342 341 341 342 343 344 346 347 346 345 343 342 341 339 335 334 333 333 332 331
298 298 289 289 294 302 303 305 307 309 313 311 310 309 311 327 327 330 334 336 335 337 338 340 342 341 341 341 341 340 341 341 342 342 343 344 344 344 344 343 341 339 338 337 335 334 332 331 330
295 291 289 291 294 299 302 308 307 308 311 309 314 308 314 322 327 329 333 332 332 337 337 336 338 340 339 338 338 339 340 341 341 341 340 340 339 340 342 341 340 339 338 336 335 333 331 329 328
299 294 290 293 293 295 305 310 310 310 310 316 316 311 311 321 327 328 331 331 331 333 332 331 333 335 336 336 336 338 338 338 338 338 337 336 337 338 339 338 338 337 336 335 333 331 329 327 325
300 290 289 293 296 299 308 307 311 312 315 317 320 319 322 326 327 325 325 327 327 328 329 329 328 330 332 331 336 338 339 337 336 335 334 329 327 328 332 335 336 335 334 333 332 330 327 325 324
295 289 293 301 299 299 307 306 307 308 307 311 316 321 324 324 322 321 320 320 324 324 326 328 326 326 328 331 333 334 334 331 330 328 324 324 326 328 330 332 333 333 332 331 330 328 326 321 313
297 292 299 301 303 302 300 306 312 307 303 311 310 316 320 319 318 318 318 317 318 321 323 327 326 327 328 329 327 330 330 329 326 325 325 327 327 326 325 325 325 325 327 323 324 322 317 316 314
295 300 301 301 303 302 303 309 311 313 315 320 318 320 320 317 316 315 315 316 316 317 318 323 323 325 326 327 327 327 326 325 325 327 326 325 322 322 323 321 319 318 318 315 315 316 315 312 312
298 300 302 303 304 303 310 308 309 312 317 319 321 319 318 315 313 315 315 316 315 313 315 317 319 320 321 322 324 324 325 325 326 326 326 325 322 321 321 321 320 320 319 314 317 315 314 311 310
302 301 302 303 303 306 307 306 307 312 318 317 317 314 315 313 312 313 312 313 313 313 314 315 316 317 318 318 320 319 320 321 324 324 324 326 326 323 322 323 321 319 320 319 316 315 313 311 308
305 298 300 301 306 306 308 303 304 309 311 315 315 311 313 314 312 312 312 312 313 313 314 314 314 316 315 315 318 318 318 318 313 316 321 323 325 325 324 324 323 321 319 319 316 314 311 307 307
298 297 291 299 305 306 303 295 306 307 308 309 309 311 313 312 312 311 312 312 313 313 313 315 316 315 315 315 316 317 317 317 314 313 322 323 324 326 325 322 321 322 318 316 314 311 309 307 304
294 290 292 298 305 305 301 297 306 308 310 306 307 309 311 311 310 311 311 311 312 312 314 313 314 315 314 315 315 314 315 315 315 313 316 325 324 328 324 323 322 319 317 316 315 312 309 304 303
291 291 291 295 301 303 300 299 304 307 308 305 307 311 312 311 310 310 311 311 312 312 314 313 313 314 313 313 312 313 313 313 313 317 319 326 325 326 325 324 322 319 317 315 313 309 306 304 303
297 295 293 297 303 301 302 300 301 303 305 305 307 307 312 313 313 311 311 311 311 311 312 311 311 312 311 311 309 310 311 314 318 319 326 321 321 326 325 323 320 318 316 314 312 308 304 301 303
298 294 292 299 305 300 298 300 302 303 305 305 303 307 308 312 313 311 310 311 310 310 311 311 310 311 311 313 313 314 315 319 320 324 324 324 324 325 324 321 319 317 316 313 310 307 304 302 303
297 293 293 295 299 300 296 293 300 306 309 309 305 306 308 311 312 313 310 310 311 309 310 311 311 311 312 314 318 319 317 314 316 320 322 324 327 326 325 322 320 318 316 312 309 308 305 301 303
292 298 299 298 294 289 295 288 300 305 306 308 306 305 306 310 314 314 312 313 313 313 312 313 313 313 314 319 320 317 316 314 315 318 323 325 326 325 324 321 319 319 318 313 311 311 308 308 305
296 301 299 299 294 291 292 291 295 305 302 305 308 308 308 310 313 313 313 315 315 314 314 315 317 316 319 321 321 320 316 316 317 318 321 323 323 323 322 320 318 316 315 313 312 311 310 309 306
301 301 299 297 293 284 291 290 290 299 301 306 308 310 310 311 314 314 316 316 316 315 314 315 316 318 320 322 322 322 318 316 318 319 320 319 321 318 321 319 316 315 314 313 312 310 309 307 307
298 294 286 284 283 282 297 293 293 299 302 307 307 310 311 311 314 314 313 314 315 316 315 315 316 317 319 319 322 322 321 320 320 320 319 319 317 317 317 317 315 315 313 312 309 309 308 307 304
295 294 286 280 280 287 296 291 293 303 303 304 305 312 312 312 312 314 315 315 315 316 317 318 317 317 319 321 321 323 323 322 321 321 320 320 319 319 317 316 314 315 313 310 308 309 307 307 305
297 292 297 292 292 286 291 296 300 303 301 300 301 303 307 311 311 313 316 317 317 317 317 319 320 320 322 322 324 324 324 322 321 320 319 320 318 316 315 314 311 310 310 308 307 307 306 305 303
298 301 292 293 283 281 290 291 293 298 301 300 299 300 301 306 312 312 314 317 318 319 320 320 321 321 322 323 324 324 325 322 321 320 318 316 315 312 312 311 309 307 307 307 306 304 304 303 302
295 294 295 297 294 284 281 288 298 299 301 301 300 303 304 305 307 310 313 316 317 322 323 322 322 322 323 323 324 325 324 322 320 319 318 318 311 310 310 309 306 307 306 305 304 304 302 301 300
299 295 295 288 288 290 285 287 300 300 301 302 303 303 303 305 307 309 312 314 314 319 321 322 323 324 324 324 324 326 324 321 320 320 320 318 313 311 309 308 307 306 305 304 303 302 301 300 298

GFSSGP_sfc_thetae_048.txt.gz
Theta_e
318 314 314 307 293 288 285 289 295 295 297 310 312 313 311 315 314 310 327 328 330 339 344 341 344 347 348 347 346 346 345 345 347 347 347 348 346 344 343 342 341 339 340 339 338 338 338 337 337
313 312 308 299 287 282 285 292 294 298 310 314 315 316 313 310 318 327 325 328 328 330 339 343 343 343 347 346 345 345 345 345 347 346 347 347 346 344 343 342 340 339 339 338 338 338 336 335 336
313 310 298 292 284 282 285 292 298 307 312 311 314 320 316 313 321 324 328 330 330 329 333 336 334 339 345 345 345 344 342 344 345 345 346 347 346 344 343 341 340 339 339 337 337 335 333 333 335
309 303 299 289 286 290 293 296 303 305 310 312 316 310 318 323 324 332 331 335 337 333 331 334 334 339 344 345 344 342 342 342 343 344 345 346 346 344 342 340 340 339 338 334 333 332 332 333 335
306 297 288 286 289 293 299 302 304 308 309 310 310 304 313 321 330 332 334 336 335 334 334 333 337 338 342 344 343 342 342 342 342 343 344 345 345 343 342 340 339 338 337 333 331 331 333 332 334
298 295 286 284 289 296 301 304 307 310 312 310 309 308 310 326 325 327 332 333 333 333 336 339 340 340 341 341 340 340 341 342 343 343 344 344 344 343 341 340 339 338 337 335 333 333 332 332 332
294 291 286 287 291 292 301 306 307 308 307 308 313 308 312 322 326 328 332 332 335 336 336 337 335 338 334 332 335 339 340 341 342 342 343 342 342 341 340 340 339 337 336 334 333 331 330 331 329
296 293 287 289 289 291 303 309 309 309 306 318 321 312 309 321 327 329 331 331 332 331 333 331 333 335 330 326 330 336 339 338 338 339 339 339 340 340 339 338 337 336 335 333 331 330 330 329 327
297 289 286 289 291 296 307 305 308 313 314 316 319 318 322 326 327 326 326 327 329 328 328 330 331 330 329 328 330 333 337 337 336 335 334 333 334 334 332 334 335 335 332 331 330 328 326 323 325
294 287 291 295 297 301 306 303 306 304 308 312 314 321 324 323 323 321 321 321 323 324 325 327 326 326 325 326 326 332 334 331 330 326 324 327 328 330 331 332 333 332 331 330 328 326 324 319 310
293 291 297 298 301 302 304 305 310 306 308 312 309 315 319 319 320 319 319 318 321 324 325 325 326 325 323 322 324 329 329 327 324 323 325 326 327 327 327 326 326 326 328 323 322 317 316 315 310
292 298 299 299 302 304 305 309 311 310 312 317 316 320 319 317 317 318 317 317 317 320 324 325 325 325 323 321 323 329 327 324 324 323 325 323 321 321 321 320 321 319 318 316 314 314 313 311 309
297 298 300 301 304 308 311 310 311 312 317 318 318 319 316 314 315 315 317 316 316 315 321 324 325 325 326 323 326 326 325 324 325 324 323 322 320 319 318 316 316 316 315 313 315 313 311 308 306
301 301 300 301 300 308 306 307 307 312 316 315 314 313 313 313 313 313 314 313 313 314 316 319 322 324 324 323 323 324 324 325 325 324 323 321 320 319 319 317 316 317 316 314 315 312 310 308 304
302 296 298 299 298 304 305 299 302 314 315 314 313 314 312 313 313 312 313 313 313 313 315 315 317 318 319 319 319 319 320 318 323 323 323 322 321 320 321 319 318 317 318 316 314 313 310 308 305
296 295 290 297 299 304 301 294 303 312 310 310 308 310 311 311 310 313 313 313 313 313 314 317 317 316 317 317 318 317 316 315 313 315 320 321 323 324 321 320 320 320 317 317 314 311 307 305 302
292 288 290 294 300 303 299 295 303 306 309 307 308 309 310 309 309 310 313 313 313 313 314 315 316 315 316 316 315 315 315 314 314 313 314 322 322 325 323 321 320 319 317 314 313 310 308 304 302
288 289 288 291 298 302 297 297 302 304 307 305 304 308 309 309 307 310 311 312 312 313 314 315 315 314 315 315 314 313 314 314 314 313 315 317 320 323 322 321 321 317 315 313 311 309 306 303 302
294 292 291 294 300 301 299 298 299 303 305 303 304 307 309 309 309 309 310 310 309 311 313 313 314 313 313 312 311 311 311 313 313 313 315 318 321 324 322 321 320 317 315 314 312 307 303 301 302
294 292 292 294 300 300 297 299 299 301 303 303 304 308 310 310 307 309 309 308 309 310 311 311 311 311 312 312 312 312 312 312 312 313 315 320 319 321 324 322 320 317 314 312 310 306 302 301 302
294 292 293 292 297 296 295 293 298 302 304 306 307 308 312 310 307 307 308 308 308 309 310 310 310 309 310 311 310 309 309 310 311 312 315 319 319 319 323 322 320 317 316 313 311 306 304 303 305
291 298 296 296 292 287 293 284 295 300 301 306 304 306 308 312 311 309 308 308 307 309 310 310 310 310 311 312 310 309 309 308 312 313 317 319 321 322 323 322 319 318 316 313 312 309 305 305 304
295 299 297 296 292 289 290 287 291 299 300 303 303 304 307 312 312 309 308 309 309 309 309 310 310 310 311 311 312 312 314 316 314 314 315 320 320 322 322 321 318 317 319 315 310 308 308 308 307
301 298 297 295 291 284 290 288 287 297 301 305 307 304 304 308 313 313 310 310 310 310 309 309 309 310 311 311 313 315 316 315 312 313 315 317 321 322 321 320 320 319 318 315 311 310 308 308 305
296 292 285 283 282 282 294 291 292 297 305 307 307 308 306 307 310 313 310 311 311 311 309 310 310 310 312 312 314 316 318 316 313 314 316 317 318 317 319 319 318 316 315 312 312 310 308 307 306
293 292 285 279 280 284 293 287 292 301 302 304 309 311 310 308 310 312 313 312 314 312 312 310 311 313 313 314 316 318 318 320 318 317 318 318 319 318 320 319 316 314 315 311 309 309 308 307 306
293 289 295 289 290 284 288 293 298 300 299 299 303 306 308 309 310 312 313 314 314 314 312 312 312 314 314 315 317 318 320 320 320 320 318 319 319 316 315 316 314 313 313 310 307 308 307 306 305
296 298 290 290 282 280 287 289 290 297 297 299 298 302 307 310 310 313 313 314 315 316 315 314 313 313 315 316 318 318 319 320 321 319 318 319 318 316 314 313 313 310 309 309 307 306 306 305 303
293 292 294 294 289 282 281 285 295 298 300 299 299 300 302 307 310 311 314 315 315 316 316 316 316 317 317 318 319 320 321 321 321 321 320 319 317 315 314 313 310 309 308 308 306 305 304 303 300
296 294 294 288 287 287 284 287 299 299 299 300 301 301 301 304 307 311 311 315 315 316 316 316 318 318 319 320 321 321 323 320 320 320 320 318 317 314 313 311 308 308 307 306 304 303 303 301 298

GFSSGP_sfc_thetae_051.txt.gz
Theta_e
317 319 311 304 291 288 285 288 292 297 298 308 311 313 312 312 313 306 325 327 336 342 345 345 346 347 346 346 346 346 346 348 348 347 346 345 345 344 342 341 341 343 343 340 340 340 340 339 338
311 311 304 295 286 281 284 290 292 302 307 312 316 315 310 308 317 326 322 327 331 341 340 341 345 346 346 345 345 345 347 347 348 346 345 345 344 343 340 339 341 342 342 339 338 337 336 336 337
310 306 297 291 283 282 284 291 295 306 310 310 314 318 315 311 319 323 327 328 330 331 339 338 342 343 342 344 344 344 345 345 346 345 345 344 343 342 340 338 340 341 341 338 336 334 334 336 336
307 301 296 289 285 289 291 294 300 305 308 310 313 309 316 322 324 330 329 330 328 329 334 339 340 343 342 342 343 343 344 343 345 345 344 344 343 342 340 338 340 342 339 335 333 334 334 336 335
303 296 288 284 287 292 294 299 304 306 307 309 309 303 311 321 328 331 331 331 330 329 329 335 336 340 341 340 340 341 343 342 343 343 342 342 342 341 339 338 338 338 336 333 332 335 337 336 333
296 293 286 283 287 293 295 301 305 308 309 310 307 307 309 324 324 328 331 333 334 334 331 332 336 336 339 339 338 339 342 342 341 342 341 342 341 340 339 338 338 336 335 333 333 334 335 334 332
293 290 286 285 289 290 298 306 306 306 306 307 312 308 311 319 326 328 331 333 333 333 336 333 334 332 333 335 333 333 340 340 339 341 341 340 339 338 338 337 336 334 333 332 331 331 332 333 331
295 292 286 287 287 289 302 307 307 308 308 316 317 311 309 318 327 330 331 331 332 333 334 333 329 326 328 327 327 332 337 339 339 340 340 339 338 338 336 335 334 333 333 332 330 330 331 332 331
295 288 285 288 288 293 306 303 307 311 311 315 318 317 321 326 327 326 326 326 327 328 331 332 325 323 322 324 326 328 338 338 337 339 338 335 334 332 329 332 333 332 330 330 329 327 327 330 329
292 287 289 294 295 296 304 302 304 303 306 312 313 319 321 321 322 322 322 322 323 323 328 329 326 323 320 322 321 319 323 332 333 334 331 331 329 327 329 330 331 330 329 328 328 326 322 316 314
291 290 294 297 298 300 302 304 308 304 305 309 308 314 316 317 317 318 320 320 322 323 324 326 325 325 323 319 316 319 324 327 324 325 328 328 328 328 325 325 325 324 324 318 315 315 312 309 311
290 295 296 297 300 302 303 307 308 308 309 315 312 316 315 314 315 316 317 318 319 323 323 323 323 321 321 321 321 322 323 325 323 325 326 326 324 321 320 321 321 318 317 313 312 311 309 307 306
293 296 299 299 301 304 309 309 309 310 314 315 316 317 315 313 312 316 316 315 317 319 323 324 322 321 318 319 320 323 325 323 322 324 323 322 320 319 318 318 316 314 312 312 312 309 307 305 303
299 299 299 298 304 308 306 306 305 310 315 313 313 312 314 314 313 313 314 313 314 316 321 323 324 322 319 318 320 326 323 323 323 322 320 318 318 317 317 315 313 313 311 313 312 308 305 303 302
300 295 296 297 299 303 304 297 302 309 314 312 311 310 311 312 313 313 314 313 314 314 316 321 324 325 322 322 324 324 323 324 323 321 320 318 318 316 316 313 313 314 312 313 311 309 307 302 301
294 293 288 295 298 302 300 293 300 311 311 309 308 311 311 311 310 313 314 314 314 314 315 317 322 321 320 320 319 320 318 323 323 322 321 320 319 319 317 315 315 316 315 313 311 309 306 303 300
290 285 288 292 297 300 298 295 300 311 310 308 306 307 308 309 307 309 313 314 313 314 316 315 318 319 318 317 316 315 314 316 318 321 321 321 322 323 319 319 318 317 315 313 312 307 305 302 300
285 287 286 288 294 298 296 296 299 306 307 308 304 305 306 307 307 308 313 313 313 314 315 315 316 317 317 315 314 315 314 313 313 313 318 322 322 324 321 319 318 316 314 312 310 307 305 303 302
291 290 288 290 295 296 296 296 297 300 302 302 302 305 306 307 308 308 310 312 312 313 313 315 314 315 315 314 314 313 313 313 313 313 316 317 318 322 321 319 318 315 314 312 311 306 304 301 300
292 289 289 293 296 297 295 296 297 301 302 304 302 303 306 307 306 307 307 310 310 312 312 314 314 314 315 316 316 315 314 313 313 313 314 316 318 318 320 319 318 316 313 312 310 306 302 301 301
291 289 290 290 294 296 293 291 294 300 302 304 304 306 308 308 306 306 307 308 307 309 308 312 312 312 312 313 314 312 312 311 309 311 311 313 317 317 319 320 318 316 314 312 310 307 304 301 303
288 295 294 293 290 286 292 283 290 295 299 302 303 304 308 310 309 307 306 305 306 307 309 310 310 310 309 311 310 308 309 308 310 309 310 311 315 317 317 319 319 317 315 313 312 311 307 306 300
292 297 295 294 290 288 288 285 289 297 297 300 302 304 306 311 310 307 307 307 307 308 308 309 310 310 309 309 308 306 306 307 308 309 309 311 315 317 320 319 318 318 316 315 313 310 308 308 306
298 295 293 292 289 283 288 287 286 292 297 301 304 304 306 309 311 309 309 308 307 307 307 308 309 309 309 309 309 308 308 309 309 310 311 313 315 317 318 319 318 317 317 316 314 313 310 308 307
294 289 283 281 281 282 291 289 290 295 299 303 304 305 306 308 311 310 307 307 307 306 307 308 308 308 309 309 309 310 309 311 312 312 312 313 314 316 318 317 316 316 317 317 317 312 310 308 307
291 291 283 278 279 283 291 286 291 299 301 303 306 308 305 305 311 311 310 308 308 308 307 307 308 308 309 309 309 310 312 314 315 315 314 313 314 316 318 319 319 319 318 319 316 314 312 310 308
291 288 293 286 287 283 286 290 295 298 298 300 300 305 305 304 306 311 312 309 309 309 309 307 308 308 309 309 310 310 311 313 315 317 316 315 315 316 315 319 318 318 316 315 311 311 308 308 307
294 296 288 287 281 280 284 287 288 295 296 296 295 301 305 307 305 308 312 312 311 312 312 310 309 309 310 310 311 311 312 315 316 317 318 316 318 316 314 316 315 314 313 311 308 306 308 307 305
291 289 291 291 287 281 280 284 294 296 297 297 296 297 301 306 308 308 310 313 313 314 313 312 310 311 312 313 313 312 313 316 317 318 318 319 317 317 316 315 315 313 310 309 307 306 306 305 304
293 292 292 286 285 286 283 287 297 297 298 299 298 299 299 302 308 309 311 313 313 313 314 313 312 311 311 313 315 315 315 317 317 318 319 319 319 317 317 316 315 313 311 309 307 305 305 304 302

GFSSGP_sfc_thetae_054.txt.gz
Theta_e
316 318 309 301 290 287 284 287 290 293 298 308 312 310 308 311 308 300 323 327 335 342 344 344 345 346 346 346 347 347 348 347 348 347 346 346 345 343 343 343 343 343 343 340 339 339 339 338 336
308 310 302 294 285 281 284 288 289 295 306 310 314 314 309 306 316 323 321 327 333 342 343 342 345 345 345 346 346 346 348 347 347 347 346 345 344 343 343 342 342 342 343 340 340 340 338 337 336
308 304 296 288 282 282 283 290 292 300 309 309 310 316 314 308 318 321 325 329 332 340 338 340 343 344 345 345 345 346 347 345 345 345 345 344 343 343 343 341 341 342 341 339 339 339 338 336 336
305 300 294 289 284 288 289 293 294 304 305 310 311 306 314 320 321 327 330 329 331 331 336 338 341 343 345 345 345 346 346 343 343 343 344 343 342 343 342 340 341 341 338 337 338 338 336 335 334
300 295 287 284 286 290 292 294 300 305 305 307 307 302 310 319 326 329 328 329 329 330 334 337 340 341 343 344 345 344 344 343 342 342 342 341 341 341 341 340 340 338 337 335 336 336 336 334 332
294 292 285 283 286 292 293 299 304 306 308 308 306 305 307 321 322 325 329 330 329 329 330 335 340 340 339 340 340 340 342 342 341 341 341 340 340 339 340 338 337 336 336 338 338 336 334 333 331
293 289 285 284 287 289 295 304 302 305 305 305 311 306 309 318 323 327 329 329 332 331 329 330 332 334 336 334 333 336 338 340 340 340 340 339 338 337 337 336 335 335 335 337 336 334 332 332 330
294 291 286 286 286 288 297 305 306 305 305 315 314 309 307 317 327 330 331 332 332 333 332 330 329 330 327 328 332 332 337 338 339 339 339 338 337 337 334 333 333 333 333 334 335 333 332 331 330
294 287 284 287 287 291 304 302 305 309 309 314 316 314 319 326 327 326 325 327 328 329 324 325 324 324 324 324 326 330 333 334 337 339 337 334 332 329 327 330 331 331 329 331 333 333 331 329 329
292 286 288 293 293 294 300 303 303 302 304 310 309 316 320 322 322 323 322 322 324 325 323 324 322 321 321 323 325 324 323 331 334 336 334 332 328 325 327 329 329 328 328 328 330 331 330 325 322
291 289 292 295 296 295 295 301 306 303 302 307 308 311 317 317 319 321 321 322 322 324 324 323 321 320 320 320 320 321 319 326 331 332 331 328 326 327 324 323 323 321 323 316 317 314 314 315 315
289 294 294 295 296 299 300 305 305 304 307 313 311 314 314 313 316 318 318 319 321 322 323 323 321 320 320 318 319 319 320 322 322 328 329 327 325 322 321 319 318 315 313 312 311 309 308 310 312
291 294 296 298 299 300 307 305 306 307 313 314 314 315 313 312 314 316 316 317 319 321 322 323 322 321 318 316 317 318 320 320 323 324 327 326 321 320 319 318 315 314 313 311 308 306 306 306 308
297 297 297 297 299 302 303 304 306 306 314 312 312 309 312 311 312 314 315 315 317 319 322 322 321 321 318 316 316 317 319 319 322 324 323 321 319 318 318 316 314 312 312 311 308 306 303 302 303
298 293 294 295 295 301 304 297 301 306 312 311 310 313 313 314 313 312 315 314 316 317 319 322 321 319 319 319 318 319 320 319 321 323 321 319 317 316 316 314 313 312 311 311 308 306 302 300 301
292 291 287 293 299 299 299 291 296 307 310 308 307 308 310 311 311 313 314 314 315 315 317 319 323 319 318 318 320 323 323 322 322 321 319 318 318 317 315 313 313 313 312 312 309 307 304 300 300
289 284 286 290 295 298 296 293 297 308 308 306 306 309 309 309 309 312 311 313 313 315 316 317 321 320 320 319 319 320 320 322 321 319 318 318 318 318 316 315 314 315 313 312 310 307 306 301 299
285 285 285 287 291 296 294 295 299 306 306 307 306 304 306 306 307 308 310 313 314 314 316 316 318 320 319 318 316 316 315 314 317 319 319 319 320 320 318 317 316 315 314 311 309 306 305 304 301
290 288 287 289 292 291 291 291 295 299 302 303 304 303 303 305 308 308 309 310 312 313 315 315 316 317 316 316 316 315 314 313 313 316 319 321 322 323 320 319 318 316 313 313 310 307 304 302 302
291 288 287 290 294 292 291 293 295 297 300 303 304 302 304 304 304 307 307 311 310 312 314 315 315 316 317 316 317 318 316 315 314 313 315 318 319 321 321 319 317 315 313 311 309 306 303 303 301
289 287 287 288 291 292 292 291 292 298 300 302 303 304 304 305 304 305 306 309 310 311 311 314 314 315 316 317 316 314 315 313 312 312 311 314 317 317 319 319 317 315 313 311 309 307 304 302 301
287 292 292 291 288 284 291 283 289 292 297 300 302 302 304 306 307 305 305 307 308 310 310 312 313 313 314 316 314 314 313 311 313 312 311 312 316 317 317 318 318 316 314 312 311 310 306 305 303
291 294 292 291 288 285 287 283 287 294 295 298 300 303 304 307 308 306 306 306 308 307 308 307 311 312 312 312 313 314 314 314 313 310 310 311 312 316 317 315 315 316 315 314 313 311 308 308 307
296 293 291 290 287 281 286 285 284 288 294 297 300 303 304 306 309 308 307 306 305 306 308 307 308 309 309 308 309 309 310 308 308 308 308 308 310 311 314 315 315 315 315 313 312 311 310 309 309
293 288 282 280 280 280 288 285 288 294 296 298 300 302 304 306 308 308 305 305 305 305 306 308 308 308 309 308 307 307 307 308 307 308 308 308 309 310 312 312 313 313 314 314 314 313 313 311 310
290 289 282 278 278 281 289 285 290 297 300 299 300 303 304 305 309 309 308 306 306 306 306 307 308 308 309 308 308 308 308 308 309 310 310 310 311 311 312 314 315 314 315 315 316 316 314 313 311
290 286 291 285 285 282 285 289 294 297 297 298 298 303 301 304 306 310 310 308 307 307 306 306 307 308 308 308 309 308 309 309 309 310 312 313 312 313 312 314 316 317 318 317 317 317 315 312 311
293 294 286 285 280 279 282 284 286 292 295 297 295 299 303 302 304 308 311 310 309 309 308 308 308 307 308 308 309 309 309 309 310 311 312 313 314 312 312 312 314 316 318 318 318 316 313 309 307
289 288 289 289 285 280 279 282 292 294 296 296 297 297 300 304 302 304 310 312 310 310 309 309 308 308 308 309 309 309 309 309 310 311 313 314 314 313 314 313 314 315 315 315 313 314 311 309 307
292 290 291 284 283 284 281 284 295 297 297 298 299 298 297 303 305 304 305 310 310 309 310 310 309 308 309 310 310 309 310 311 310 311 314 315 316 317 317 317 316 316 314 312 311 310 308 307 304

GFSSGP_sfc_thetae_057.txt.gz
Theta_e
322 320 315 309 299 298 294 295 297 297 303 311 316 313 311 315 312 307 330 335 337 341 339 344 346 346 348 348 349 349 349 349 348 348 348 347 346 345 344 343 342 343 342 339 339 338 338 338 336
316 314 310 302 296 293 294 295 296 299 308 313 316 317 314 310 320 326 326 332 335 341 341 345 345 346 347 347 348 348 349 348 348 348 346 345 345 345 344 342 342 342 342 338 338 337 337 337 337
312 308 305 298 293 293 293 296 299 301 310 312 311 319 317 313 319 324 329 332 335 343 343 344 344 344 346 346 346 346 346 346 346 346 345 345 345 345 344 342 342 342 342 341 338 337 336 336 336
311 308 302 298 293 295 296 300 299 303 309 313 316 311 318 324 325 331 335 334 332 339 343 343 342 343 345 346 347 345 345 344 344 344 344 345 345 344 343 342 342 343 343 340 337 336 335 336 334
307 304 297 294 293 296 298 299 300 305 309 310 311 307 312 321 329 331 333 332 334 333 341 344 340 342 344 345 346 344 344 343 343 342 342 343 344 343 342 341 341 341 342 341 337 334 334 334 333
303 302 295 293 293 296 299 301 306 308 311 311 310 309 310 325 326 329 332 333 334 331 333 339 341 342 341 342 344 342 342 342 341 341 341 342 342 341 340 340 338 338 339 339 337 335 334 333 331
301 299 293 292 293 295 298 309 305 307 310 310 314 309 314 321 327 330 332 334 336 333 331 334 335 339 337 336 338 339 340 340 340 339 339 339 339 339 339 338 337 338 338 338 335 334 333 332 331
302 300 293 293 293 294 300 308 310 310 309 317 317 310 312 321 329 332 333 333 333 335 334 334 333 331 329 335 333 335 337 338 338 338 337 337 337 337 336 335 337 339 338 337 334 333 332 331 330
301 297 293 294 293 297 305 306 311 313 312 316 319 318 322 326 329 328 329 329 329 330 331 329 330 326 328 330 328 333 337 336 337 337 336 334 337 334 331 331 335 337 335 333 333 332 331 329 328
300 296 295 298 298 299 301 306 307 308 307 310 314 320 324 324 324 324 325 323 323 324 326 326 326 327 326 328 327 328 330 332 335 337 338 334 334 331 328 330 331 332 333 333 332 331 330 327 325
298 296 298 299 301 301 299 303 309 307 305 309 311 315 320 321 320 322 323 324 323 321 323 325 324 324 325 325 326 325 324 328 332 337 334 333 330 331 329 327 327 329 331 331 330 328 326 326 324
296 299 299 300 300 301 301 307 307 308 309 316 316 317 318 317 318 320 320 322 322 321 323 323 322 323 325 323 322 321 324 327 328 335 332 329 328 327 327 324 324 323 324 326 328 324 324 325 324
296 298 298 300 300 301 307 307 308 310 314 317 318 318 318 316 316 318 319 320 322 322 322 321 322 322 322 321 322 321 323 325 326 332 330 326 324 324 324 323 321 320 321 322 321 322 323 322 323
300 299 301 302 302 303 305 306 310 311 316 316 317 317 317 315 315 315 317 318 320 322 322 321 322 321 321 319 322 322 322 323 326 329 328 326 324 325 322 321 320 320 318 318 319 320 321 321 321
301 298 299 300 300 303 308 303 305 312 316 314 314 316 316 316 314 313 316 318 319 322 322 321 322 321 318 319 319 322 321 322 323 328 328 326 326 325 324 320 319 320 319 318 315 316 317 317 318
298 296 293 298 302 302 305 297 301 310 314 312 313 313 312 314 314 314 317 317 320 318 321 322 322 320 319 318 319 321 320 320 322 325 327 325 325 325 324 320 320 321 319 317 314 312 311 311 312
294 291 291 294 300 302 302 299 303 311 312 311 312 313 313 312 313 314 316 316 318 319 318 321 320 319 321 321 319 323 323 320 320 323 323 324 322 323 323 322 322 321 320 318 316 313 312 309 309
290 290 291 293 299 301 299 299 303 308 311 311 312 312 312 311 311 314 315 317 317 318 319 318 321 319 320 320 321 323 323 322 322 322 323 324 323 323 324 323 322 321 320 318 317 315 314 311 309
294 292 291 293 296 296 296 296 300 301 308 310 312 312 311 311 313 314 315 317 316 317 318 317 318 318 319 318 318 318 318 319 322 323 324 324 324 323 323 323 322 321 320 320 319 317 314 311 310
294 292 292 295 296 295 297 296 301 302 305 308 310 312 312 311 311 312 314 315 315 315 316 317 318 319 319 319 319 321 318 316 322 324 324 324 324 323 324 323 323 322 321 321 320 318 315 314 310
294 292 292 292 294 296 296 295 298 301 304 306 308 312 313 312 310 310 310 313 314 314 316 316 317 318 319 321 320 319 318 315 315 317 320 322 324 325 325 325 325 323 323 322 321 319 317 313 311
290 295 294 292 291 288 296 287 295 299 300 303 306 308 310 311 312 311 309 310 312 315 317 318 318 317 318 319 319 316 316 312 317 316 315 317 320 321 324 323 323 322 322 321 321 320 318 317 314
293 297 295 294 292 291 292 290 294 296 298 301 305 307 309 311 312 311 310 311 313 315 314 317 317 316 317 318 320 317 314 316 317 315 313 316 318 320 319 320 321 323 323 324 322 320 317 318 316
298 295 295 294 292 286 291 291 291 294 298 301 304 307 309 310 312 313 313 313 312 314 314 315 317 314 315 316 317 317 315 314 312 313 312 312 313 316 317 317 317 322 324 324 324 323 321 319 318
296 293 286 285 285 285 291 289 293 299 301 302 304 306 308 310 312 313 311 310 310 309 311 313 315 315 315 315 317 317 316 316 314 313 313 314 312 314 316 319 319 322 323 323 324 323 322 321 320
293 293 287 282 283 286 292 288 294 302 304 304 305 306 308 310 312 313 313 312 311 310 311 312 313 314 315 314 314 316 318 318 318 318 317 317 315 316 320 319 320 321 322 322 323 324 323 322 321
292 289 295 288 289 287 290 294 298 302 301 303 303 303 306 310 311 313 314 313 313 312 312 312 313 314 315 315 315 315 315 316 316 318 318 318 319 318 318 319 320 321 321 322 322 323 322 321 320
296 297 289 289 282 281 286 289 292 297 299 301 303 302 305 310 310 313 314 313 314 314 313 313 314 313 315 315 316 315 315 315 316 317 317 317 319 319 319 319 320 321 321 322 322 323 322 319 318
293 292 293 293 289 285 283 288 299 300 301 302 304 304 304 306 310 311 315 315 314 314 313 312 313 313 314 315 315 316 315 316 316 316 317 317 319 319 318 318 318 319 320 322 323 322 320 317 316
296 293 294 288 286 288 287 289 300 302 303 303 304 305 306 305 309 311 313 316 315 313 313 312 312 313 314 315 315 315 316 316 316 316 317 318 318 320 319 320 319 320 321 320 321 319 318 316 314

GFSSGP_sfc_thetae_060.txt.gz
Theta_e
323 325 324 317 304 304 300 300 304 303 306 315 319 316 315 318 312 309 336 340 343 344 348 346 346 349 351 350 350 350 350 350 349 349 349 349 349 348 347 345 345 345 345 342 340 339 340 340 339
323 319 319 313 301 297 300 303 301 305 308 316 318 318 317 314 323 328 333 339 340 345 347 345 346 348 350 350 349 349 350 349 349 349 348 348 347 347 345 343 343 343 343 340 339 338 338 338 338
318 317 310 307 302 297 300 303 305 306 310 314 313 320 319 317 323 329 335 338 338 345 344 344 344 345 348 349 348 348 348 347 347 347 347 347 346 345 344 342 341 342 341 337 337 338 338 337 337
315 314 311 302 299 301 302 305 306 306 312 315 316 313 322 328 327 333 337 338 342 339 342 343 343 344 347 348 348 347 346 345 345 345 346 346 345 344 343 341 341 343 342 337 337 337 336 336 335
318 312 302 300 300 302 305 306 307 306 311 313 315 310 315 326 331 333 336 337 340 338 347 344 340 341 344 347 347 346 345 344 343 344 344 345 345 344 342 341 341 341 340 338 336 336 335 335 334
309 310 299 297 300 303 306 308 307 309 311 315 314 314 316 328 328 333 335 337 341 341 340 343 341 341 343 344 345 344 343 343 342 342 343 344 343 342 342 342 341 341 339 337 337 336 334 333 333
307 303 299 299 299 301 304 312 309 309 311 312 317 311 318 324 330 334 336 338 340 341 337 339 338 337 337 338 340 339 341 341 341 341 341 341 340 340 340 340 341 340 338 336 336 335 333 332 331
309 305 299 300 299 300 305 309 311 310 309 320 320 311 313 326 331 335 336 335 337 338 335 337 335 336 334 333 335 337 338 339 339 340 339 338 338 339 338 338 339 339 337 336 335 334 333 331 330
310 301 298 299 300 302 306 307 312 316 312 318 321 320 324 327 330 331 332 331 332 336 336 338 334 335 333 332 334 338 339 337 337 339 337 335 338 336 335 335 337 337 334 333 333 332 331 330 329
305 301 300 303 305 303 306 307 308 309 309 313 317 324 326 327 327 327 327 328 327 329 329 333 331 332 330 330 329 333 335 336 337 337 339 337 338 336 330 336 336 335 333 332 332 331 329 327 325
304 300 304 304 306 307 306 307 309 308 307 310 312 317 324 325 325 324 326 327 326 330 328 330 331 330 331 330 330 329 331 330 331 332 336 337 336 332 332 336 336 335 331 329 329 327 327 326 324
301 304 305 305 306 305 306 309 308 310 311 317 317 320 324 323 322 322 324 326 326 326 330 327 332 329 330 330 327 328 327 328 328 328 332 333 330 330 332 333 333 332 330 329 329 328 329 327 324
302 303 305 307 306 306 308 307 308 310 315 319 320 321 322 321 320 322 324 325 325 324 324 326 327 327 327 324 324 324 325 327 327 327 330 331 330 328 327 329 331 331 331 331 329 329 328 326 324
304 304 304 306 306 307 305 306 310 310 316 319 319 320 321 321 320 321 322 321 323 325 325 324 324 326 326 324 324 323 325 326 326 327 330 330 327 327 325 326 325 327 329 330 328 326 325 324 324
304 301 303 305 306 305 308 303 307 312 317 317 319 320 320 321 321 319 321 322 322 326 327 324 323 325 326 324 323 324 324 325 325 325 330 328 327 328 327 324 324 324 326 326 326 325 325 323 322
300 301 297 303 304 305 307 298 306 312 315 315 317 318 319 320 319 319 319 320 324 324 323 326 323 323 326 325 323 324 323 324 325 326 328 326 325 325 325 323 323 323 323 323 323 323 322 321 320
300 295 297 299 305 305 307 301 307 313 313 312 316 318 318 319 320 320 321 321 321 322 324 323 323 321 320 319 322 323 322 322 324 327 326 326 324 325 324 323 325 325 322 322 321 320 319 317 317
295 295 297 297 302 303 303 303 307 310 312 313 314 317 319 318 318 319 320 322 323 325 321 323 322 321 321 320 321 323 321 321 323 323 327 325 324 326 325 323 325 325 323 322 322 320 319 317 316
299 297 296 299 301 300 300 301 304 308 309 312 315 316 318 319 320 320 320 323 323 323 323 319 320 320 320 318 318 319 319 319 321 321 324 326 325 326 326 325 326 326 324 324 324 322 320 317 317
297 295 296 299 301 299 299 299 304 307 308 310 313 316 317 319 319 318 319 321 321 322 322 320 319 319 319 321 319 320 322 322 321 321 322 325 327 326 326 325 325 325 325 325 325 323 320 319 317
297 295 296 296 298 300 298 297 301 306 308 310 312 316 318 319 318 318 318 320 321 320 318 322 322 319 319 320 321 320 321 318 319 320 319 322 327 328 325 325 326 326 325 324 325 324 322 319 319
293 299 298 297 296 291 299 290 300 303 305 307 309 314 316 319 320 319 319 319 320 321 321 322 322 322 321 322 319 319 315 316 317 320 322 323 326 327 326 324 327 327 327 325 326 326 324 324 320
296 300 298 298 296 295 294 292 297 302 301 304 307 310 315 318 320 319 319 320 320 322 321 320 321 322 320 321 321 318 317 316 317 319 322 324 324 325 325 325 328 328 328 328 327 326 324 324 323
301 298 298 298 296 289 294 294 295 299 302 303 306 309 313 316 319 320 321 321 320 321 322 319 319 320 320 320 320 319 318 316 316 317 317 318 321 324 325 325 328 328 326 323 320 324 326 326 324
299 295 289 287 288 287 296 294 297 303 305 306 306 309 313 316 318 319 319 319 320 319 320 320 317 317 320 319 320 321 322 320 315 315 317 318 321 321 322 324 326 324 323 322 321 324 327 328 325
296 296 290 283 286 290 296 291 297 305 307 309 310 311 313 316 318 319 320 320 320 319 320 319 319 317 318 320 319 322 323 322 316 318 318 317 318 320 320 319 323 323 321 322 326 325 324 326 326
296 292 298 292 294 291 294 297 303 305 305 307 308 309 311 313 317 319 321 321 321 320 319 319 319 321 320 319 320 320 323 323 322 321 319 319 322 318 318 318 320 323 324 324 324 325 324 326 326
299 301 291 293 285 284 291 292 295 300 303 305 307 308 310 313 316 319 321 321 322 322 320 320 320 320 322 323 323 323 324 323 324 325 323 323 324 324 322 321 321 322 323 323 323 324 325 325 326
296 295 296 296 293 287 286 292 302 302 305 306 308 310 312 311 316 319 320 322 323 323 321 320 319 320 321 322 323 323 322 323 324 323 325 324 326 325 324 323 322 321 322 323 324 324 323 323 325
299 296 297 291 290 293 292 293 304 305 306 308 309 310 313 313 314 318 321 322 321 322 322 321 320 319 320 322 322 322 323 323 322 323 323 326 325 326 325 324 324 323 323 325 324 324 322 323 324

GFSSGP_sfc_thetae_063.txt.gz
Theta_e
323 324 325 318 305 305 302 303 307 305 306 314 317 314 314 315 311 309 337 341 344 346 349 347 347 350 351 351 350 350 350 350 349 349 349 350 349 348 348 346 346 347 347 344 344 343 343 341 340
323 322 320 314 301 300 303 306 303 306 309 315 316 315 313 312 322 324 333 341 343 346 346 347 346 349 349 350 349 350 350 350 349 349 350 349 349 348 347 345 345 345 345 342 342 342 340 338 339
324 320 312 307 303 300 302 305 306 308 311 312 311 316 315 315 324 328 338 340 342 346 346 345 345 346 348 348 349 348 348 348 348 348 349 349 348 347 345 344 344 344 343 339 340 340 338 337 337
316 314 312 303 301 305 304 306 308 307 311 313 313 310 320 329 327 334 338 339 340 345 347 342 343 344 347 347 348 346 347 346 346 347 348 348 347 346 344 342 342 343 342 340 337 338 336 336 335
316 313 304 303 303 306 308 308 308 307 309 312 313 310 313 329 332 333 335 338 339 344 349 344 341 343 346 347 345 345 345 345 345 346 345 345 345 344 342 340 340 341 340 340 337 336 335 335 334
309 310 302 300 303 306 308 309 309 308 310 312 313 313 315 331 328 333 336 336 340 342 345 347 342 341 341 342 342 341 343 344 343 344 343 344 342 341 341 341 340 339 338 338 337 336 335 335 334
307 306 302 302 303 303 306 312 308 309 309 310 316 311 317 327 331 334 336 339 339 341 342 344 346 337 334 333 335 338 341 342 342 342 342 341 340 340 340 340 339 338 337 337 336 335 334 333 332
310 307 302 303 301 302 309 310 311 309 309 319 317 309 312 330 333 336 336 337 338 339 338 340 340 336 336 334 333 334 337 339 340 341 340 339 339 340 340 338 338 338 337 336 335 334 333 331 330
313 302 300 302 303 304 309 306 312 314 311 313 318 319 325 330 331 332 333 333 336 337 338 340 336 335 333 334 332 333 335 338 338 340 338 337 338 339 339 336 336 335 334 334 333 332 331 330 329
306 302 302 307 307 306 308 308 309 309 309 311 314 321 326 328 327 326 327 327 331 330 337 337 336 336 335 334 334 333 333 336 339 342 340 336 339 339 335 336 334 333 332 332 332 331 329 327 324
306 301 306 308 307 309 308 308 310 308 306 311 312 314 320 326 326 325 326 327 328 331 332 335 335 337 335 331 332 334 330 335 340 338 338 336 339 338 336 338 334 332 331 328 327 326 324 323 322
302 306 307 307 308 307 306 309 308 310 310 314 318 320 320 324 324 324 324 325 329 329 327 333 334 333 332 333 328 329 328 329 333 334 333 332 334 333 334 334 332 329 328 327 325 325 328 325 324
304 305 307 308 307 307 308 307 308 309 313 316 319 321 321 324 323 324 325 326 328 327 327 329 332 331 332 331 331 330 328 327 327 329 330 330 330 333 333 334 333 329 330 329 327 327 325 324 325
306 306 306 307 307 308 305 306 308 310 314 314 318 319 322 323 322 323 323 324 326 327 328 330 328 331 330 329 329 330 328 328 327 325 327 328 330 330 331 332 332 330 331 330 328 327 325 323 324
306 302 304 305 306 305 308 303 305 310 313 314 318 320 322 323 323 323 322 325 326 328 328 326 327 327 327 325 324 325 326 326 325 325 327 326 328 330 331 331 332 331 331 331 329 327 326 322 322
302 302 298 304 306 307 306 299 307 312 314 313 316 319 321 323 324 324 323 325 326 328 326 326 326 325 327 326 325 324 324 325 325 325 326 323 327 328 329 327 328 328 330 328 325 324 323 322 321
301 296 298 301 307 306 304 301 308 313 312 312 314 318 319 321 323 324 323 325 327 327 329 326 325 324 325 326 325 325 323 322 322 324 325 325 327 327 327 326 327 329 327 327 325 325 324 321 320
295 297 299 299 304 304 303 304 307 312 312 312 313 315 318 320 321 323 322 325 327 328 328 326 325 324 323 323 323 324 322 322 322 323 325 326 324 325 325 325 327 324 323 322 324 324 323 321 319
300 300 299 302 305 303 302 302 306 309 310 311 313 314 317 320 323 324 322 324 326 327 326 324 323 321 318 320 321 320 319 320 321 323 323 326 322 324 325 325 326 326 322 322 326 322 321 318 319
299 298 298 302 303 301 301 301 305 307 308 310 311 314 316 319 322 322 322 323 325 325 324 322 321 320 318 319 321 321 320 319 320 322 323 325 325 326 327 326 325 325 325 327 325 325 320 319 319
299 298 298 298 302 302 300 298 301 306 308 310 311 313 315 318 320 321 320 322 324 325 323 323 322 320 320 318 320 321 321 320 317 319 320 322 324 325 327 328 327 327 328 326 327 327 325 319 320
295 301 300 299 298 294 302 292 300 303 305 308 310 312 313 316 321 322 321 321 323 324 325 326 324 321 321 321 319 318 319 317 319 318 321 321 321 326 326 324 325 328 327 327 328 327 327 325 320
298 302 300 299 297 297 297 294 298 303 303 306 309 311 313 316 320 322 322 322 323 325 324 324 324 323 322 322 320 319 317 320 320 319 319 319 319 323 322 325 323 324 328 328 329 328 327 327 323
302 300 299 299 298 291 296 295 296 301 303 306 307 310 312 316 318 322 324 324 322 324 325 325 321 321 323 322 320 319 317 319 317 319 318 318 320 321 325 325 324 323 324 325 327 327 328 326 325
299 296 290 289 289 288 298 296 298 303 306 307 308 309 312 315 318 321 322 322 321 322 324 323 322 320 321 321 321 321 320 319 318 319 318 317 317 321 325 326 326 326 325 323 326 327 327 328 326
297 296 291 285 287 291 298 293 299 307 308 309 309 310 312 316 318 320 322 323 322 321 323 323 321 321 321 321 320 321 321 322 320 318 318 318 319 322 325 327 326 326 324 322 325 325 324 325 326
296 293 298 292 296 292 295 299 304 307 306 308 309 310 311 313 317 319 322 324 323 322 322 323 321 322 322 321 320 321 322 321 321 322 321 318 322 324 325 325 325 325 325 326 325 322 320 323 321
297 301 292 294 285 285 292 295 297 301 303 306 307 309 311 314 315 319 321 323 324 324 323 324 323 322 323 323 323 322 322 324 322 323 322 322 322 325 325 326 325 324 322 321 324 322 322 322 324
295 295 297 296 294 287 287 292 304 302 305 306 309 310 312 313 316 319 321 324 325 326 324 323 322 322 323 324 323 322 322 325 324 324 326 325 326 325 325 323 323 323 322 322 321 324 324 323 323
299 297 298 292 290 294 293 293 305 305 305 308 308 311 313 314 315 320 322 323 324 325 325 323 323 321 322 325 325 325 326 326 325 326 327 329 326 326 326 326 323 322 323 323 322 322 323 323 322

GFSSGP_sfc_thetae_066.txt.gz
Theta_e
323 319 320 318 303 303 299 302 307 304 305 312 315 312 311 312 308 309 336 341 345 349 347 347 350 352 351 351 350 350 350 350 349 350 349 349 349 348 348 348 347 348 348 347 346 344 344 344 344
318 319 318 311 300 296 299 306 304 306 309 313 313 312 310 309 321 322 334 340 342 345 347 347 348 350 351 350 349 350 350 350 349 350 350 349 348 349 348 347 346 347 347 345 345 344 342 342 341
319 322 309 304 301 297 299 305 306 308 310 310 310 314 313 314 324 325 338 340 342 344 347 347 346 347 349 349 348 349 348 348 348 348 350 348 349 348 347 345 345 346 346 344 343 341 340 339 338
317 314 309 300 298 303 304 307 308 307 309 311 311 308 319 327 324 333 336 338 342 343 347 342 344 346 349 348 348 347 347 346 347 347 348 349 348 347 346 344 344 344 345 342 340 338 337 336 335
314 309 300 299 301 305 308 309 308 306 308 310 311 308 313 327 331 333 334 338 340 345 349 343 341 344 346 346 347 344 343 345 345 347 347 347 346 346 344 343 342 341 341 341 338 336 336 335 335
306 306 297 297 300 305 309 310 308 307 308 309 311 312 315 330 328 334 336 337 345 344 348 347 342 343 342 341 339 338 340 343 343 346 345 345 344 342 342 341 340 340 339 338 337 336 335 335 334
305 302 298 299 301 303 307 311 308 307 307 309 315 309 317 325 331 335 337 342 344 345 344 345 346 342 335 335 333 330 331 336 342 343 343 342 340 339 340 340 340 339 338 337 336 335 334 334 332
307 305 299 301 300 301 308 310 311 309 307 317 315 307 313 327 334 336 337 339 339 341 342 340 342 338 336 334 331 330 327 328 337 341 340 338 338 340 339 338 338 338 337 336 334 334 334 332 330
311 300 297 299 301 303 309 307 311 312 310 311 313 315 324 331 331 331 332 334 336 338 339 339 338 337 337 334 333 330 330 329 332 340 338 335 337 337 336 335 336 336 334 334 334 333 331 330 328
304 300 299 305 306 305 307 307 308 308 308 310 311 318 327 326 326 326 325 330 332 332 336 338 337 335 333 332 331 331 329 328 324 337 336 335 336 336 335 334 334 334 332 332 332 331 329 326 321
304 300 304 305 308 308 306 307 309 307 305 308 311 314 321 326 325 326 327 325 331 332 335 336 335 335 333 332 333 331 327 329 333 336 335 336 335 334 333 331 330 330 330 327 327 325 321 318 319
301 304 305 306 307 307 304 307 306 307 309 313 314 317 318 322 324 324 323 326 329 330 331 333 334 333 333 332 331 330 328 329 332 334 334 334 332 331 331 326 326 324 324 322 322 320 320 317 319
302 303 305 307 307 306 307 305 305 307 311 313 314 318 319 321 322 323 324 326 327 327 328 331 332 331 330 330 329 328 327 328 329 332 331 332 330 330 329 325 324 323 324 322 319 320 320 320 319
305 304 304 306 306 307 304 304 306 307 311 311 314 317 320 321 322 322 323 323 326 327 327 330 330 330 330 330 329 328 326 327 327 328 328 329 328 330 329 327 322 323 323 324 320 323 320 319 320
305 301 303 304 305 304 306 301 303 308 310 309 312 316 319 323 323 322 323 324 326 326 328 327 329 329 328 328 329 328 327 327 325 325 327 327 327 328 329 328 325 325 324 324 323 324 321 319 319
301 301 295 302 304 305 304 297 304 309 309 308 312 315 318 321 323 323 323 324 326 327 327 326 326 326 326 326 325 326 327 326 325 325 326 326 326 326 328 327 326 326 325 325 323 321 319 318 317
298 292 295 297 305 304 303 299 305 309 310 310 312 314 317 320 323 324 322 324 326 326 327 325 326 325 325 324 324 324 324 325 323 324 325 324 324 325 326 325 326 327 325 325 323 320 319 317 316
292 293 296 297 302 304 302 301 305 309 310 311 311 312 316 318 320 323 322 323 326 327 326 325 325 324 324 324 323 323 322 324 323 323 323 322 323 324 325 324 325 323 324 322 321 319 320 318 316
297 295 295 299 304 303 301 301 303 307 308 310 310 312 313 317 322 324 322 324 325 326 325 325 323 322 321 321 320 318 317 319 320 320 320 321 323 323 322 322 323 321 319 319 320 319 316 316 317
296 294 295 300 304 302 301 300 304 306 307 309 310 312 313 316 320 322 321 322 324 325 324 323 322 319 320 320 320 320 319 318 318 321 320 322 322 321 321 322 321 322 321 319 319 316 314 315 315
296 294 295 296 301 302 300 297 300 304 306 308 309 312 313 315 318 320 320 320 323 324 324 323 322 319 319 321 321 320 319 318 317 319 320 320 320 320 319 322 321 321 322 320 319 320 317 314 314
292 298 298 298 297 292 301 290 299 303 303 305 308 310 311 312 318 321 320 319 322 324 324 323 321 319 318 320 319 317 316 314 315 318 320 320 321 320 320 322 322 321 322 322 322 323 320 319 313
295 301 299 298 296 295 295 293 297 302 300 303 307 310 311 313 316 320 320 321 322 324 324 323 322 320 319 319 319 318 317 317 317 317 318 319 319 321 322 323 323 324 322 323 322 321 321 321 318
301 298 298 298 296 288 293 293 294 299 301 304 308 310 311 313 315 320 323 322 321 323 323 323 322 320 321 319 319 318 317 317 316 315 316 317 317 318 320 322 322 321 322 322 322 322 321 322 320
297 293 286 286 287 286 296 294 297 303 305 307 307 308 312 315 316 318 321 321 320 321 322 321 322 320 321 320 318 319 318 318 316 315 315 316 316 315 316 321 321 320 321 322 322 321 320 321 319
293 292 288 282 285 288 296 291 296 306 308 309 309 311 312 313 317 317 320 322 321 321 322 321 320 320 321 320 319 319 319 318 318 318 316 317 317 317 317 320 321 321 321 321 321 319 318 319 319
293 289 296 291 292 288 294 297 303 306 306 306 307 309 310 313 315 316 320 322 322 321 321 321 320 320 321 321 320 319 319 318 318 319 319 318 318 318 319 321 321 321 322 321 319 318 317 318 319
297 298 289 291 283 283 292 294 295 301 303 306 306 309 312 313 314 316 318 322 323 322 322 323 321 320 321 321 320 319 320 321 320 319 318 318 318 318 318 320 321 321 322 322 320 318 317 317 318
294 292 294 294 291 287 286 291 305 303 306 306 308 310 313 314 315 317 318 322 324 323 322 322 322 321 321 321 320 319 319 320 321 319 319 319 319 319 318 319 320 321 321 321 319 318 318 317 316
297 294 295 288 288 292 291 292 306 305 305 306 308 310 312 314 314 317 320 322 323 323 322 321 321 321 322 322 322 320 319 320 321 321 321 321 320 319 319 320 320 321 321 320 320 319 319 317 316

GFSSGP_sfc_thetae_069.txt.gz
Theta_e
321 315 310 309 296 292 288 294 299 298 304 308 310 309 306 307 310 308 332 339 345 342 346 350 350 350 350 351 350 350 349 350 351 351 349 349 348 348 347 347 348 349 349 347 343 344 344 345 346
314 313 308 303 291 286 290 298 298 303 307 310 310 308 306 312 324 330 330 338 341 343 344 347 350 350 349 350 350 350 350 350 350 350 349 348 349 349 349 348 347 348 347 346 345 344 343 344 343
316 314 301 295 290 288 290 297 298 303 306 306 306 309 310 316 322 330 335 338 340 340 343 345 347 349 349 349 349 349 349 348 349 349 349 349 349 350 348 346 345 346 347 345 344 343 342 342 341
309 306 301 290 289 295 297 302 302 303 304 307 306 305 320 324 325 332 335 336 337 337 344 342 344 348 349 349 349 348 348 346 347 347 348 349 349 349 346 345 345 346 346 343 342 341 341 338 337
305 300 290 288 291 297 301 303 302 302 306 308 308 306 315 325 330 331 332 334 333 336 341 341 341 346 348 347 348 346 346 346 346 346 347 347 348 347 345 343 344 344 344 343 341 340 338 336 336
297 296 287 286 292 299 303 305 305 304 304 304 303 308 316 325 326 330 331 331 334 339 340 340 341 343 344 345 344 343 342 343 343 344 345 343 345 344 343 342 342 342 340 339 339 337 336 336 334
295 292 288 290 294 297 302 304 303 303 302 304 313 307 317 321 329 330 330 333 335 337 337 338 338 337 336 336 335 334 336 334 336 340 341 341 341 341 342 341 341 340 339 338 337 336 335 334 332
300 295 291 294 294 295 303 306 306 304 302 315 310 304 312 322 328 328 332 331 331 335 334 334 334 332 330 331 332 333 335 335 330 332 338 339 340 340 340 339 339 338 337 336 336 335 333 332 329
303 294 291 292 295 298 304 301 305 307 305 308 309 309 323 329 330 326 327 327 328 332 332 332 332 331 330 329 330 332 334 334 331 332 327 335 336 336 336 336 336 336 335 335 334 333 331 329 328
299 292 293 299 300 300 303 301 304 302 304 306 306 323 328 326 323 323 323 324 326 327 329 331 331 328 328 330 327 326 328 329 327 327 328 335 334 333 334 334 334 334 333 333 332 331 329 325 319
298 294 299 300 303 303 301 300 303 302 301 304 305 318 321 320 320 319 320 322 326 327 329 330 329 328 326 326 326 325 325 323 322 322 323 335 333 333 332 331 331 330 331 327 326 325 321 318 317
296 300 301 302 304 302 300 301 300 301 304 308 308 315 320 320 319 319 318 325 325 324 326 328 329 329 328 329 327 325 324 325 322 322 323 333 331 330 329 327 327 327 325 322 320 318 317 316 317
299 300 302 303 303 303 303 300 300 301 304 307 309 315 313 317 317 318 319 322 323 323 324 326 329 329 327 325 324 325 325 326 326 330 332 332 330 328 325 324 323 322 321 318 316 316 317 314 315
302 302 302 303 302 302 301 300 298 303 304 305 306 313 314 316 317 315 316 318 320 323 323 325 328 328 326 324 324 326 325 325 329 330 330 330 330 326 322 321 320 320 320 317 315 316 314 314 316
302 297 300 301 300 300 302 297 298 302 304 303 304 312 314 317 318 315 316 318 321 322 324 323 326 327 326 326 323 322 325 327 327 327 328 329 329 326 321 320 319 320 319 316 316 316 317 316 318
298 297 291 298 301 302 298 293 299 302 302 301 302 309 313 316 318 316 317 320 320 321 324 325 326 324 323 323 324 323 325 326 326 326 327 327 329 328 325 321 320 321 320 318 318 318 317 315 315
295 288 291 295 301 300 296 295 301 302 302 301 302 306 311 316 316 316 318 320 320 322 323 323 323 323 323 320 324 322 323 324 325 326 326 325 326 328 327 323 322 323 321 320 319 319 316 315 314
288 290 290 292 297 299 296 296 301 303 302 304 304 305 309 315 317 317 317 321 320 323 322 321 323 323 322 322 323 323 324 322 323 324 325 325 324 325 326 325 324 324 322 320 320 319 315 315 316
295 294 292 294 299 297 297 297 297 303 300 301 303 304 304 313 318 317 317 320 319 322 321 322 322 322 321 320 319 319 318 322 321 323 324 323 323 323 324 323 323 321 323 319 319 317 316 313 314
295 292 291 296 300 298 297 297 297 300 299 301 303 303 304 311 316 315 316 317 320 320 321 322 321 321 321 320 320 319 319 321 322 322 322 322 323 322 321 323 322 319 322 319 317 314 312 313 313
293 292 292 293 297 298 296 294 295 301 302 302 304 307 308 311 314 314 315 316 319 319 320 320 319 320 320 320 320 319 318 318 318 318 319 320 321 320 320 322 321 320 320 318 316 314 312 310 311
289 298 297 295 293 287 297 286 293 298 300 302 301 301 307 309 315 314 315 315 318 319 320 320 319 319 319 321 319 317 315 313 316 316 318 318 319 319 318 320 319 319 320 317 316 317 314 314 309
293 299 296 295 292 291 292 287 290 297 297 299 301 300 303 305 315 314 314 316 317 320 319 319 318 318 319 320 319 317 315 316 316 317 316 317 318 317 318 318 319 317 318 318 318 318 317 317 314
299 296 296 295 292 284 291 288 288 293 298 301 302 303 305 304 315 315 315 317 317 319 318 318 317 317 318 319 319 317 315 314 312 314 316 317 317 317 319 317 320 320 318 319 318 318 318 318 317
296 291 285 284 282 281 293 290 292 298 302 303 302 302 303 305 315 314 314 315 316 317 317 317 316 316 318 317 318 317 315 314 312 313 314 315 315 316 317 319 318 318 319 319 319 318 317 317 317
292 291 285 280 281 285 294 287 292 301 304 306 304 303 305 306 315 315 315 315 316 317 317 318 316 315 318 317 317 318 318 316 315 314 315 316 316 316 317 318 320 320 317 318 319 319 318 318 318
292 288 294 286 288 284 289 294 299 302 302 303 303 304 302 305 308 315 316 316 316 317 317 316 318 317 317 318 318 317 318 317 316 316 315 316 317 317 316 316 319 320 319 317 317 317 317 318 318
295 297 286 286 281 280 288 291 291 298 300 302 302 301 303 305 306 313 316 316 317 319 318 317 318 318 318 318 319 318 318 318 318 318 316 315 316 317 317 316 318 319 320 320 318 318 317 316 317
292 290 291 291 289 283 283 289 300 298 301 302 304 305 305 306 307 308 316 317 317 318 318 317 317 317 318 318 319 318 318 318 318 318 318 318 316 316 317 316 318 319 319 320 319 319 317 316 315
296 293 292 286 286 289 285 287 302 300 301 303 303 305 306 308 309 310 316 317 316 317 318 317 317 317 318 318 318 317 319 319 319 318 318 319 318 318 317 316 316 317 318 318 317 317 318 316 314

GFSSGP_sfc_thetae_072.txt.gz
Theta_e
322 312 308 307 295 289 286 291 297 297 301 305 308 307 305 307 307 302 330 342 343 344 348 348 348 350 350 350 350 349 351 351 351 350 349 349 349 348 347 346 347 349 349 347 346 347 346 346 346
312 311 306 299 290 283 287 294 296 299 307 308 307 307 306 313 327 328 330 342 342 344 347 348 347 349 349 349 349 349 351 350 350 349 349 348 348 347 348 347 346 347 349 346 345 347 345 345 344
312 312 300 294 287 285 288 296 300 302 306 305 305 307 313 315 329 330 332 341 342 341 345 348 347 347 349 349 349 348 349 349 349 348 348 348 348 349 349 348 347 347 346 345 344 345 344 343 341
306 304 300 289 287 292 294 297 301 300 303 303 304 311 317 322 328 332 335 338 339 339 342 344 345 347 348 349 348 348 347 347 347 347 348 348 349 349 348 346 346 347 346 346 345 344 344 341 340
302 296 290 285 288 294 298 299 300 300 302 306 306 304 313 325 331 333 332 336 333 336 340 342 343 346 348 349 349 347 346 346 346 346 347 348 348 348 346 345 345 345 345 345 344 343 340 339 337
296 294 285 284 289 296 298 300 302 303 306 305 302 312 315 326 327 329 331 331 337 336 337 339 344 346 346 346 345 344 344 345 345 345 346 347 346 345 345 344 343 343 342 341 341 339 338 336 334
295 289 285 286 289 293 298 301 302 301 301 305 310 307 315 320 327 329 329 333 336 337 336 336 336 338 338 340 338 338 340 341 340 338 340 339 341 341 343 343 343 342 340 340 338 337 335 334 332
297 292 288 288 291 292 300 302 304 301 299 312 309 307 311 319 328 328 331 331 332 333 332 333 333 330 329 331 335 336 338 336 335 335 332 333 337 339 340 341 340 340 339 338 338 335 334 332 332
300 290 286 289 292 295 301 297 303 306 307 307 308 310 318 326 327 327 325 324 328 330 330 331 329 331 329 330 333 336 336 336 335 334 331 332 334 336 337 337 337 337 336 336 336 334 332 330 330
297 291 292 297 297 297 300 297 300 301 301 304 308 323 325 326 324 325 324 323 323 325 326 328 328 327 330 330 331 330 332 331 329 327 330 326 324 335 334 335 335 334 334 334 333 332 330 325 323
295 295 297 298 301 300 297 298 303 300 299 303 306 319 323 324 322 322 324 324 324 326 326 327 326 326 329 327 327 326 324 326 324 326 327 324 326 333 333 332 331 330 332 328 327 326 320 317 316
294 299 300 300 301 300 299 301 299 299 302 306 309 323 322 320 319 319 317 322 323 325 326 326 326 325 323 324 325 323 324 322 323 324 326 324 329 331 331 329 328 327 326 323 322 318 315 315 316
297 299 302 303 302 301 302 299 299 300 303 304 312 320 319 318 317 317 323 325 324 323 323 325 325 328 327 327 323 322 321 322 322 322 324 331 331 329 329 327 326 325 323 321 317 315 313 314 317
298 300 301 302 300 301 299 299 297 301 302 302 310 315 316 317 315 317 321 322 322 322 322 323 325 327 326 322 322 324 324 325 323 322 323 329 330 328 326 325 322 321 319 319 318 314 312 312 315
300 295 297 298 298 298 299 295 296 302 301 301 301 309 311 317 314 318 320 320 321 322 322 322 323 327 324 321 322 324 322 327 326 326 326 330 328 325 323 320 319 319 316 314 313 313 311 311 316
296 295 290 297 298 300 296 291 299 301 299 299 299 303 310 313 315 316 317 320 321 321 321 322 325 322 322 322 322 325 325 327 327 329 329 329 326 323 320 318 318 318 315 314 315 314 311 311 314
292 287 289 292 298 298 295 293 299 302 299 299 298 299 309 311 312 313 319 320 321 322 322 321 324 323 319 324 324 323 324 326 327 328 328 328 325 321 319 318 318 317 315 314 315 314 312 311 312
287 288 287 288 295 297 295 294 300 301 298 300 298 297 308 312 314 315 319 320 321 321 322 323 323 322 317 319 323 324 323 323 323 327 327 327 327 323 320 320 321 318 316 315 316 314 312 313 312
292 290 289 292 298 295 294 294 298 300 301 298 299 299 307 312 316 316 319 319 320 320 319 320 321 321 319 320 319 320 320 321 322 324 324 323 327 326 320 320 322 319 318 317 317 315 313 312 312
292 289 288 294 298 295 293 293 297 299 299 299 301 301 303 312 313 314 317 318 320 318 318 319 320 321 321 319 320 319 320 321 322 323 324 323 323 325 323 320 322 322 319 318 317 314 313 312 313
290 289 290 291 296 295 292 290 294 299 299 299 301 303 303 312 312 312 315 316 319 318 318 320 320 321 320 320 319 316 318 319 319 320 321 322 323 322 324 322 322 321 321 318 316 313 313 309 310
287 294 295 294 292 285 293 283 292 297 297 298 298 299 301 311 314 313 314 315 317 319 319 319 319 319 320 320 318 316 315 315 318 319 320 320 322 321 321 322 321 319 321 319 317 316 312 312 310
290 296 295 295 290 288 290 286 290 296 295 297 299 298 300 311 314 313 313 316 318 320 319 317 318 318 318 319 318 317 316 316 317 319 319 319 320 319 319 320 320 318 320 318 317 316 314 312 309
296 295 295 294 290 282 289 289 288 292 295 298 301 301 300 311 313 314 314 317 317 318 319 317 316 316 317 319 318 316 315 315 314 315 316 317 318 317 317 319 319 319 319 319 318 318 316 315 313
295 291 284 283 282 280 292 289 291 297 299 300 301 302 301 311 312 311 312 313 316 316 316 317 316 315 316 317 317 317 315 315 314 315 315 315 315 316 316 317 318 318 319 320 319 318 318 316 315
292 291 285 278 279 283 293 285 291 300 303 303 303 302 301 311 312 311 313 314 316 316 317 317 316 315 316 318 318 317 316 316 313 313 315 315 316 317 318 318 318 319 319 319 319 318 317 315 315
290 287 294 286 287 283 288 292 298 301 302 302 301 301 302 310 311 311 313 314 316 316 316 316 315 315 315 316 318 317 317 315 313 313 314 315 316 317 317 318 318 318 319 319 318 316 317 317 316
294 296 286 287 280 279 286 289 291 297 300 301 301 302 303 305 311 312 313 314 316 317 317 316 315 315 316 317 317 317 318 318 316 314 313 314 316 316 317 315 318 319 318 318 318 317 317 316 316
292 290 291 290 288 283 281 288 298 298 299 300 301 304 304 306 305 312 314 314 315 317 316 316 316 315 316 317 317 317 317 317 318 316 314 314 315 315 316 316 316 317 319 319 317 317 317 316 316
295 292 291 287 285 287 285 287 300 302 303 302 303 305 306 308 310 312 313 312 315 315 315 315 316 316 316 317 317 316 317 318 317 317 317 316 315 315 315 316 315 315 316 318 318 317 317 316 315

GFSSGP_sfc_thetae_075.txt.gz
Theta_e
322 311 306 306 294 288 285 289 293 295 299 304 306 305 304 305 303 297 326 339 342 343 345 346 348 349 350 349 349 350 350 351 352 351 351 351 350 350 349 349 349 349 350 349 348 349 349 347 347
310 308 304 297 289 282 285 292 294 297 302 306 307 310 307 310 325 326 331 341 343 344 345 345 347 348 349 349 349 350 351 351 351 350 350 349 349 349 349 348 348 348 350 349 349 348 347 346 345
309 309 298 293 286 283 285 294 296 300 302 303 302 306 312 315 328 328 332 342 341 343 345 345 347 347 349 349 348 349 349 349 349 349 349 349 349 348 348 347 347 348 348 348 348 347 345 344 341
305 303 298 289 286 289 291 295 297 299 302 301 301 307 315 324 328 331 337 341 338 340 345 344 344 346 348 348 348 348 348 347 347 347 348 348 348 348 347 346 346 347 346 347 347 345 343 341 339
300 296 289 285 288 291 295 297 298 298 300 302 302 307 311 323 330 332 337 340 337 336 340 343 342 345 347 349 348 347 347 346 346 346 346 346 348 348 347 345 345 345 345 346 345 342 341 339 338
293 293 284 284 287 293 295 297 298 299 301 302 301 308 313 324 328 329 333 332 335 335 336 340 344 345 346 347 346 343 343 345 345 345 346 346 346 345 345 345 344 343 342 342 341 340 339 337 336
291 288 285 285 287 291 295 298 298 299 299 299 308 309 313 321 326 328 329 333 334 334 335 336 339 345 344 342 342 340 340 340 341 340 338 338 339 341 342 342 342 342 342 340 339 338 335 336 335
295 291 285 287 289 290 297 299 299 297 298 309 313 309 310 319 326 328 330 331 331 331 331 332 332 331 333 335 336 336 337 336 336 335 330 329 336 338 338 339 341 340 340 339 338 335 334 335 333
297 288 283 287 290 292 298 294 299 301 300 304 307 314 317 324 327 326 324 323 326 328 329 329 328 327 328 333 336 337 338 334 334 335 334 331 333 335 335 337 338 338 337 336 335 333 332 332 331
295 288 288 293 296 295 296 293 298 298 299 300 302 320 322 324 325 324 322 322 323 324 325 329 329 326 326 332 334 334 334 332 331 332 331 330 332 333 334 334 335 335 335 334 333 331 331 328 325
295 292 294 296 299 298 294 296 298 298 297 300 300 312 320 322 323 323 323 323 324 324 324 328 329 328 328 327 328 330 332 331 329 329 329 329 327 331 333 332 332 331 333 329 327 325 324 323 322
293 296 299 298 299 296 295 297 297 296 300 303 302 315 320 320 320 322 322 321 321 324 324 327 326 328 328 327 327 325 327 327 325 325 328 323 323 327 330 331 328 328 327 324 323 318 319 319 319
294 297 300 300 300 298 299 297 298 299 302 303 302 320 320 320 320 319 320 322 322 323 323 327 328 324 323 323 323 323 324 325 325 325 325 323 324 327 330 329 327 326 325 322 319 316 316 317 317
295 296 297 299 299 299 298 298 295 300 303 300 302 318 319 319 318 315 319 320 323 323 322 327 328 327 324 325 323 323 322 323 323 323 325 324 327 330 329 327 325 324 323 320 317 314 314 317 317
298 294 296 296 296 295 298 294 294 300 301 299 300 313 317 318 315 317 320 322 323 323 321 323 327 326 323 324 322 325 323 325 321 323 323 326 328 330 328 326 323 321 318 317 314 312 312 314 317
294 293 288 295 296 297 295 290 297 299 298 297 298 303 313 314 315 317 321 322 321 320 320 321 326 322 320 318 321 323 324 325 326 324 323 324 328 329 327 324 320 318 315 314 314 312 311 313 316
289 286 288 291 297 295 293 291 296 298 298 296 297 296 307 310 312 314 320 321 320 320 320 320 320 319 319 319 321 324 324 325 327 327 325 325 326 326 323 321 319 315 314 314 313 311 312 312 314
284 286 285 287 291 294 291 291 296 300 298 298 296 296 302 308 313 313 318 320 320 321 321 320 320 320 322 323 322 322 322 323 326 327 326 324 323 322 320 318 316 316 313 311 312 311 310 312 314
290 288 286 288 294 293 292 292 294 296 296 295 298 300 297 307 313 314 318 319 319 320 319 319 318 318 320 321 321 318 319 321 323 325 327 324 322 321 318 318 316 316 311 312 313 312 310 309 311
290 287 287 291 295 295 290 290 295 297 296 298 299 300 298 305 309 315 316 318 318 319 319 319 318 318 320 320 320 320 320 321 322 324 324 326 324 321 318 319 316 315 313 313 314 313 311 311 312
289 287 288 289 294 295 291 290 292 297 298 299 299 300 301 308 309 314 315 316 318 317 317 318 317 318 319 319 319 318 319 320 319 320 322 323 325 323 319 320 318 317 315 316 316 314 314 310 310
286 292 292 292 290 284 291 282 290 293 295 297 298 298 300 308 311 314 315 315 317 317 318 319 320 317 318 319 317 317 316 316 318 320 321 322 324 324 321 320 321 320 318 317 317 315 314 313 311
289 295 293 293 290 289 288 284 288 294 294 297 298 298 299 306 312 311 314 315 318 319 319 320 319 319 318 317 317 317 315 316 318 319 319 320 320 321 322 322 319 319 320 318 318 314 312 312 313
296 294 293 292 290 283 287 286 285 289 294 297 299 300 298 301 311 312 315 316 317 319 318 317 316 316 318 316 315 315 315 315 313 317 317 318 319 318 319 321 320 319 319 318 317 317 315 312 313
295 290 282 281 281 280 289 286 288 294 298 300 301 302 301 302 309 311 312 314 317 317 317 316 316 314 316 316 314 313 314 315 315 316 317 316 317 318 317 319 319 319 319 319 318 316 316 315 314
291 289 283 277 278 280 291 284 290 298 301 302 303 301 301 300 309 311 312 314 315 317 316 316 315 315 316 317 316 314 314 316 316 316 316 317 317 318 319 317 318 319 319 319 319 318 317 317 315
291 286 292 286 287 281 285 291 296 301 300 301 302 301 299 301 309 310 312 314 315 316 316 316 315 314 316 316 317 315 314 314 314 314 315 316 317 318 317 316 317 318 318 318 318 317 316 317 317
293 296 285 287 279 277 284 288 289 295 297 300 301 302 303 306 308 309 312 314 316 316 317 317 317 314 315 315 316 316 315 314 312 311 311 314 315 316 315 316 317 316 318 318 317 317 317 317 317
291 290 290 290 287 282 280 287 297 297 300 299 301 304 306 305 309 310 311 313 315 315 316 316 315 314 314 314 316 316 314 315 316 313 312 312 313 313 314 316 317 317 317 318 317 316 317 316 316
294 291 291 285 283 285 285 286 300 301 302 301 302 306 306 309 310 311 312 313 313 313 315 315 315 315 315 314 316 315 315 317 317 316 314 312 313 313 314 314 315 316 318 318 317 316 317 315 315

GFSSGP_sfc_thetae_078.txt.gz
Theta_e
321 310 305 304 292 288 284 287 291 293 295 301 304 304 302 301 302 295 320 338 340 340 344 346 348 349 349 350 349 351 352 354 353 353 352 352 352 351 350 350 350 351 352 352 351 350 349 348 347
312 306 303 296 287 281 283 290 292 295 300 303 308 309 306 304 322 324 328 337 341 341 343 344 348 348 349 349 349 349 352 353 353 352 352 351 351 350 348 348 349 349 350 351 349 349 348 347 345
307 306 298 292 285 283 283 290 295 297 300 302 300 306 307 309 325 326 332 339 341 341 343 343 346 347 348 348 348 349 349 350 351 350 351 351 351 350 350 348 348 349 350 350 349 348 347 345 343
304 300 296 289 285 288 289 293 295 296 299 299 299 302 313 321 325 330 334 340 339 341 343 342 344 346 348 348 348 348 348 347 348 349 350 350 350 350 349 347 347 348 349 350 349 347 344 342 341
298 295 287 284 287 291 293 295 295 296 298 300 301 301 309 319 329 331 338 338 336 338 343 342 342 345 347 348 348 348 347 346 347 347 348 348 349 348 347 346 346 347 347 347 346 344 342 340 339
293 292 284 282 285 293 294 296 296 297 298 300 298 301 309 322 327 330 337 335 335 334 337 340 344 344 345 346 346 344 345 345 346 346 346 345 344 343 343 345 345 344 345 343 343 341 339 339 338
289 287 284 283 286 291 296 297 296 296 297 297 303 302 311 318 326 329 331 332 333 334 334 336 341 343 343 342 342 341 341 341 342 341 340 338 337 340 340 342 343 343 342 342 341 339 338 337 336
293 289 282 285 287 289 296 298 297 296 296 305 310 305 305 317 325 328 330 329 330 330 331 332 340 342 342 343 340 336 339 337 336 335 334 333 331 333 337 337 339 340 341 340 339 338 337 335 333
294 286 282 285 288 291 296 292 296 299 297 299 303 309 315 323 327 325 324 327 327 328 329 329 331 334 335 336 338 338 338 336 335 335 333 331 331 332 333 336 336 339 337 338 336 335 335 333 331
293 286 286 291 293 293 294 292 296 296 296 299 299 310 320 323 324 323 322 325 326 326 327 331 330 326 326 332 333 335 336 333 332 330 328 328 329 330 331 333 335 335 335 335 333 334 332 329 326
294 289 291 294 297 295 293 295 297 296 295 298 299 300 317 320 321 322 322 323 325 325 323 329 330 327 328 330 332 334 333 330 330 329 327 328 329 331 331 331 332 332 333 328 328 329 326 323 323
290 295 296 295 298 296 295 294 296 296 299 303 301 301 314 318 320 321 321 321 321 322 323 328 329 329 328 329 329 329 331 330 329 330 330 328 329 330 329 330 330 330 328 323 323 324 322 321 319
291 293 297 298 298 297 298 296 297 297 300 302 301 301 311 316 319 322 322 321 320 321 321 326 328 328 328 327 326 327 328 328 328 329 328 327 327 328 330 329 328 328 325 321 316 318 319 316 317
292 292 293 295 296 298 297 298 296 298 300 300 299 299 309 316 318 315 319 320 320 322 323 327 327 328 324 325 324 325 325 326 326 326 328 325 325 325 327 327 327 326 324 320 315 317 317 316 317
295 292 294 294 294 295 298 293 294 299 299 298 298 297 307 317 318 316 319 320 321 322 323 327 327 325 321 322 324 323 322 323 323 325 326 324 324 326 329 328 326 324 323 318 314 313 316 316 317
291 290 286 292 294 295 294 289 295 297 296 296 296 295 304 316 318 319 318 318 320 320 321 326 327 324 320 321 324 324 323 322 321 322 324 325 325 329 329 327 325 322 321 318 314 313 314 315 314
286 282 286 289 296 294 291 291 294 297 295 295 295 295 296 308 314 317 317 319 320 320 320 322 325 322 317 318 321 323 324 324 325 323 323 325 325 327 328 326 322 319 318 318 314 312 314 314 314
281 284 284 284 290 291 290 290 294 297 295 296 296 296 295 299 308 316 317 319 319 319 319 322 323 320 318 320 321 323 323 324 325 326 324 324 325 327 327 323 319 319 317 314 313 311 310 314 314
288 286 285 286 292 291 291 290 292 294 294 294 295 295 295 298 306 312 318 318 317 317 319 320 321 321 320 318 318 319 319 321 323 326 327 325 325 327 324 320 317 317 314 314 313 311 310 310 313
286 284 285 289 293 292 290 290 295 295 294 296 297 297 297 297 306 311 316 317 317 320 320 319 320 319 320 321 320 320 320 321 322 324 323 322 321 321 320 318 317 315 313 313 313 312 309 310 314
287 285 286 286 291 293 290 289 291 295 295 296 297 298 298 298 304 311 314 316 317 319 319 319 319 318 318 320 319 318 319 320 320 322 323 322 321 320 319 318 317 313 313 313 314 312 311 310 312
284 291 290 289 288 282 289 281 288 292 295 296 297 297 297 298 305 312 313 314 317 318 320 319 317 317 319 319 318 317 315 315 318 320 322 323 322 320 319 319 316 314 313 313 315 314 313 313 311
288 293 292 291 287 286 287 283 286 291 290 293 297 298 298 299 308 312 314 315 317 318 317 317 316 317 318 318 318 312 314 315 318 319 320 321 322 320 319 320 317 316 315 316 316 314 313 313 313
294 292 291 290 287 281 285 284 283 288 292 294 297 299 299 297 309 312 314 315 318 318 317 317 318 318 317 317 317 312 314 315 315 315 318 318 319 321 319 320 320 320 318 317 317 315 314 313 313
292 289 280 280 280 279 288 285 287 294 296 297 298 299 300 299 303 309 311 314 316 316 318 318 317 316 316 315 316 315 312 313 312 316 317 318 317 317 320 319 319 320 319 317 317 316 315 313 312
289 288 280 276 278 280 289 282 288 299 301 301 302 302 303 299 302 309 312 314 315 317 317 316 315 315 315 315 315 313 312 312 312 315 317 318 318 318 318 320 319 319 319 319 318 317 316 316 315
290 287 291 285 286 283 284 288 296 301 301 301 302 304 304 306 303 308 311 314 315 316 316 316 315 315 316 316 315 314 311 312 315 315 316 317 317 318 318 318 319 319 318 318 319 319 318 317 316
293 295 286 286 278 277 282 285 288 295 297 300 301 302 304 307 308 309 312 313 316 317 316 317 316 314 315 316 316 315 315 313 313 311 313 316 317 317 314 315 318 318 318 319 319 318 318 317 317
290 289 289 289 287 279 278 283 297 297 300 299 301 302 303 307 308 309 311 313 316 316 316 315 315 314 315 315 316 316 315 314 311 312 312 311 315 316 316 316 316 317 317 317 317 318 317 316 316
294 289 289 285 282 285 284 283 300 301 300 302 300 301 303 304 307 311 312 313 314 314 315 315 314 315 315 315 315 316 316 315 312 313 312 313 312 314 315 315 316 316 316 317 317 316 317 315 315

GFSSGP_sfc_thetae_081.txt.gz
Theta_e
327 318 313 312 301 299 293 294 298 299 301 305 308 307 307 308 311 305 330 344 345 347 348 349 346 347 350 350 351 352 354 354 354 353 353 353 353 352 351 351 351 352 353 353 352 353 351 349 349
316 310 311 306 296 291 292 297 297 301 304 306 310 312 311 309 323 327 333 343 345 347 347 349 346 347 349 349 351 352 354 354 354 353 353 353 352 351 351 350 350 351 352 353 350 351 349 348 347
312 310 306 303 295 290 292 296 302 303 304 304 306 312 310 312 328 329 337 344 346 345 346 347 346 346 348 349 349 350 349 352 352 352 353 352 352 351 351 349 349 351 352 353 351 349 349 346 344
311 310 304 296 292 296 295 299 301 301 303 305 307 305 317 324 330 335 339 345 346 345 346 345 344 345 346 348 348 349 349 348 349 350 351 352 351 351 348 347 349 350 352 352 350 348 346 344 342
306 304 295 294 293 296 298 300 301 301 302 303 305 303 312 323 332 337 341 344 344 345 347 348 343 345 346 347 348 348 348 347 346 349 349 348 350 348 347 345 348 349 349 348 347 346 344 342 341
301 301 292 289 292 297 300 302 301 301 301 303 303 303 310 326 333 338 343 344 346 342 344 344 345 345 344 345 346 345 345 345 347 347 348 348 346 344 343 343 343 343 344 344 344 343 342 340 339
298 297 292 291 291 295 298 302 300 301 301 302 306 303 313 323 333 339 343 344 344 346 344 341 344 347 343 341 342 342 342 343 342 343 344 341 337 339 340 339 341 342 343 341 342 341 340 339 337
299 298 290 291 291 293 299 300 303 302 302 307 315 308 308 321 331 338 341 341 342 343 345 343 343 344 349 349 340 340 341 340 339 339 337 336 335 334 335 337 338 339 342 341 341 339 338 337 335
300 294 290 291 291 294 300 299 303 304 303 304 307 310 317 326 332 334 335 334 336 338 341 343 340 343 346 345 344 340 340 338 337 338 335 334 336 335 335 335 336 337 338 338 338 337 335 333 332
299 293 293 296 297 297 299 299 301 301 302 302 304 308 323 327 330 331 331 331 332 331 334 338 337 339 340 338 341 344 342 341 335 335 334 335 335 335 333 332 334 335 336 336 336 335 332 333 333
299 293 296 297 299 300 299 300 302 300 299 303 303 306 313 322 327 328 330 330 332 333 331 336 335 335 336 337 338 337 337 337 333 332 331 334 334 333 331 333 335 334 335 336 336 334 334 334 333
294 298 299 299 301 300 298 301 299 301 302 307 307 308 307 311 320 327 328 329 331 333 334 333 334 334 335 336 333 334 334 334 331 330 331 333 333 332 333 334 334 332 331 332 336 334 333 332 330
294 296 298 300 300 301 302 300 300 301 305 307 307 305 307 308 312 320 327 330 330 331 333 331 332 333 333 333 332 333 333 332 332 331 329 333 332 332 333 333 334 330 328 329 333 331 330 329 328
296 296 296 297 299 300 297 298 300 302 305 305 304 306 307 307 310 317 325 327 328 330 331 330 330 332 333 332 331 331 332 332 331 330 331 330 330 333 333 333 333 331 326 328 331 330 328 327 327
296 292 295 298 298 298 300 295 296 303 305 304 305 306 306 307 311 318 323 326 329 329 331 328 330 333 331 329 331 330 328 328 328 329 331 329 330 330 331 331 331 331 325 323 328 328 327 326 326
292 293 288 296 297 299 298 291 298 303 302 302 303 304 304 305 309 318 324 326 329 329 329 329 331 331 330 329 328 327 326 325 325 327 328 328 329 331 331 330 329 329 324 322 324 325 324 324 323
289 285 288 292 299 298 296 293 299 302 301 300 302 303 304 305 307 317 324 325 327 329 329 328 329 329 327 327 327 328 327 327 325 325 326 326 327 329 329 329 329 328 322 322 323 323 323 321 322
284 286 288 289 294 296 294 294 298 301 301 301 302 304 304 305 306 311 320 325 327 328 329 327 327 329 326 325 325 325 326 327 327 325 326 327 328 327 329 327 324 325 322 321 321 321 323 322 322
288 287 286 290 294 292 292 293 296 300 301 301 302 303 305 306 309 309 317 324 325 327 326 324 325 324 322 321 321 322 321 324 326 327 328 327 326 327 325 325 322 323 321 320 321 321 321 320 323
288 286 286 290 294 293 292 292 296 299 300 302 302 304 305 306 307 308 316 322 324 324 325 322 323 323 322 323 322 322 323 324 325 328 327 327 325 326 326 321 322 321 320 322 320 320 320 320 321
288 287 288 288 292 294 292 290 293 297 300 302 303 304 305 305 306 307 315 320 323 324 323 322 322 323 322 324 325 322 322 323 322 323 322 321 324 325 323 321 320 319 321 319 319 320 321 317 320
287 293 291 290 289 285 294 283 291 295 297 299 302 304 305 306 306 306 313 318 321 324 325 322 322 322 322 326 324 320 318 318 321 323 323 321 321 320 320 319 318 317 320 319 318 318 320 321 317
290 294 292 292 290 289 288 286 290 295 294 298 302 303 305 307 306 306 313 318 322 325 323 321 320 321 322 325 324 321 319 320 322 322 322 322 320 321 319 318 315 316 318 319 318 317 318 321 320
296 293 292 292 289 282 288 287 288 292 295 298 301 303 305 306 306 310 316 319 321 324 321 319 318 319 320 322 322 320 321 319 318 320 320 320 321 320 320 318 317 316 317 317 319 318 318 318 320
294 289 282 280 281 281 290 286 290 296 302 302 303 306 308 310 306 313 316 317 319 320 317 317 318 317 318 319 319 319 322 320 319 319 320 319 319 319 318 319 317 317 317 319 320 320 319 319 320
291 290 283 276 280 283 290 285 291 302 304 305 307 307 308 310 312 310 316 317 319 319 317 320 321 319 317 318 318 318 321 321 320 321 321 321 321 322 321 320 319 318 318 318 318 318 319 321 320
290 287 292 285 287 283 287 291 298 302 302 304 304 305 305 308 311 312 314 318 319 318 319 321 319 317 316 317 317 317 320 321 320 320 321 321 321 320 320 320 319 318 317 317 316 317 317 317 317
294 295 286 287 278 278 285 287 289 295 298 300 301 301 303 306 311 311 314 317 318 318 318 318 318 316 317 317 317 317 318 320 320 319 319 319 320 322 320 319 319 318 318 317 316 315 317 317 317
291 289 290 289 287 281 280 286 298 297 298 299 298 300 301 302 308 313 315 317 318 318 317 316 316 316 316 316 317 317 316 317 318 318 320 320 319 319 320 319 320 318 318 317 317 318 317 316 317
294 291 290 284 282 286 284 286 301 300 299 300 297 297 299 301 301 308 314 315 315 315 315 315 316 316 316 317 317 317 317 316 315 317 318 318 319 320 319 318 319 320 319 319 318 316 318 316 316

GFSSGP_sfc_thetae_084.txt.gz
Theta_e
323 324 320 318 304 302 299 300 304 305 306 311 313 310 311 313 313 309 335 347 348 350 354 351 346 349 351 352 352 353 354 354 354 354 354 354 354 354 353 352 352 353 354 354 352 352 352 351 350
324 318 316 313 299 296 298 303 302 305 309 310 311 313 312 311 319 326 336 345 349 350 353 353 345 348 350 351 352 353 354 355 354 354 354 354 353 353 352 351 351 352 353 354 353 352 351 350 348
319 316 309 303 300 296 298 302 304 308 309 309 311 317 315 314 326 329 337 346 349 349 351 352 346 347 349 350 351 352 353 353 352 353 354 354 353 352 351 350 350 352 353 354 352 351 350 348 345
315 311 309 299 297 301 302 304 307 307 307 309 311 309 315 325 328 333 339 347 347 348 350 347 344 346 348 349 350 350 350 350 350 352 353 353 350 349 351 349 351 352 352 351 351 349 348 345 343
315 310 300 298 298 302 305 305 306 307 307 307 307 307 311 323 332 338 341 345 346 348 351 352 342 344 346 349 350 349 348 348 349 351 348 348 347 350 348 347 346 349 349 348 347 346 345 343 342
306 307 297 295 298 302 304 307 306 305 306 307 306 307 311 327 331 338 343 345 348 349 352 352 346 344 345 346 347 346 347 346 346 347 347 348 348 345 344 343 344 345 345 344 344 344 343 342 341
303 301 297 298 298 299 302 307 304 304 304 305 309 306 313 321 331 342 344 347 350 351 352 350 350 349 342 341 343 343 344 345 344 346 344 343 342 341 342 341 342 341 342 342 343 343 341 341 339
306 303 298 300 297 297 304 304 306 305 304 310 313 308 311 320 329 342 346 347 349 351 351 347 347 349 348 347 341 342 342 342 340 343 338 338 340 340 340 339 339 337 340 341 341 340 339 337 336
308 299 297 298 297 300 304 302 306 308 306 308 310 311 314 322 331 338 342 344 344 347 350 351 346 347 349 350 348 343 343 341 340 340 337 337 343 343 337 337 337 338 338 340 340 338 337 334 333
303 298 299 304 303 301 303 304 305 304 305 306 308 312 313 320 323 328 335 336 339 341 346 349 346 347 347 346 349 348 350 349 347 346 342 343 344 341 339 336 336 336 337 338 337 335 334 334 338
303 298 303 302 303 304 303 303 305 303 301 305 305 308 311 315 316 323 329 334 335 339 342 345 344 345 349 345 345 346 345 345 346 345 341 341 341 338 335 335 335 341 336 335 335 335 340 338 337
299 302 302 303 304 303 301 305 303 304 305 309 310 310 311 311 313 315 321 328 334 337 340 342 342 343 346 342 342 342 339 339 341 343 343 338 337 338 337 332 334 336 334 333 333 339 339 337 336
298 300 301 303 302 303 303 302 302 304 308 310 310 310 311 311 312 315 318 323 330 336 339 340 342 342 339 338 338 337 336 337 338 340 340 338 335 336 334 333 336 337 334 333 333 338 336 335 334
301 300 301 302 302 303 301 302 303 304 308 308 308 309 311 311 312 315 316 320 324 333 338 341 340 341 342 343 337 335 337 336 337 338 338 336 333 335 333 334 336 334 331 332 332 335 334 334 333
300 296 298 299 300 300 303 299 300 305 306 306 307 310 311 312 313 314 317 319 325 331 337 340 339 340 340 340 340 338 335 337 336 335 336 334 335 336 335 336 336 333 333 330 331 334 335 332 331
293 295 291 298 301 302 302 294 301 305 306 306 307 309 310 311 312 315 317 321 326 332 335 339 336 339 338 338 337 337 334 335 335 334 335 333 331 332 332 332 334 333 331 331 329 334 330 330 329
292 287 290 294 301 300 300 296 302 306 306 305 307 308 309 311 312 315 318 322 327 333 335 337 337 337 338 336 334 335 332 331 331 332 332 332 332 331 331 334 335 332 329 331 326 330 330 328 328
287 288 291 291 296 297 296 296 301 304 305 306 307 308 309 310 311 315 317 323 328 333 336 337 336 338 335 329 330 331 331 330 328 327 328 329 329 330 332 331 331 329 328 325 326 327 329 329 326
292 289 287 291 295 294 294 296 299 303 304 305 306 308 309 310 313 315 317 322 329 332 335 336 333 336 331 328 328 327 328 328 328 329 329 330 329 328 328 328 328 326 324 323 324 328 327 325 327
291 289 290 293 296 295 295 296 300 302 303 304 306 307 309 310 312 313 316 321 328 330 334 334 332 332 332 331 330 328 327 328 329 330 332 333 331 331 328 326 325 325 323 321 322 326 324 325 326
290 289 290 291 296 298 296 295 298 301 304 304 305 307 309 310 311 312 313 318 327 329 333 331 331 333 330 332 329 329 328 327 326 328 330 329 328 327 326 326 324 324 322 319 320 326 326 322 325
288 295 294 293 292 288 297 287 296 300 301 303 305 307 308 309 311 312 313 316 324 328 333 331 331 332 329 330 328 327 324 321 325 326 326 328 326 326 325 325 324 323 322 320 321 325 326 325 322
291 296 294 294 292 292 292 290 295 299 298 302 305 307 309 310 312 313 314 315 323 328 332 330 328 329 329 327 330 326 325 324 327 326 325 323 322 322 322 322 322 321 322 321 321 325 327 327 325
297 294 294 295 292 285 291 291 294 298 300 304 307 310 311 313 315 315 316 317 322 328 331 327 325 325 327 328 329 327 325 325 324 324 321 321 321 321 319 318 319 320 319 320 321 327 326 325 325
296 290 284 284 283 284 292 291 294 301 304 306 308 310 313 315 317 317 316 318 322 326 326 322 322 322 325 330 328 325 325 325 323 322 320 320 319 319 319 318 317 317 319 319 320 322 323 324 324
293 291 285 279 282 287 293 288 295 304 307 309 309 310 311 313 317 318 317 320 322 326 320 320 321 322 323 328 326 323 325 324 322 323 323 322 321 320 320 318 319 318 318 319 321 320 321 323 325
292 289 295 288 289 285 289 294 301 303 304 305 305 307 307 309 312 318 317 321 323 324 318 320 321 321 322 325 321 321 324 323 321 323 325 325 326 325 321 321 318 318 317 318 319 318 318 320 322
295 297 287 290 281 280 288 290 292 298 300 302 303 304 304 304 305 313 317 320 323 322 320 323 326 320 322 321 321 320 323 324 323 324 324 324 325 323 323 321 320 317 318 317 318 316 318 318 319
292 290 291 291 289 284 283 290 301 298 299 300 303 301 301 300 301 305 317 319 321 320 321 321 322 319 320 322 321 320 321 322 322 322 322 323 324 323 323 321 319 317 316 316 315 314 315 316 317
296 293 293 287 285 288 287 289 304 302 302 303 299 300 299 298 298 301 305 317 317 318 317 318 319 318 320 321 320 320 323 322 320 320 323 325 324 324 323 323 319 318 317 316 314 312 313 314 314

GFSSGP_sfc_thetae_087.txt.gz
Theta_e
325 323 322 316 304 304 300 303 308 305 307 313 314 311 311 315 312 312 335 346 347 348 351 350 348 350 352 352 352 354 354 355 354 354 355 354 354 352 354 353 354 355 356 354 352 351 351 351 350
321 320 318 310 301 298 301 307 305 307 310 314 314 314 312 312 319 326 333 343 346 346 351 351 347 349 351 352 353 354 355 355 354 354 354 354 354 354 352 352 352 354 355 354 352 352 352 351 348
325 320 309 304 301 298 300 307 307 309 311 311 311 317 316 314 322 325 340 344 343 342 348 352 346 348 351 351 352 353 353 353 353 353 354 354 354 354 352 349 351 353 354 355 353 351 350 348 346
318 313 310 301 300 304 305 308 308 308 311 312 312 310 318 324 326 331 341 343 342 343 346 345 344 347 350 351 351 352 352 351 351 352 353 354 351 350 348 347 349 352 352 353 352 351 348 345 344
316 311 301 300 300 304 308 309 308 307 310 310 310 308 312 323 328 333 338 342 343 345 348 352 343 346 348 350 351 350 349 350 350 351 352 350 350 348 349 347 349 350 349 348 347 346 345 344 342
309 309 300 298 301 305 308 310 309 307 309 311 310 309 311 323 327 333 338 342 345 346 350 353 345 345 346 347 348 348 347 348 349 348 348 349 347 347 346 345 344 343 341 343 343 343 344 342 342
307 304 299 300 301 303 306 310 307 307 307 307 310 307 313 319 330 337 338 344 347 350 351 353 351 348 343 343 344 344 346 346 346 344 345 344 343 343 344 343 343 342 341 341 342 342 342 342 338
310 306 301 302 300 301 308 307 309 307 306 312 312 306 309 321 326 337 341 343 347 350 352 352 353 351 350 349 342 343 345 345 344 345 341 340 341 342 341 341 341 340 339 340 341 340 340 337 336
312 301 298 301 302 303 307 305 310 311 308 309 311 311 315 320 323 333 338 343 346 347 349 351 349 351 351 348 347 343 343 343 341 342 339 337 344 345 341 339 338 338 337 339 340 339 337 335 333
305 300 300 306 307 305 306 306 307 306 306 307 308 312 315 317 319 322 332 337 341 342 347 350 348 347 349 346 350 348 346 347 347 345 346 344 345 344 341 338 336 336 336 337 338 337 335 334 340
305 300 305 306 308 307 306 306 308 305 303 307 307 310 313 314 317 317 325 333 337 340 343 347 349 348 349 346 349 347 346 348 348 348 346 346 346 344 341 337 337 338 337 336 337 336 338 339 340
302 305 306 306 307 306 304 307 305 306 307 311 311 312 313 312 314 315 318 325 333 337 340 345 348 345 348 345 344 345 347 348 346 345 346 346 344 342 340 337 336 337 341 338 335 335 338 339 338
301 302 304 306 305 304 305 303 304 304 308 310 311 311 312 312 313 315 317 320 326 334 338 344 345 346 346 345 343 344 345 344 343 345 344 346 343 340 339 336 337 338 340 334 330 331 336 338 337
303 303 302 304 304 304 302 303 304 306 309 308 309 310 312 313 314 314 315 318 322 329 337 344 344 345 345 344 342 340 342 341 341 341 342 343 343 340 339 337 337 339 339 336 330 331 332 337 336
302 298 300 301 302 301 303 299 300 306 308 307 308 310 311 312 314 314 315 318 321 324 332 342 344 345 344 343 343 339 341 337 337 338 342 341 340 338 339 337 338 335 336 337 330 330 331 334 332
296 296 292 299 301 302 302 294 303 307 307 306 307 308 310 312 313 315 315 318 320 323 326 339 342 343 343 343 342 341 337 337 337 339 340 339 337 337 337 336 336 337 334 334 328 329 327 328 328
295 289 292 294 300 300 301 298 303 307 306 306 308 309 310 311 313 316 316 317 320 322 328 336 343 341 342 342 341 340 338 335 337 339 337 336 336 336 336 335 334 334 333 332 330 328 327 327 326
289 291 293 293 298 299 298 298 300 304 304 305 306 308 309 310 312 316 316 318 320 324 330 336 342 340 341 341 338 336 333 334 334 334 334 336 334 333 332 331 331 330 331 331 330 326 326 327 326
293 292 291 294 297 295 295 296 298 301 302 303 305 306 309 311 314 316 317 318 321 327 332 336 340 339 340 335 331 331 328 331 331 332 333 333 333 332 331 330 330 329 330 328 328 326 324 323 325
292 291 291 294 297 296 296 297 301 302 302 304 305 307 308 311 313 314 316 317 322 328 333 336 338 338 338 334 334 333 332 330 333 333 331 331 329 330 329 329 328 327 327 326 325 325 322 323 326
292 290 291 292 295 298 297 295 297 303 306 306 307 308 309 310 312 314 315 316 322 327 332 335 337 338 337 336 334 333 331 330 329 328 329 334 333 334 332 331 328 325 327 324 324 324 323 319 324
290 295 293 292 292 288 299 288 296 300 301 304 306 308 309 309 311 314 315 315 319 327 332 335 336 337 336 336 333 330 327 324 327 328 330 331 332 331 332 331 328 326 324 323 323 325 324 323 322
291 297 295 295 293 293 292 290 294 301 299 303 307 309 311 312 312 313 314 316 317 326 330 335 335 335 335 334 333 330 328 327 328 328 328 328 328 327 328 326 326 324 324 323 323 322 323 324 325
297 295 295 294 293 286 290 291 291 297 301 303 308 310 313 315 316 316 317 318 316 322 331 335 333 333 332 333 332 331 328 326 325 327 326 325 326 323 321 321 324 323 322 321 322 322 322 324 325
295 291 284 284 284 283 293 291 294 302 304 306 306 309 311 313 316 320 319 318 318 322 329 333 331 330 330 332 332 330 329 327 325 326 325 322 321 320 318 318 318 320 321 321 322 322 323 325 324
293 292 285 278 281 285 293 287 294 305 306 307 309 310 312 312 314 316 321 321 320 322 329 328 326 326 327 331 331 330 328 326 325 327 324 324 322 322 320 318 317 319 320 320 321 322 323 324 325
292 289 295 288 289 286 289 293 303 305 304 305 306 308 309 310 311 312 316 321 323 325 326 324 323 324 326 331 330 328 327 325 324 327 327 325 325 323 322 320 318 317 319 319 319 319 319 321 325
295 297 288 290 281 280 287 290 293 298 300 303 304 306 307 309 308 306 311 316 324 325 323 322 323 324 326 330 328 325 325 325 326 327 326 326 327 325 324 320 320 318 317 318 319 318 319 319 320
292 291 292 292 290 284 283 289 302 300 302 302 303 305 305 305 304 300 302 306 321 322 321 320 323 323 324 327 325 325 324 324 325 324 325 325 326 325 325 323 319 318 317 317 317 316 316 315 316
296 293 293 287 286 290 289 291 304 303 304 305 304 305 304 303 301 297 297 300 315 320 320 321 321 321 322 324 322 323 323 324 323 322 323 325 324 324 323 324 321 318 317 316 315 315 315 314 315

GFSSGP_sfc_thetae_093.txt.gz
Theta_e
320 318 314 307 294 290 286 291 299 299 298 306 308 308 304 305 312 309 337 343 345 345 348 349 349 352 353 353 352 352 353 354 355 355 355 355 355 354 354 353 354 356 357 355 353 353 351 351 351
315 315 309 300 289 283 287 297 297 301 306 309 310 307 306 307 323 329 334 342 344 345 346 348 349 350 351 352 352 352 354 354 354 355 355 354 354 354 354 353 353 354 355 354 353 353 352 350 348
313 314 299 293 288 286 287 297 300 303 306 305 304 307 308 312 324 330 339 342 343 342 345 347 347 348 350 351 351 352 352 353 353 353 355 354 354 354 353 351 352 354 354 352 351 351 351 348 346
308 305 303 289 287 291 295 298 301 302 304 305 303 303 312 323 324 333 340 343 341 341 345 344 345 347 349 350 350 351 351 350 350 351 354 354 354 354 352 350 352 352 350 349 349 350 348 345 344
301 299 292 287 289 294 299 301 303 302 303 306 305 304 307 320 334 335 335 340 339 342 342 343 343 346 348 350 350 350 350 349 350 350 351 352 352 351 350 349 349 347 347 348 348 347 345 342 342
295 298 287 289 292 297 300 302 303 303 304 305 304 304 305 317 328 331 333 342 345 342 342 343 346 346 347 347 348 348 348 349 347 349 350 351 349 348 348 348 347 345 344 344 344 343 343 342 341
296 293 289 289 292 296 300 304 301 302 302 301 307 303 306 321 326 332 333 342 346 345 341 340 342 345 344 343 344 345 346 345 345 348 348 348 346 345 346 346 344 344 342 341 341 341 340 341 341
301 298 293 293 293 294 302 305 304 301 300 309 304 300 299 317 326 330 334 338 342 345 341 340 340 340 339 339 342 343 344 343 344 347 345 344 343 344 344 343 343 342 341 341 341 340 339 340 339
303 296 293 295 295 298 304 301 304 305 302 304 305 303 316 322 326 325 327 335 339 344 342 341 340 339 338 338 341 343 345 343 343 343 341 338 341 340 340 339 341 340 338 339 339 339 339 338 337
295 292 295 299 301 300 303 298 301 302 301 303 303 307 311 317 321 322 322 331 336 338 342 343 341 340 340 343 339 337 342 342 339 340 338 338 338 337 338 338 338 338 337 337 338 338 336 336 336
294 292 297 300 304 303 300 300 302 301 299 302 303 304 306 309 311 319 322 327 336 340 343 342 342 341 340 338 338 338 338 338 338 338 336 336 338 336 334 334 335 334 336 335 335 335 335 335 333
293 298 299 300 302 301 300 300 301 300 302 306 305 305 306 306 306 307 313 315 327 338 341 343 341 340 339 337 339 338 339 337 337 336 337 334 335 335 334 332 331 329 331 331 332 333 332 334 334
296 298 301 301 302 301 302 300 299 299 302 303 305 306 304 305 305 306 308 313 315 334 339 342 340 339 340 337 338 338 338 338 338 338 337 335 334 334 334 331 332 330 330 329 330 330 331 331 333
296 297 297 298 298 298 298 297 297 300 301 302 303 303 305 304 304 304 304 307 309 314 338 342 340 339 341 339 335 334 339 338 336 336 336 334 334 333 332 332 332 331 330 330 329 330 329 328 331
299 293 295 295 296 296 298 295 296 301 301 301 302 303 304 305 306 305 305 305 308 310 328 340 340 340 340 339 335 334 334 336 334 334 335 334 333 332 331 330 330 331 331 329 328 328 327 327 330
293 292 287 293 295 297 294 289 297 300 299 299 300 301 303 304 305 306 306 307 307 309 312 339 342 339 339 337 335 333 332 332 332 332 332 332 333 332 330 328 328 331 329 327 326 326 325 325 325
289 284 286 290 295 295 292 290 295 297 298 298 298 298 299 301 303 304 306 307 309 308 308 337 340 337 337 336 334 333 331 332 332 331 330 331 332 332 329 328 328 330 328 326 325 325 325 324 325
283 285 285 285 289 291 290 289 294 297 298 297 296 297 299 301 302 305 306 308 309 310 308 336 337 337 337 336 334 332 331 329 329 330 329 330 332 330 329 328 328 329 328 327 325 324 325 324 325
288 287 286 288 292 290 290 290 292 294 295 296 297 298 300 300 303 305 306 308 310 311 309 335 335 336 336 334 333 330 329 329 327 329 331 331 330 328 327 327 326 328 327 325 325 325 323 323 325
289 287 286 289 293 290 289 289 292 294 295 298 299 299 300 300 303 305 306 308 309 310 312 334 335 336 336 335 334 331 328 324 325 328 330 330 328 327 327 327 328 327 325 324 326 325 322 322 325
289 287 286 287 289 290 288 287 290 295 297 300 301 301 303 301 302 304 306 308 309 309 318 334 335 335 335 333 329 327 325 324 321 322 324 329 331 328 327 328 328 328 327 326 325 325 322 319 322
286 292 292 290 287 281 287 280 288 294 296 299 301 301 299 308 310 306 305 307 307 310 330 334 335 334 333 332 330 325 324 321 321 322 324 327 329 329 328 328 327 327 326 325 326 325 322 321 318
290 295 292 290 286 286 287 283 287 294 293 296 304 306 306 308 310 311 313 315 311 316 333 334 333 333 333 330 328 325 322 320 322 321 322 324 325 327 327 327 324 326 326 326 326 324 322 322 319
295 292 291 288 285 280 285 285 285 288 292 301 306 307 308 308 310 311 314 315 315 316 328 333 331 332 331 329 328 325 322 320 321 319 320 322 325 326 325 327 326 325 325 325 325 326 323 321 321
291 286 278 276 277 278 289 286 288 296 301 304 304 305 306 308 308 308 308 309 311 312 314 329 330 329 330 328 327 327 325 321 320 319 320 319 319 318 319 320 321 323 325 325 325 325 324 322 321
288 287 280 274 275 279 290 283 289 300 299 302 306 305 306 305 304 303 305 305 306 314 317 324 328 328 327 327 326 327 326 321 321 321 320 317 317 319 319 318 319 320 320 323 324 324 324 323 321
288 285 292 285 285 280 284 288 295 298 297 298 302 301 301 302 300 300 301 302 302 306 320 322 324 326 326 325 326 326 325 321 321 320 321 319 319 318 317 317 318 318 320 322 322 322 322 323 321
291 292 282 285 278 276 282 284 287 294 294 299 298 298 298 299 298 297 297 298 299 303 310 321 323 322 326 326 326 326 323 322 321 321 319 319 321 320 319 317 317 318 318 319 320 319 321 321 321
290 287 289 289 285 277 278 285 295 293 295 298 297 297 296 296 294 294 294 295 296 298 302 307 320 322 322 324 325 323 321 323 321 320 320 319 321 318 318 317 317 317 317 318 317 318 319 318 319
293 290 288 281 281 285 283 284 295 296 298 300 297 296 294 293 292 292 291 292 292 294 296 299 303 318 319 323 322 322 321 321 321 322 323 323 321 321 319 318 316 316 317 317 316 316 317 318 318

GFSSGP_sfc_thetae_096.txt.gz
Theta_e
318 314 311 305 293 287 284 289 294 296 297 302 306 305 303 303 309 305 336 342 343 344 347 350 349 351 352 352 352 352 353 354 354 354 353 354 354 354 354 354 355 356 356 354 353 353 352 351 351
311 313 306 298 287 282 284 292 294 297 301 305 307 305 303 309 325 333 333 343 343 345 346 348 349 351 351 351 351 352 354 354 354 354 354 354 354 353 353 353 353 355 356 354 352 351 351 350 348
311 311 298 292 285 283 284 292 297 299 302 302 302 305 306 313 332 333 339 343 344 344 346 347 348 349 351 350 350 351 352 352 352 353 354 354 354 353 353 352 353 355 354 354 352 351 349 348 346
306 304 299 290 286 289 291 295 296 299 302 303 302 300 312 321 330 337 341 341 340 342 345 344 345 347 349 350 350 350 350 350 350 352 353 354 354 353 352 350 349 354 352 352 352 350 348 345 344
299 298 290 286 289 291 295 298 297 298 300 303 303 301 307 327 334 340 339 338 337 340 342 343 343 346 348 350 350 349 349 348 349 351 351 352 353 352 350 349 350 350 350 350 351 349 346 344 343
294 295 286 287 290 295 297 298 299 300 301 302 300 302 304 327 335 338 339 336 338 339 340 342 345 346 346 347 347 347 347 347 348 349 350 351 350 350 349 348 347 347 346 346 347 345 344 343 343
291 290 287 286 290 293 298 301 299 300 299 300 304 300 305 320 330 333 338 340 340 339 339 340 342 345 343 343 343 344 345 346 346 347 347 348 346 345 347 347 346 345 344 344 344 344 343 343 342
298 294 289 290 291 292 301 302 302 299 300 306 303 300 298 317 328 332 339 339 339 338 338 338 339 339 338 340 341 342 343 342 343 345 344 344 344 344 344 344 344 343 342 342 342 341 340 341 339
299 290 289 291 295 297 304 299 301 303 300 303 303 302 313 321 327 331 334 335 338 337 337 337 338 338 336 337 341 343 343 341 342 343 343 340 342 341 341 340 341 340 338 340 340 339 337 338 337
293 288 292 298 299 299 301 297 299 299 299 301 302 307 318 319 320 324 330 333 335 336 336 337 337 336 335 340 338 338 341 341 339 340 341 340 338 337 338 338 338 336 335 337 338 337 336 336 335
292 290 294 296 300 300 298 299 300 299 297 300 301 303 306 312 315 316 325 333 335 338 338 338 337 337 337 338 337 339 340 339 338 337 336 335 336 334 334 335 336 334 335 333 335 335 334 334 334
290 295 296 297 299 298 297 300 298 298 301 304 303 303 304 305 309 313 317 330 334 337 339 340 339 338 338 338 336 337 337 337 337 337 335 334 334 332 332 333 331 332 332 330 331 330 330 332 334
293 296 298 299 300 299 300 297 298 299 301 302 301 302 302 303 302 305 307 314 333 335 340 340 340 340 339 338 336 336 336 336 336 335 335 334 334 332 331 330 330 329 330 330 327 327 328 330 333
294 295 294 295 296 296 295 295 295 298 300 300 301 301 301 301 301 301 302 305 310 334 339 340 340 341 340 337 337 336 337 336 335 335 335 333 334 333 332 331 330 329 329 330 329 328 328 327 331
297 292 293 293 293 293 294 293 293 298 299 298 300 300 301 303 303 301 303 303 306 310 337 339 339 339 339 338 337 336 337 336 335 335 333 332 333 333 332 332 331 329 330 328 327 326 326 325 330
291 290 285 292 294 295 292 288 293 296 295 296 299 300 301 300 302 304 305 304 303 305 327 339 340 337 338 337 336 336 337 336 335 334 333 332 332 332 330 330 330 331 330 329 327 326 326 324 325
287 283 285 288 293 292 290 289 292 295 295 294 295 295 297 298 300 301 302 305 306 305 317 337 339 337 337 336 336 335 335 335 334 332 331 330 331 331 330 328 328 331 330 329 327 326 325 323 323
282 283 283 284 288 289 287 287 292 294 293 294 293 294 295 297 298 301 303 303 304 306 307 334 338 337 337 335 334 333 333 332 332 331 330 329 330 330 329 326 327 329 327 326 326 325 324 324 324
287 285 284 286 289 288 288 288 290 291 291 291 293 294 294 297 300 300 302 303 304 304 305 332 336 336 335 333 330 329 329 329 329 329 329 328 330 329 327 326 326 327 326 325 324 323 322 322 324
286 284 284 288 290 289 287 287 291 292 291 294 295 296 297 299 300 302 300 301 303 305 306 325 334 335 335 335 334 331 330 329 329 328 329 328 328 329 329 326 326 326 326 325 325 323 322 322 324
287 285 285 286 288 287 286 285 289 293 294 295 297 298 300 300 301 302 303 301 302 304 307 325 333 334 335 336 333 329 324 322 322 325 328 329 329 328 327 326 325 325 325 323 324 323 322 320 322
285 290 290 289 285 281 287 279 288 291 292 295 297 298 304 306 308 310 310 311 311 309 307 322 332 334 335 334 330 327 327 324 323 325 322 327 330 328 325 324 325 326 326 325 324 325 322 322 319
288 292 291 289 284 282 285 280 286 290 290 293 296 305 305 306 308 308 309 310 312 313 315 329 333 334 334 331 331 328 325 322 322 321 321 321 326 328 327 326 326 325 325 325 325 324 322 323 321
292 290 288 287 284 279 285 281 283 286 290 296 302 305 306 306 305 305 306 307 308 309 314 326 332 333 332 331 328 327 322 321 321 320 320 321 320 324 325 323 326 325 325 322 325 325 322 321 321
288 284 278 276 275 277 285 282 285 292 298 298 299 303 303 302 301 301 300 301 303 304 308 317 329 329 330 330 327 326 322 322 321 320 320 320 322 323 324 324 325 325 324 322 325 325 323 321 320
285 287 280 274 275 277 286 280 286 298 301 302 300 302 300 299 298 297 299 299 300 302 306 315 327 329 328 327 325 324 323 322 322 321 321 321 322 322 320 320 321 321 322 324 324 324 324 323 321
287 282 288 283 284 280 282 286 293 298 298 299 298 299 296 295 294 294 296 296 297 299 302 310 324 326 327 326 324 323 323 320 320 320 321 318 317 316 315 317 317 318 319 320 321 323 323 323 322
291 292 281 281 276 274 280 282 284 291 293 296 297 294 293 293 292 292 293 294 296 298 299 304 314 323 324 323 324 324 322 322 322 320 318 318 317 317 315 316 316 316 318 319 320 321 322 322 322
283 284 287 287 284 277 276 280 293 293 294 295 296 293 291 289 289 290 291 292 293 295 297 299 302 314 318 319 323 322 321 322 322 320 318 318 318 319 317 317 316 316 316 318 318 319 319 319 320
284 284 288 282 281 283 280 282 295 294 296 295 292 291 290 288 288 287 289 290 291 291 293 296 297 303 312 318 322 321 321 321 321 320 319 318 318 319 318 317 316 316 316 317 316 316 317 317 317

GFSSGP_sfc_thetae_099.txt.gz
Theta_e
317 311 308 303 291 287 283 287 290 292 294 298 301 303 301 301 306 301 333 340 342 343 348 348 349 351 352 351 351 351 353 353 353 354 354 354 354 354 354 354 354 356 356 354 352 352 352 351 349
309 311 303 295 286 281 283 289 292 293 299 301 303 303 301 305 324 331 333 341 343 345 347 348 349 350 351 351 351 351 353 353 353 353 354 354 354 354 354 354 353 355 355 354 352 352 351 350 348
308 307 297 292 284 282 283 289 292 297 299 298 299 302 304 309 328 332 337 341 343 344 347 348 348 348 350 350 350 351 352 351 352 352 353 353 353 354 354 352 352 354 355 353 351 351 350 348 346
304 302 297 288 285 287 289 291 294 296 299 299 298 298 306 324 332 334 341 342 341 343 345 345 346 348 349 350 350 350 350 349 349 351 352 353 353 353 353 350 352 354 354 354 352 350 348 345 344
298 296 287 285 287 290 293 295 296 296 298 301 302 299 302 325 334 338 340 341 339 341 342 344 343 346 349 350 350 349 349 348 349 350 351 352 352 352 351 349 350 352 352 351 351 349 346 344 344
293 293 285 284 287 292 296 297 297 298 299 300 298 299 302 325 334 336 338 337 339 339 341 343 345 346 347 348 348 346 346 347 347 348 349 351 351 349 349 348 349 348 347 348 347 345 344 344 343
289 289 286 286 288 291 296 300 297 297 297 299 302 298 304 323 332 336 333 332 336 338 339 340 343 345 344 342 343 343 344 345 346 346 347 348 346 346 347 347 347 346 345 346 345 344 343 343 343
295 291 286 288 289 291 298 300 300 298 298 305 301 297 300 320 329 336 336 334 333 334 335 337 341 342 341 341 340 341 343 343 344 345 344 343 344 345 345 345 345 345 344 344 344 343 342 342 340
298 289 285 289 291 294 301 297 299 301 299 301 302 300 311 323 334 334 333 332 332 333 332 335 339 339 337 338 341 343 343 342 341 342 341 340 342 341 342 341 341 342 340 341 342 341 340 339 337
291 286 289 296 297 297 300 296 300 298 299 300 300 305 307 317 325 330 330 330 330 331 331 333 335 335 334 339 340 341 342 338 338 342 342 341 339 338 339 339 338 338 337 338 338 337 336 336 333
289 288 292 294 297 296 295 297 299 297 297 299 299 301 303 305 313 318 330 332 334 335 334 334 335 334 334 337 339 340 341 339 336 340 341 337 337 336 336 335 337 334 335 333 333 333 332 331 332
289 293 294 293 296 295 295 298 297 297 298 302 302 303 301 303 304 311 316 325 332 334 334 334 334 334 334 336 337 338 339 338 339 336 335 337 336 332 332 334 334 332 331 329 329 329 330 331 331
289 292 295 297 297 296 298 295 296 297 300 301 301 300 300 301 301 302 306 317 329 332 336 335 334 334 334 334 335 336 336 336 337 338 335 335 335 333 331 331 332 332 330 328 327 327 330 331 332
292 292 292 293 293 294 294 294 292 296 299 298 299 299 300 300 299 300 301 302 316 332 335 337 336 335 335 335 334 334 336 336 335 336 335 334 334 332 330 329 329 328 329 328 328 327 327 327 329
295 291 292 293 293 292 294 290 291 296 297 295 296 296 298 300 301 299 300 301 303 319 335 337 338 338 336 335 334 333 333 334 334 334 333 332 332 331 330 330 329 327 328 326 325 326 327 327 329
289 289 284 291 292 293 290 287 292 295 292 293 294 295 296 297 298 299 300 300 302 304 324 338 340 339 337 336 335 334 334 334 333 333 333 331 332 332 330 332 331 328 329 329 326 326 325 325 326
285 282 284 287 292 291 289 287 291 294 294 293 293 293 294 295 297 298 299 299 300 302 306 333 338 337 338 337 335 334 335 334 334 334 333 332 332 332 331 331 330 330 329 329 328 326 326 324 324
281 282 280 282 287 286 286 287 291 292 292 292 292 293 294 295 296 299 300 300 301 300 302 323 336 337 337 337 334 333 334 334 334 333 333 332 332 331 329 328 329 329 329 328 328 326 325 324 324
285 283 282 283 288 285 286 287 290 292 288 288 290 291 293 294 298 299 299 300 300 300 300 320 331 335 335 334 332 331 331 333 333 334 332 332 331 329 328 326 327 329 327 326 327 326 323 322 324
284 282 281 285 288 286 285 285 290 290 289 290 292 293 294 295 297 299 300 298 298 301 301 312 328 334 335 335 334 332 332 333 333 332 331 331 329 329 328 326 327 327 325 325 325 324 322 323 324
285 282 283 283 287 287 285 285 288 291 292 294 295 294 296 301 305 308 309 306 306 302 300 309 326 333 335 335 334 326 325 326 325 327 328 328 329 329 330 328 327 326 326 324 324 324 323 320 323
283 289 288 287 283 279 286 279 287 289 289 293 295 296 302 303 305 304 304 305 307 308 311 307 324 332 334 335 332 328 327 326 327 329 329 326 327 327 328 327 327 326 326 324 324 324 323 322 318
286 290 288 287 283 281 284 279 284 290 288 291 298 303 302 302 302 302 302 303 304 305 308 313 318 331 333 334 332 329 327 326 326 327 322 326 325 326 326 327 326 326 325 325 324 323 322 321 319
291 287 287 284 282 277 283 280 282 284 288 295 299 299 299 299 300 300 302 302 304 304 305 308 319 329 332 333 332 329 327 323 321 323 321 322 324 325 326 326 326 326 325 324 323 324 323 322 320
287 282 276 275 274 276 284 280 282 293 297 297 297 297 297 296 296 297 297 297 299 300 301 305 313 328 331 332 331 328 326 323 321 321 322 320 319 318 324 324 324 324 323 323 323 323 322 322 321
285 283 276 274 275 276 284 278 283 296 298 298 298 298 296 294 294 294 295 295 296 298 300 300 307 327 330 330 328 326 322 323 322 321 322 321 320 320 320 322 321 323 323 321 321 323 323 323 321
284 281 287 281 281 278 280 283 292 296 295 298 297 295 293 291 291 291 292 293 294 295 298 299 305 326 327 328 324 322 322 322 321 321 321 321 321 322 323 322 322 321 321 321 322 322 322 323 322
286 288 279 282 274 274 278 279 281 289 293 296 294 292 291 290 289 289 290 291 292 294 297 300 302 308 323 324 325 323 322 322 321 321 320 319 318 318 317 316 314 315 314 315 318 318 320 321 322
280 279 283 284 282 278 275 278 293 291 294 296 291 290 289 288 288 287 288 290 291 292 295 297 298 303 308 319 323 322 321 320 320 320 318 318 317 316 314 313 312 314 312 316 316 317 318 319 319
282 283 284 271 275 279 279 280 294 292 291 291 288 288 288 287 287 287 287 288 288 289 291 294 295 299 303 309 319 319 321 320 320 319 319 318 317 317 317 315 314 315 315 315 315 316 317 317 317

GFSSGP_sfc_thetae_102.txt.gz
Theta_e
315 309 306 301 289 286 281 285 288 290 290 296 298 298 299 299 306 301 330 339 340 342 346 348 348 351 351 351 351 351 353 353 354 355 355 355 355 355 354 354 354 356 356 354 353 353 353 352 350
307 309 302 294 283 279 281 287 289 292 296 299 299 299 298 301 320 328 332 340 341 344 345 347 349 350 351 350 350 351 353 353 353 353 354 354 355 354 354 353 354 355 356 354 353 352 352 351 348
308 305 295 291 282 280 282 287 290 294 297 296 297 299 299 303 324 330 335 340 341 343 345 346 348 349 350 350 350 351 351 351 352 352 353 354 354 354 354 352 353 354 355 355 353 352 352 348 346
304 301 295 286 283 287 287 289 292 295 298 297 296 297 302 313 328 333 339 341 341 343 345 344 346 347 349 350 350 350 350 349 349 351 352 353 354 354 353 351 353 355 355 355 354 352 349 345 344
299 295 286 283 285 289 291 293 294 295 296 299 298 297 299 311 333 338 339 341 339 341 343 344 343 346 348 350 350 349 348 347 348 350 351 352 353 353 351 350 351 351 353 353 352 349 346 344 344
292 293 284 282 285 290 293 296 296 296 298 298 297 297 299 321 332 336 338 337 339 340 341 344 346 346 347 347 347 346 346 347 347 348 349 351 350 350 349 349 350 350 350 349 349 346 344 344 344
288 288 284 284 287 291 293 297 296 296 295 297 300 296 300 319 331 334 333 334 336 337 339 342 343 345 344 343 343 343 344 345 345 346 346 348 346 346 348 348 348 347 347 346 346 344 343 343 343
291 290 285 286 288 289 296 300 298 296 296 303 300 296 297 306 329 335 333 332 332 334 338 340 342 341 339 342 341 341 342 343 343 344 344 343 344 345 345 345 346 346 345 346 344 343 343 342 341
296 287 283 286 289 291 298 296 299 301 299 300 301 298 304 320 334 333 329 328 329 331 331 338 338 340 341 336 340 342 343 343 342 344 342 339 341 342 343 342 342 343 341 342 343 342 340 339 339
291 285 287 293 294 294 297 294 298 297 297 299 300 304 304 319 325 328 326 325 325 327 328 335 336 337 336 339 340 342 343 343 342 341 340 340 338 337 339 340 339 340 338 340 340 338 337 337 334
288 287 291 294 298 294 293 294 296 296 294 298 298 300 301 302 309 323 326 329 327 327 329 332 334 335 336 338 339 339 339 338 336 336 336 336 337 336 335 334 337 335 337 334 335 334 334 334 333
287 291 293 293 296 293 292 294 294 295 297 301 300 301 300 300 301 307 320 324 327 331 331 330 331 332 334 337 337 338 338 339 335 336 338 338 339 336 332 334 332 330 330 329 329 329 329 330 330
289 291 293 295 295 294 295 293 295 294 298 299 299 299 299 299 298 299 305 314 323 332 334 332 331 332 333 334 336 336 337 337 338 337 338 340 339 337 334 332 334 329 327 327 326 326 328 329 331
292 291 292 292 292 292 292 291 292 295 296 296 297 297 298 298 298 298 298 300 305 321 331 335 333 333 332 334 334 334 336 336 335 336 336 338 338 336 333 333 334 328 328 326 326 326 326 328 331
294 289 291 292 292 292 292 287 290 295 294 293 293 294 295 297 298 298 299 298 300 306 323 333 335 334 332 333 332 333 334 334 334 334 336 337 337 335 333 332 331 331 329 326 324 324 325 326 329
288 287 283 290 290 292 290 284 290 294 290 292 294 294 294 295 296 297 298 298 299 299 307 327 337 335 333 333 333 332 333 333 333 334 334 334 335 332 330 332 331 329 329 329 327 326 326 324 326
283 280 282 286 291 290 288 284 288 293 292 291 292 292 292 293 295 296 297 297 297 298 300 308 331 335 335 334 334 332 331 332 332 333 333 333 333 331 331 333 331 329 329 329 327 327 327 323 324
279 280 279 281 286 287 285 285 288 290 290 291 291 291 291 293 294 297 297 297 297 297 298 302 315 334 336 337 335 333 332 333 333 333 332 332 332 331 331 332 330 330 328 327 327 326 326 325 324
284 282 281 282 286 284 284 285 286 288 288 288 289 289 290 292 295 297 306 308 302 296 297 299 305 328 335 336 333 332 331 332 333 333 332 331 332 331 331 330 329 329 328 328 328 327 325 324 324
283 281 280 283 286 284 283 285 289 288 289 289 290 290 290 296 304 307 306 306 306 307 306 301 305 321 334 335 335 335 333 334 334 333 332 331 331 331 330 329 328 328 328 327 327 325 323 324 324
282 280 281 282 285 285 283 283 285 289 289 291 293 295 302 302 301 303 304 303 304 304 304 307 309 316 332 334 335 328 331 328 330 331 331 331 331 331 330 328 328 328 328 325 325 325 323 321 323
281 287 286 285 282 277 283 277 284 287 288 290 300 299 298 298 300 300 300 301 301 303 304 305 308 311 328 333 332 330 328 326 328 330 331 332 332 330 330 328 328 328 327 325 324 325 324 323 320
284 289 287 285 281 279 280 278 282 288 286 294 296 297 296 296 296 296 297 298 300 301 303 304 305 309 318 332 332 330 327 328 327 330 329 329 329 329 329 327 326 327 326 325 325 324 323 324 322
289 286 285 284 282 276 281 280 281 282 289 294 297 297 296 294 293 294 296 296 297 298 299 302 304 306 313 331 331 329 327 326 325 327 326 327 327 326 325 325 325 325 326 324 324 324 323 322 322
286 282 277 274 274 275 283 279 283 289 295 296 296 294 293 292 291 291 291 292 294 295 296 299 301 303 308 328 331 330 327 326 325 326 326 325 325 324 324 324 324 325 326 325 324 323 322 322 320
283 282 277 273 274 275 282 276 281 294 296 296 296 294 292 290 290 290 291 291 292 293 295 296 299 301 306 327 331 332 329 324 324 325 325 324 324 324 324 324 325 325 324 323 323 321 321 322 321
282 281 285 280 280 277 278 281 290 295 294 297 295 292 290 288 289 289 289 290 290 291 292 295 297 300 307 330 329 327 324 322 321 322 323 322 322 320 321 321 322 322 322 321 322 321 321 321 321
283 284 276 278 272 273 276 278 279 288 291 294 291 289 288 288 287 287 288 288 290 290 292 294 297 299 304 313 326 324 324 323 321 321 320 321 320 320 320 318 318 318 319 321 321 320 321 321 322
279 277 280 282 278 273 274 278 291 290 291 290 289 288 287 286 286 286 286 288 289 290 290 291 295 298 302 305 317 322 321 321 321 320 320 320 320 320 319 319 318 317 316 316 315 315 315 316 318
281 281 282 269 271 276 274 277 293 291 290 290 288 288 286 286 286 285 286 286 287 287 288 289 292 295 297 302 310 320 320 320 319 319 319 319 318 318 317 316 315 315 315 315 315 312 316 316 316

GFSSGP_sfc_thetae_105.txt.gz
Theta_e
318 314 313 309 297 296 291 293 295 296 298 302 303 303 303 305 304 307 336 342 344 347 351 352 350 351 351 352 352 352 354 356 356 356 354 354 354 354 354 354 355 356 357 356 354 354 354 353 352
313 313 310 303 294 290 293 294 295 298 300 303 303 304 303 304 313 326 338 343 345 348 351 352 349 350 350 350 351 352 354 355 355 356 355 354 354 354 354 353 354 355 356 356 354 354 354 352 349
313 309 304 300 291 291 292 293 296 299 302 302 303 305 305 307 319 334 341 345 346 347 350 351 348 349 350 350 350 351 352 352 353 354 355 355 354 354 354 353 353 355 356 356 354 354 354 349 346
311 309 303 294 292 294 293 296 298 299 303 303 304 303 308 314 327 337 344 346 346 347 350 348 346 348 349 350 350 350 350 349 350 352 354 355 355 354 353 352 353 355 355 355 355 354 350 346 345
307 302 295 292 292 294 296 298 300 299 301 302 304 303 304 313 333 342 343 345 345 347 350 351 344 347 349 350 350 349 348 348 349 350 351 353 354 353 352 351 352 353 354 353 353 351 347 345 344
300 301 292 290 292 295 298 301 301 300 302 303 303 304 305 314 326 340 343 344 347 347 349 351 347 347 347 347 348 346 346 346 347 349 350 351 351 351 350 350 350 350 351 350 349 347 345 344 344
297 296 292 291 292 295 298 302 300 301 302 302 305 303 307 312 332 339 340 343 345 347 349 350 351 349 344 343 343 343 344 345 346 346 347 348 348 347 349 349 349 348 349 346 347 345 344 344 343
299 298 291 293 293 294 300 303 304 302 302 307 307 303 305 311 336 339 339 340 341 343 347 346 347 347 350 352 341 341 342 342 343 345 344 344 344 346 346 345 347 348 347 345 345 343 343 343 341
301 293 290 292 293 296 302 301 305 306 305 305 307 306 310 312 334 337 336 337 339 339 339 342 344 345 347 349 348 344 343 343 342 344 343 342 350 351 350 346 344 344 342 343 343 342 340 340 339
299 292 291 296 298 298 300 300 301 301 302 303 304 308 310 310 314 327 334 334 335 337 337 339 341 342 343 343 349 350 348 349 350 350 349 349 350 350 348 345 340 341 339 341 340 340 338 339 345
295 291 295 298 300 301 300 299 301 300 298 302 302 305 307 308 309 312 326 336 334 336 338 338 337 339 339 340 344 344 345 345 344 349 350 349 348 349 348 347 348 349 341 346 344 343 345 345 345
291 295 296 297 300 300 298 301 298 299 301 305 306 306 305 306 308 308 309 324 337 337 337 339 336 336 337 340 341 342 340 341 342 347 350 348 345 345 346 345 348 348 346 345 346 345 345 344 344
292 295 297 298 298 298 298 297 298 298 302 304 304 303 304 305 305 307 308 309 315 333 340 338 338 335 335 337 340 340 340 341 343 346 347 348 342 342 343 346 346 345 345 344 343 343 342 342 342
295 294 295 296 296 296 295 297 297 299 302 301 301 302 303 303 305 305 307 308 310 312 328 342 339 337 339 337 339 339 340 340 342 345 345 346 346 342 340 340 341 343 343 342 342 341 341 340 340
296 292 295 296 297 296 297 293 293 300 300 298 298 300 301 303 304 304 306 307 309 310 312 330 340 340 340 340 340 340 340 341 338 339 340 339 340 340 339 338 339 339 340 341 340 339 338 338 336
291 291 288 294 295 296 296 290 296 297 296 297 299 300 300 302 302 304 306 306 307 307 309 313 330 341 341 340 340 340 340 340 338 337 337 338 339 340 337 336 336 336 335 337 337 334 334 334 334
288 285 287 290 295 294 293 290 295 298 297 295 298 299 300 300 302 304 304 306 308 307 307 309 315 332 339 340 341 340 339 338 339 337 336 336 337 338 335 336 336 335 332 333 333 332 333 332 331
283 285 287 287 292 292 290 289 292 295 295 295 297 299 299 299 300 308 313 314 314 316 314 308 309 316 337 340 340 339 337 338 336 335 335 336 335 336 336 336 336 334 332 331 331 329 330 330 330
288 286 285 288 291 288 289 290 292 295 294 295 296 297 297 299 309 311 311 312 312 313 314 315 315 311 320 334 336 333 330 333 333 334 337 336 335 334 335 336 335 333 332 330 330 329 327 326 328
286 284 285 288 290 288 289 289 293 294 294 296 296 298 305 306 307 308 309 309 309 309 311 312 314 316 316 327 335 336 334 334 335 335 335 336 336 335 335 335 333 331 330 330 330 328 326 326 326
286 285 286 286 290 291 288 288 290 294 294 300 305 305 304 302 302 303 304 305 306 306 307 308 311 313 317 321 334 338 334 334 332 333 332 333 337 336 335 334 333 330 330 329 330 330 328 322 325
284 289 288 287 286 282 289 281 289 292 293 299 302 301 300 300 300 300 300 301 302 303 304 305 307 310 314 319 327 332 328 327 331 333 333 333 334 334 335 334 333 331 331 331 330 331 329 326 321
287 290 288 288 286 285 285 283 287 290 290 296 300 300 300 298 297 297 297 298 300 301 301 303 303 306 311 314 321 331 331 332 335 335 336 334 333 334 334 333 333 333 332 331 330 329 328 327 324
291 289 288 287 286 280 285 284 285 288 290 297 300 299 296 296 295 296 297 297 298 299 299 298 299 302 306 311 316 327 331 332 331 333 333 332 330 331 332 332 332 332 330 331 332 328 328 326 325
289 286 280 278 279 278 285 283 286 292 298 298 297 296 295 294 294 294 293 294 295 295 295 296 297 298 302 307 314 323 330 330 332 332 333 330 328 328 329 330 331 331 330 331 331 327 327 326 324
285 286 281 274 276 279 285 281 286 297 298 298 296 295 294 294 293 292 292 292 293 292 292 293 294 296 301 304 310 324 330 330 332 333 333 331 327 328 330 329 331 331 329 329 331 330 329 325 324
285 284 287 281 283 279 282 285 293 296 295 296 294 292 290 290 290 289 291 291 291 290 291 292 293 295 299 304 308 329 330 329 328 332 334 331 329 328 328 329 329 329 327 328 328 325 326 328 324
285 286 279 283 274 273 279 281 284 289 291 293 291 289 288 289 289 289 289 289 290 289 290 291 292 294 297 301 306 322 329 328 327 328 330 329 329 328 326 326 327 326 327 327 325 325 326 322 322
281 280 282 284 282 275 274 279 291 291 289 289 288 287 286 287 288 288 287 288 288 288 289 289 291 292 295 298 303 310 324 325 324 324 325 325 325 325 325 325 324 324 325 326 325 325 321 321 321
284 283 283 277 274 279 279 278 293 291 290 289 287 287 287 287 287 286 286 286 286 286 287 288 289 291 294 296 301 315 322 322 322 322 322 323 323 324 323 323 321 322 322 322 321 318 318 318 320

GFSSGP_sfc_thetae_108.txt.gz
Theta_e
322 318 320 315 303 302 300 300 303 303 303 307 308 306 307 309 307 308 333 345 348 349 356 354 350 351 352 353 353 355 356 357 356 355 354 355 355 354 355 355 355 357 357 357 354 355 355 356 355
317 315 316 311 300 298 301 303 301 303 304 308 309 308 309 308 315 321 334 347 348 350 354 354 349 350 351 351 352 354 357 357 357 355 355 355 355 354 354 354 354 356 357 357 354 355 354 354 350
316 315 310 306 302 299 301 301 303 304 307 307 307 310 309 310 320 327 341 348 347 350 352 354 348 349 350 350 351 352 354 355 355 355 355 355 355 355 354 353 354 356 357 357 354 355 355 350 347
313 311 309 301 301 304 302 303 304 304 306 307 308 306 312 318 322 328 343 348 348 349 352 349 346 347 349 350 350 351 351 351 352 353 354 355 355 355 354 352 354 356 356 357 356 356 352 347 346
314 310 302 300 303 306 305 305 304 303 304 306 308 306 310 315 324 335 347 348 346 350 354 355 344 346 348 350 350 350 349 349 351 352 353 354 354 354 352 352 353 355 355 355 355 353 348 345 345
306 308 299 299 303 306 305 306 305 305 307 307 306 307 311 318 324 333 347 349 350 350 354 356 348 347 347 348 348 347 346 347 348 350 351 353 353 352 351 351 351 351 351 352 351 349 346 345 345
304 303 300 301 301 303 305 307 305 305 306 306 310 306 312 315 321 334 344 350 352 354 355 357 356 351 345 344 344 343 345 346 346 347 348 350 349 348 350 350 350 351 349 348 348 347 345 345 344
306 304 299 300 299 301 306 306 307 307 307 311 312 307 308 315 319 330 340 348 350 353 355 356 355 353 356 354 343 342 343 343 344 345 345 345 346 347 348 347 348 348 348 347 346 345 344 344 342
306 299 298 299 300 302 306 304 309 310 308 309 311 311 314 316 317 320 327 340 346 348 350 352 349 350 351 355 351 344 344 343 343 345 344 343 351 353 352 347 345 345 344 344 344 343 342 341 340
301 298 299 303 303 302 303 304 305 304 305 306 308 312 314 315 315 315 318 324 341 344 346 347 347 348 348 347 354 353 353 351 351 350 351 350 351 352 349 346 343 343 341 341 341 341 339 340 346
301 297 303 301 302 303 302 302 305 303 301 305 305 308 311 312 313 314 316 318 333 342 345 347 346 347 347 346 350 349 350 351 352 353 353 351 350 352 350 350 350 351 343 348 345 345 346 345 345
296 299 300 301 302 302 301 303 300 302 303 307 307 309 309 310 311 312 313 314 322 340 343 346 347 348 347 345 349 349 348 349 346 349 353 351 350 350 349 347 349 349 349 347 347 345 346 345 345
296 298 299 301 300 300 301 299 300 301 304 307 308 308 308 309 310 312 313 314 315 319 332 343 345 346 346 343 347 347 346 346 346 350 351 351 347 348 348 347 347 347 346 346 346 345 345 344 344
298 299 299 301 301 301 299 300 302 302 305 305 306 306 307 307 309 310 312 313 314 315 317 330 343 345 345 344 345 344 345 345 346 347 347 351 349 347 345 347 346 347 346 346 345 344 343 342 343
300 295 298 299 300 299 302 297 298 303 305 304 304 305 306 307 309 309 311 312 313 314 315 317 331 346 345 344 344 344 343 344 343 345 348 349 349 348 345 344 344 345 346 347 345 345 344 342 340
295 297 292 298 299 300 300 294 301 304 303 302 303 305 305 307 307 309 310 311 313 315 315 317 317 323 336 343 344 344 343 343 343 343 345 348 347 347 344 341 341 343 346 345 343 341 339 340 339
295 291 293 295 300 299 298 295 300 303 302 301 302 304 305 306 307 309 315 318 319 321 322 322 321 318 326 337 342 344 346 344 343 344 343 344 345 343 341 339 341 342 340 341 341 340 339 337 336
292 292 293 292 297 297 296 295 299 301 300 301 302 303 305 305 305 314 316 318 320 321 322 324 324 324 319 326 337 339 342 343 344 343 342 342 341 341 340 340 341 339 337 339 339 337 337 336 335
293 291 290 294 297 294 293 295 298 301 301 301 302 303 303 307 312 315 316 317 318 319 319 320 322 324 325 317 326 332 335 338 339 343 343 342 341 340 339 339 339 336 335 336 337 337 333 333 334
291 290 290 294 296 294 295 295 298 300 301 302 302 302 307 309 310 312 313 314 315 315 316 316 318 320 322 323 320 330 334 335 337 340 342 341 339 339 338 338 336 336 336 335 335 333 329 331 334
292 290 290 290 294 296 294 292 295 298 300 301 305 308 308 307 307 309 309 310 312 312 312 313 314 316 318 322 324 324 332 335 334 335 337 338 340 339 338 338 337 336 337 334 334 332 330 326 328
288 294 292 291 290 286 293 285 292 296 297 301 305 306 307 306 306 306 306 307 308 309 311 311 312 313 314 318 320 323 324 328 332 334 335 335 337 340 338 338 338 338 337 335 336 333 334 332 325
290 294 292 292 290 290 290 287 291 295 294 298 304 305 304 304 304 304 304 305 306 308 308 309 309 310 311 312 313 316 322 330 333 333 334 334 334 337 338 339 338 337 336 335 335 333 334 335 331
295 292 292 292 290 283 288 288 289 292 294 299 303 302 302 303 303 303 304 304 304 305 305 305 305 305 307 307 309 311 315 324 331 333 333 332 333 333 335 337 338 338 335 333 334 337 337 334 334
292 290 283 282 282 281 289 287 291 296 299 301 300 301 302 302 301 301 299 300 301 301 301 301 299 299 302 301 304 308 310 320 326 333 333 332 332 331 332 334 335 335 335 337 336 337 336 335 333
290 290 283 277 279 283 288 284 291 300 300 300 298 298 298 299 300 299 298 299 298 299 298 296 294 294 296 297 300 304 307 313 326 331 330 333 333 330 332 333 334 334 336 335 336 335 334 335 334
288 286 290 285 286 282 285 289 296 297 297 298 297 297 296 296 297 297 297 297 296 296 296 292 291 292 294 296 299 302 305 311 328 335 331 331 335 333 332 332 331 333 332 331 333 333 333 332 332
288 290 283 285 276 275 282 284 288 292 293 294 293 293 295 296 296 296 296 295 293 293 292 291 290 290 292 295 298 301 304 312 331 335 332 331 336 334 333 332 330 330 329 329 331 332 331 329 331
284 283 284 286 284 278 277 282 295 291 292 291 293 294 294 294 294 294 294 294 293 292 291 289 288 288 290 293 296 300 308 328 331 331 333 332 333 332 331 330 327 328 328 328 327 328 329 328 328
287 284 284 280 278 282 282 282 296 295 294 293 293 292 294 294 294 293 293 292 291 290 289 287 286 286 289 292 296 299 305 314 324 327 330 330 329 328 327 327 326 326 326 327 327 327 327 326 326